[[{"header":{"parameterUnit":"m.s-1","parameterCategory":1,"la1":30.6,"la2":29.2853,"lo1":-89.7004,"lo2":-87.6739,"dy":0.0162,"dx":0.0183,"nx":112,"ny":82,"refTime":"2023-10-21T06:00:00:Z","depth":0,"parameterNumber":2,"parameterNumberName":"U-component_of_WINDS"},"data":[0.0,0.0,0.0,0.0,0.0,0.0,0.0,0.0,0.0,0.0,0.0,0.0,0.0,0.0,0.0,0.0,0.0,0.0,0.0,0.0,0.0,0.0,0.0,0.0,0.0,0.0,0.0,0.0,0.0,0.0,0.0,0.0,0.0,0.0,0.0,0.0,0.0,0.0,0.0,0.0,0.0,0.0,0.0,0.0,0.0,0.0,0.0,0.0,0.0,0.0,0.0,0.0,0.0,0.0,0.0,0.0,0.0,0.0,0.0,0.0,0.0,0.0,0.0,0.0,0.0,0.0,0.0,0.0,0.0,0.0,0.0,0.0,0.0,0.0,0.0,0.0,0.0,0.0,0.0,0.0,0.0,0.0,0.0,0.0,0.0,0.0,0.0,0.0,0.0,0.0,0.8202,0.9061,1.0507,1.1348,1.1274,1.1159,1.0492,0.9034,0.0,0.0,0.0,0.0,0.0,0.0,0.0,0.0,0.0,0.0,0.0,0.0,0.0,0.0,0.0,0.0,0.0,0.0,0.0,0.0,0.0,0.0,0.0,0.0,0.0,0.0,0.0,0.0,0.0,0.0,0.0,0.0,0.0,0.0,0.0,0.0,0.0,0.0,0.0,0.0,0.0,0.0,0.0,0.0,0.0,0.0,0.0,0.0,0.0,0.0,0.0,0.0,0.0,0.0,0.0,0.0,0.0,0.0,0.0,0.0,0.0,0.0,0.0,0.0,0.0,0.0,0.0,0.0,0.0,0.0,0.0,0.0,0.0,0.0,0.0,0.0,0.0,0.0,0.0,0.0,0.0,0.0,0.0,0.0,0.0,0.0,0.0,0.0,0.0,0.0,0.0,0.0,0.0,0.0,0.0,0.0,0.0,0.0,0.0,0.0,0.0,0.0,0.0,0.0,0.8013,1.0039,1.0934,1.1436,1.1538,1.0962,1.0206,0.9213,0.0,0.0,0.0,0.0,0.0,0.0,0.0,0.0,0.0,0.0,0.0,0.0,0.0,0.0,0.0,0.0,0.0,0.0,0.0,0.0,0.0,0.0,0.0,0.0,0.0,0.0,0.0,0.0,0.0,0.0,0.0,0.0,0.0,0.0,0.0,0.0,0.0,0.0,0.0,0.0,0.0,0.0,0.0,0.0,0.0,0.0,0.0,0.0,0.0,0.0,0.0,0.0,0.0,0.0,0.0,0.0,0.0,0.0,0.0,0.0,0.0,0.0,0.0,0.0,0.0,0.0,0.0,0.0,0.0,0.0,0.0,0.0,0.0,0.0,0.0,0.0,0.0,0.0,0.0,0.0,0.0,0.0,0.0,0.0,0.0,0.0,0.0,0.0,0.0,0.0,0.0,0.0,0.0,0.0,0.0,0.0,0.0,0.0,0.0,0.0,0.0,0.0,0.0,0.7855,0.8811,1.0331,1.1104,1.1545,1.1577,1.1002,1.0236,0.9362,0.873,0.0,0.0,0.0,0.0,0.0,0.0,0.0,0.0,0.0,0.0,0.0,0.0,0.0,0.0,0.0,0.0,0.0,0.0,0.0,0.0,0.0,0.0,0.0,0.0,0.0,0.0,0.0,0.0,0.0,0.0,0.0,0.0,0.0,0.0,0.0,0.0,0.0,0.0,0.0,0.0,0.0,0.0,0.0,0.0,0.0,0.0,0.0,0.0,0.0,0.0,0.0,0.0,0.0,0.0,0.0,0.0,0.0,0.0,0.0,0.0,0.0,0.0,0.0,0.0,0.0,0.0,0.0,0.0,0.0,0.0,0.0,0.0,0.0,0.0,0.0,0.0,0.0,0.0,0.0,0.0,0.0,0.0,0.0,0.0,0.0,0.0,0.0,0.0,0.0,0.0,0.0,0.0,0.0,0.0,0.0,0.0,0.0,0.0,0.0,0.0,0.0,0.0,0.8818,0.9696,1.046,1.1158,1.1552,1.1511,1.0894,1.0123,0.9327,0.8405,0.0,0.0,0.0,0.0,0.0,0.0,0.0,0.0,0.0,0.0,0.0,0.0,0.0,0.0,0.0,0.0,0.0,0.0,0.0,0.0,0.0,0.0,0.0,0.0,0.0,0.0,0.0,0.0,0.0,0.0,0.0,0.0,0.0,0.0,0.0,0.0,0.0,0.0,0.0,0.0,0.0,0.0,0.0,0.0,0.0,0.0,0.0,0.0,0.0,0.0,0.0,0.0,0.0,0.0,0.0,0.0,0.0,0.0,0.0,0.0,0.0,0.0,0.0,0.0,0.0,0.0,0.0,0.0,0.0,0.0,0.0,0.0,0.0,0.0,0.0,0.0,0.0,0.0,0.0,0.0,0.0,0.0,0.0,0.0,0.0,0.0,0.0,0.0,0.0,0.0,0.0,0.0,0.0,0.0,0.0,0.0,0.0,0.0,0.0,0.0,0.0,0.0,0.9117,1.0206,1.0656,1.1124,1.1348,1.124,1.0392,0.9595,0.898,0.8101,0.0,0.0,0.0,0.0,0.0,0.0,0.0,0.0,0.0,0.0,0.0,0.0,0.0,0.0,0.0,0.0,0.0,0.0,0.0,0.0,0.0,0.0,0.0,0.0,0.0,0.0,0.0,0.0,0.0,0.0,0.0,0.0,0.0,0.0,0.0,0.0,0.0,0.0,0.0,0.0,0.0,0.0,0.0,0.0,0.0,0.0,0.0,0.0,0.0,0.0,0.0,0.0,0.0,0.0,0.0,0.0,0.0,0.0,0.0,0.0,0.0,0.0,0.0,0.0,0.0,0.0,0.0,0.0,0.0,0.0,0.0,0.0,0.0,0.0,0.0,0.0,0.0,0.0,0.0,0.0,0.0,0.0,0.0,0.0,0.0,0.0,0.0,0.0,0.0,0.0,0.0,0.0,0.0,0.0,0.0,0.0,0.0,0.0,0.0,0.0,0.0,0.0,0.8879,0.9839,1.0629,1.0921,1.1131,1.1193,1.0426,0.9677,0.911,0.0,0.0,0.0,0.0,0.0,0.0,0.0,0.0,0.0,0.0,0.0,0.0,0.0,0.0,0.0,0.0,0.0,0.0,0.0,0.0,0.0,0.0,0.0,0.0,0.0,0.0,0.0,0.0,0.0,0.0,0.0,0.0,0.0,0.0,0.0,0.0,0.0,0.0,0.0,0.0,0.0,0.0,0.0,0.0,0.0,0.0,0.0,0.0,0.0,0.0,0.0,0.0,0.0,0.0,0.0,0.0,0.0,0.0,0.0,0.0,0.0,0.0,0.0,0.0,0.0,0.0,0.0,0.0,0.0,0.0,0.0,0.0,0.0,0.0,0.0,0.0,0.0,0.0,0.0,0.0,0.0,0.0,0.0,0.0,0.0,0.0,0.0,0.0,0.0,0.0,0.0,0.0,0.0,0.0,0.0,0.0,0.0,0.0,0.0,0.0,0.0,0.0,0.7905,0.8859,0.9734,1.05,1.0725,1.086,1.0982,1.0222,0.9571,0.9145,0.0,0.0,0.0,0.0,0.0,0.0,0.0,0.0,0.0,0.0,0.0,0.0,0.0,0.0,0.0,0.0,0.0,0.0,0.0,0.0,0.0,0.0,0.0,0.0,0.0,0.0,0.0,0.0,0.0,0.0,0.0,0.0,0.0,0.0,0.0,0.0,0.0,0.0,0.0,0.0,0.0,0.0,0.0,0.0,0.0,0.0,0.0,0.0,0.0,0.0,0.0,0.0,0.0,0.0,0.0,0.0,0.0,0.0,0.0,0.0,0.0,0.0,0.0,0.0,0.0,0.0,0.0,0.0,0.0,0.0,0.0,0.0,0.0,0.0,0.0,0.0,0.0,0.0,0.0,0.0,0.0,0.0,0.0,0.0,0.0,0.0,0.0,0.0,0.0,0.0,0.0,0.0,0.0,0.0,0.0,0.0,0.0,0.0,0.0,0.0,0.0,0.0,0.7959,0.9154,1.0076,1.0295,1.0541,1.0656,1.05,0.9703,0.9124,0.0,0.0,0.0,0.0,0.0,0.0,0.0,0.0,0.0,0.0,0.0,0.0,0.0,0.0,0.0,0.0,0.0,0.0,0.0,0.0,0.0,0.0,0.0,0.0,0.0,0.0,0.0,0.0,0.0,0.0,0.0,0.0,0.0,0.0,0.0,0.0,0.0,0.0,0.0,0.0,0.0,0.0,0.0,0.0,0.0,0.0,0.0,0.0,0.0,0.0,0.0,0.0,0.0,0.0,0.0,0.0,0.0,0.0,0.0,0.0,0.0,0.0,0.0,0.0,0.0,0.0,0.0,0.0,0.0,0.0,0.0,0.0,0.0,0.0,0.0,0.0,0.0,0.0,0.0,0.0,0.0,0.0,0.0,0.0,0.0,0.0,0.0,0.0,0.0,0.0,0.0,0.0,0.0,0.0,0.0,0.0,0.0,0.0,0.0,0.0,0.0,0.0,0.0,0.8133,0.9103,0.9876,1.0274,1.0358,1.0392,1.0344,0.9808,0.9273,0.8777,0.0,0.0,0.0,0.0,0.0,0.0,0.0,0.0,0.0,0.0,0.0,0.0,0.0,0.0,0.0,0.0,0.0,0.0,0.0,0.0,0.0,0.0,0.0,0.0,0.0,0.0,0.0,0.0,0.0,0.0,0.0,0.0,0.0,0.0,0.0,0.0,0.0,0.0,0.0,0.0,0.0,0.0,0.0,0.0,0.0,0.0,0.0,0.0,0.0,0.0,0.0,0.0,0.0,0.0,0.0,0.0,0.0,0.0,0.0,0.0,0.0,0.0,0.0,0.0,0.0,0.0,0.0,0.0,0.0,0.0,0.0,0.0,0.0,0.0,0.0,0.0,0.0,0.0,0.0,0.0,0.0,0.0,0.0,0.0,0.0,0.0,0.0,0.0,0.0,0.0,0.0,0.0,0.0,0.0,0.0,0.0,0.0,0.0,0.0,0.0,0.0,0.0,0.8119,0.9015,0.9734,1.0059,1.0154,1.0215,1.0276,0.9815,0.9361,0.9001,0.0,0.0,0.0,0.0,0.0,0.0,0.0,0.0,0.0,0.0,0.0,0.0,0.0,0.0,0.0,0.0,0.0,0.0,0.0,0.0,0.0,0.0,0.0,0.0,0.0,0.0,0.0,0.0,0.0,0.0,0.0,0.0,0.0,0.0,0.0,0.0,0.0,0.0,0.0,0.0,0.0,0.0,0.0,0.0,0.0,0.0,0.0,0.0,0.0,0.0,0.0,0.0,0.0,0.0,0.0,0.0,0.0,0.0,0.0,0.0,0.0,0.0,0.0,0.0,0.0,0.0,0.0,0.0,0.0,0.0,0.0,0.0,0.0,0.0,0.0,0.0,0.0,0.0,0.0,0.0,0.0,0.0,0.0,0.0,0.0,0.0,0.0,0.0,0.0,0.0,0.0,0.0,0.0,0.0,0.0,0.0,0.0,0.0,0.0,0.0,0.0,0.0,0.7993,0.8926,0.9646,0.9771,0.9913,1.0055,1.0229,0.9757,0.9417,0.939,0.0,0.0,0.0,0.0,0.0,0.0,0.0,0.0,0.0,0.0,0.0,0.0,0.0,0.0,0.0,0.0,0.0,0.0,0.0,0.0,0.0,0.0,0.0,0.0,0.0,0.0,0.0,0.0,0.0,0.0,0.0,0.0,0.0,0.0,0.0,0.0,0.0,0.0,0.0,0.0,0.0,0.0,0.0,0.0,0.0,0.0,0.0,0.0,0.0,0.0,0.0,0.0,0.0,0.0,0.0,0.0,0.0,0.0,0.0,0.0,0.8857,0.8764,0.0,0.0,0.0,0.0,0.0,0.0,0.0,0.0,0.0,0.0,0.0,0.0,0.0,0.0,0.0,0.0,0.0,0.0,0.0,0.0,0.0,0.0,0.0,0.0,0.0,0.0,0.0,0.0,0.0,0.0,0.0,0.0,0.0,0.0,0.0,0.0,0.0,0.0,0.0,0.0,0.8192,0.8954,0.953,0.9765,0.9819,0.9852,0.9917,0.97,0.9456,0.9247,0.8804,0.0,0.0,0.0,0.0,0.0,0.0,0.0,0.0,0.0,0.0,0.0,0.0,0.0,0.0,0.0,0.0,0.0,0.0,0.0,0.0,0.0,0.0,0.0,0.0,0.0,0.0,0.0,0.0,0.0,0.0,0.0,0.0,0.0,0.0,0.0,0.0,0.0,0.0,0.0,0.0,0.0,0.0,0.0,0.0,0.0,0.0,0.0,0.0,0.0,0.0,0.0,0.0,0.0,0.0,0.0,0.0,0.0,0.0,0.0,0.8975,0.8598,0.0,0.0,0.0,0.0,0.0,0.0,0.0,0.0,0.0,0.0,0.0,0.0,0.0,0.0,0.0,0.0,0.0,0.0,0.0,0.0,0.0,0.0,0.0,0.0,0.0,0.0,0.0,0.0,0.0,0.0,0.0,0.0,0.0,0.0,0.0,0.0,0.0,0.0,0.0,0.0,0.8418,0.913,0.9652,0.9771,0.9852,0.99,0.99,0.9704,0.9571,0.9483,0.8467,0.0,0.0,0.0,0.0,0.0,0.0,0.0,0.0,0.0,0.0,0.0,0.0,0.0,0.0,0.0,0.0,0.0,0.0,0.0,0.0,0.0,0.0,0.0,0.0,0.0,0.0,0.0,0.0,0.0,0.0,0.0,0.0,0.0,0.0,0.0,0.0,0.0,0.0,0.0,0.0,0.0,0.0,0.0,0.0,0.0,0.0,0.0,0.0,0.0,0.0,0.0,0.0,0.0,0.9527,0.9794,0.9967,0.9967,0.957,0.8912,0.8836,0.8114,0.7072,0.7726,0.0,0.0,0.0,0.0,0.0,0.0,0.0,0.0,0.0,0.0,0.0,0.0,0.0,0.0,0.0,0.0,0.0,0.0,0.0,0.0,0.0,0.0,0.7333,0.7705,0.7739,0.7543,0.7002,0.0,0.0,0.0,0.0,0.0,0.0,0.0,0.0,0.0,0.0,0.0,0.8515,0.918,0.9546,0.939,0.9469,0.9479,0.9286,0.9078,0.8996,0.911,0.7644,0.6763,0.0,0.0,0.0,0.0,0.0,0.0,0.0,0.0,0.0,0.0,0.0,0.0,0.0,0.0,0.0,0.0,0.0,0.0,0.0,0.0,0.0,0.0,0.0,0.0,0.0,0.0,0.0,0.0,0.0,0.0,0.0,0.0,0.5518,0.5839,0.0,0.0,0.0,0.0,0.0,0.0,0.0,0.0,0.0,0.0,0.0,0.0,0.0,0.6781,0.7466,0.7754,0.8115,0.8534,0.8817,0.8954,0.8988,0.903,0.9025,0.8895,0.8823,0.0,0.7445,0.7601,0.0,0.0,0.0,0.0,0.0,0.0,0.0,0.0,0.0,0.0,0.0,0.0,0.0,0.0,0.0,0.0,0.0,0.0,0.0,0.0,0.0,0.0,0.7502,0.7685,0.7694,0.7672,0.7595,0.7205,0.6864,0.6876,0.6774,0.6697,0.0,0.0,0.0,0.0,0.0,0.0,0.8063,0.8489,0.8504,0.7789,0.7725,0.7393,0.653,0.6411,0.6403,0.6416,0.6082,0.5865,0.5865,0.5578,0.0,0.0,0.0,0.0,0.0,0.0,0.0,0.0,0.0,0.0,0.0,0.0,0.0,0.0,0.0,0.0,0.0,0.0,0.0,0.0,0.0,0.0,0.0,0.0,0.0,0.0,0.0,0.0,0.0,0.5594,0.5981,0.6152,0.6149,0.5991,0.0,0.0,0.0,0.0,0.0,0.0,0.0,0.0,0.0,0.7197,0.7349,0.7674,0.822,0.841,0.8682,0.9019,0.9229,0.9381,0.9476,0.9493,0.9553,0.9612,0.9525,0.9188,0.8677,0.8107,0.7602,0.716,0.0,0.0,0.0,0.0,0.6184,0.619,0.6721,0.6924,0.6969,0.7091,0.0,0.0,0.0,0.0,0.0,0.0,0.0,0.6676,0.6963,0.7315,0.7665,0.7886,0.7954,0.7981,0.7946,0.7744,0.7487,0.7191,0.7084,0.6996,0.6827,0.6253,0.0,0.0,0.0,0.5699,0.6089,0.6432,0.6469,0.6039,0.606,0.591,0.5388,0.534,0.5346,0.5346,0.4573,0.4143,0.4173,0.3934,0.3739,0.0,0.0,0.0,0.0,0.0,0.0,0.0,0.0,0.0,0.0,0.0,0.0,0.0,0.0,0.0,0.0,0.0,0.0,0.0,0.0,0.0,0.0,0.0,0.0,0.0,0.0,0.0,0.0,0.5334,0.5517,0.5713,0.5441,0.5163,0.0,0.0,0.0,0.0,0.0,0.0,0.427,0.4418,0.5193,0.6837,0.7033,0.7303,0.7733,0.7891,0.8109,0.8347,0.8492,0.8619,0.8765,0.8793,0.9114,0.9602,0.952,0.9576,0.9688,0.8792,0.8106,0.7641,0.7372,0.7095,0.6856,0.7056,0.7067,0.7051,0.7473,0.7595,0.7559,0.7565,0.7388,0.7089,0.6904,0.0,0.0,0.0,0.0,0.697,0.7329,0.7706,0.803,0.8268,0.835,0.835,0.8295,0.7954,0.7495,0.6987,0.6897,0.6724,0.6138,0.5303,0.0,0.5058,0.4426,0.406,0.4416,0.4646,0.4657,0.4336,0.4379,0.4291,0.3922,0.3899,0.3896,0.3896,0.2979,0.2433,0.2496,0.2347,0.2229,0.2113,0.0,0.0,0.0,0.0,0.0,0.0,0.0,0.0,0.0,0.0,0.0,0.0,0.0,0.0,0.0,0.0,0.0,0.0,0.0,0.0,0.0,0.0,0.0,0.0,0.0,0.0,0.0,0.0,0.0,0.3859,0.3041,0.0,0.0,0.0,0.0,0.2566,0.2751,0.2941,0.3082,0.3347,0.3648,0.4071,0.4119,0.4371,0.4901,0.4909,0.501,0.5247,0.5351,0.5423,0.5431,0.5576,0.6483,0.8024,0.802,0.8754,0.9965,0.9454,0.9024,0.8688,0.8214,0.8023,0.8006,0.8017,0.8017,0.8066,0.8432,0.8519,0.8497,0.8399,0.8193,0.7957,0.7578,0.743,0.0,0.0,0.7395,0.7703,0.7979,0.8394,0.8747,0.8843,0.8876,0.8849,0.8792,0.7526,0.628,0.5848,0.5772,0.5355,0.4002,0.0,0.3682,0.3685,0.3772,0.3817,0.3857,0.392,0.3603,0.2703,0.2641,0.2256,0.1289,0.1209,0.12,0.12,0.112,0.1111,0.1111,0.108,0.1079,0.1078,0.194,0.0,0.0,0.0,0.0,0.0,0.0,0.0,0.0,0.0,0.0,0.0,0.0,0.0,0.0,0.0,0.0,0.0,0.0,0.0,0.0,0.0,0.0,0.0,0.0,0.0,0.0,0.0,0.0,0.2684,0.2349,0.0,0.2009,0.133,0.0899,0.0898,0.0422,0.0585,0.1597,0.1807,0.2444,0.355,0.3727,0.3909,0.414,0.4167,0.4239,0.4274,0.4333,0.4384,0.4384,0.4402,0.4741,0.5314,0.5282,0.5545,0.5997,0.577,0.704,0.9084,0.8758,0.8633,0.8644,0.872,0.8747,0.878,0.8981,0.9003,0.8905,0.8709,0.8481,0.828,0.8225,0.81,0.7961,0.8057,0.8171,0.8081,0.7215,0.7202,0.7135,0.6176,0.5943,0.5946,0.5901,0.5429,0.4687,0.3609,0.3971,0.4294,0.3711,0.2957,0.2428,0.2438,0.1826,0.1357,0.1356,0.1367,0.1279,0.0927,0.0894,0.0762,0.0398,0.0357,0.0352,0.0352,0.0344,0.037,0.037,0.037,0.037,0.037,0.0661,0.0941,0.0,0.0,0.0,0.0,0.0,0.0,0.0,0.0,0.0,0.0,0.0,0.0,0.0,0.0,0.0,0.0,0.0,0.0,0.0,0.0,0.0,0.0,0.0,0.0,0.0,0.189,0.1681,0.1186,0.0812,0.0587,0.0599,-0.0134,-0.0578,-0.0481,-0.106,-0.0958,0.0078,0.0201,0.0741,0.1761,0.1958,0.2059,0.2059,0.2073,0.2123,0.2123,0.2123,0.2123,0.2123,0.2123,0.2426,0.2986,0.2944,0.3251,0.381,0.3752,0.5198,0.7377,0.7227,0.7132,0.7173,0.7275,0.7325,0.7333,0.7429,0.7609,0.7746,0.7645,0.7859,0.8105,0.767,0.7593,0.7573,0.7242,0.7192,0.6988,0.6069,0.5919,0.5719,0.4712,0.4473,0.4452,0.4434,0.4003,0.3339,0.2374,0.2753,0.3058,0.2472,0.1713,0.1201,0.1207,0.0511,0.0,0.0,0.0,0.0,0.0,0.0,0.0,0.0,0.0,0.0,0.0,0.0,0.0,0.0,0.0,0.0,0.0,0.0,0.0089,0.0265,0.0,0.0,0.0,0.0,0.0,0.0,0.0,0.0,0.0,0.0,0.0,0.0,0.0,0.0,0.0,0.0,0.0,0.0,0.0,0.0,0.0,0.0,0.0,0.0162,-0.0617,-0.1082,-0.0711,-0.1708,-0.2147,-0.1508,-0.1668,-0.1734,-0.1468,-0.144,-0.1441,-0.1431,-0.1447,-0.1463,-0.1436,-0.1436,-0.1436,-0.1436,-0.1436,-0.1436,-0.1436,-0.1436,-0.1436,-0.1436,-0.1436,-0.0522,0.1085,0.1085,0.2014,0.3612,0.361,0.3562,0.3526,0.3641,0.3702,0.3696,0.377,0.3793,0.3793,0.3793,0.4395,0.5157,0.5157,0.6293,0.7401,0.5894,0.5925,0.6197,0.4698,0.4358,0.4491,0.4583,0.4643,0.4688,0.4614,0.4614,0.4596,0.4545,0.3289,0.2178,0.2198,0.2073,0.1574,0.0241,0.0,0.0,0.0,0.0,0.0,0.0,0.0,0.0,0.0,0.0,0.0,0.0,0.0,0.0,0.0,0.0,0.0,0.0,0.0,0.0,0.0,0.0,0.0,0.0,0.0,0.0,0.0,0.0,0.0,0.0,0.0,0.0,0.0,0.0,0.0,0.0,0.0,0.0,0.0,0.0,0.0,0.0,0.0,0.0,0.0,-0.0991,-0.0819,-0.0813,-0.1066,-0.1456,-0.199,-0.2392,-0.2562,-0.2341,-0.2428,-0.2439,-0.233,-0.2387,-0.2428,-0.2397,-0.2467,-0.2485,-0.2492,-0.2493,-0.2493,-0.2493,-0.2493,-0.2493,-0.2493,-0.2493,-0.2493,-0.2493,-0.2493,-0.2225,-0.1778,-0.172,-0.1445,-0.1001,-0.0993,-0.0981,-0.063,0.2487,0.3689,0.37,0.3727,0.3741,0.3793,0.3793,0.3962,0.4194,0.4197,0.4459,0.4684,0.4347,0.4282,0.4221,0.3887,0.3741,0.344,0.2365,0.2115,0.1827,0.0653,0.0382,0.0381,0.0345,0.0,-0.0306,-0.0304,-0.034,-0.0296,-0.0035,0.0,0.0,0.0,0.0,0.0,0.0,0.0,0.0,0.0,0.0,0.0,0.0,0.0,0.0,0.0,0.0,0.0,0.0,0.0,0.0,0.0,0.0,0.0,0.0,0.0,0.0,0.0,0.0,0.0,0.0,0.0,0.0,0.0,0.0,0.0,0.0,0.0,0.0,0.0,0.0,0.0,0.0,0.0,0.0,0.0,-0.1832,-0.1746,-0.1831,-0.1844,-0.2095,-0.2607,-0.2758,-0.2795,-0.2795,-0.2795,-0.2795,-0.2795,-0.2827,-0.2848,-0.2848,-0.2864,-0.2919,-0.2919,-0.2919,-0.2919,-0.2919,-0.2919,-0.2919,-0.2919,-0.2919,-0.2919,-0.2919,-0.2919,-0.2919,-0.2917,-0.2855,-0.2841,-0.2783,-0.281,-0.2784,-0.2491,0.0,0.0,0.0,0.0,0.1079,0.1112,0.1112,0.146,0.1876,0.1864,0.2385,0.2899,0.2328,0.2279,0.2306,0.1714,0.1486,0.122,0.0345,0.0077,-0.0154,-0.1093,-0.1319,-0.1312,-0.1289,-0.1287,-0.1282,-0.1282,-0.1316,0.0,-0.062,-0.0541,-0.0537,-0.0531,-0.0533,-0.0534,-0.0531,-0.0355,-0.0248,-0.0244,-0.0105,0.0,0.0,0.0,0.0,0.0,0.0,0.0,0.0,0.0,0.0,0.0,0.0,0.0,0.0,0.0,0.0,0.0,-0.0118,0.0147,0.0,0.0,0.0,0.0,0.0,0.0,0.0,0.0,0.0,0.0,0.0,0.0,0.0,0.0,0.0,0.0,-0.2361,-0.2548,-0.2688,-0.2713,-0.2736,-0.2788,-0.2885,-0.2919,-0.2919,-0.2919,-0.2919,-0.2919,-0.2919,-0.2919,-0.2919,-0.2919,0.0,0.0,0.0,-0.2919,-0.2919,-0.2919,-0.2919,-0.2919,-0.2919,-0.2919,-0.2919,-0.2919,-0.2919,-0.2919,-0.2919,-0.2859,-0.279,-0.279,-0.2814,-0.2777,-0.2716,-0.2672,-0.2597,-0.2608,-0.2594,-0.2592,-0.2592,0.0,0.0,-0.0979,0.0193,0.1406,0.0038,0.0114,0.0381,-0.103,-0.1462,-0.1439,-0.1455,-0.1459,-0.1463,-0.1439,-0.143,-0.1463,-0.1439,-0.143,-0.1459,-0.1459,-0.1446,-0.1431,-0.1453,-0.1355,-0.1293,-0.1301,-0.131,-0.1314,-0.1298,-0.0946,-0.0695,-0.0693,-0.0362,0.0,-0.0072,-0.0068,-0.0033,0.0,0.0,-0.0062,-0.0244,-0.0243,-0.0332,-0.0507,-0.0514,-0.0525,-0.0541,-0.0515,-0.1183,-0.2353,-0.0922,-0.0242,0.0,0.0,0.0,0.0,0.0,0.0,0.0,0.0,0.0,0.0,0.0,0.0,0.0,0.0,0.0,-0.2319,-0.2525,-0.2671,-0.2747,-0.2842,-0.2868,-0.2857,-0.2912,-0.2919,-0.2919,-0.2919,-0.2919,-0.2919,-0.2919,-0.2919,-0.2919,-0.2919,-0.2919,-0.2919,-0.2919,-0.2919,-0.2919,-0.2919,-0.2919,-0.2919,-0.2919,0.0,-0.2919,-0.2919,-0.2919,-0.2919,-0.2919,-0.2916,-0.2866,-0.2866,-0.2833,-0.2777,-0.2716,-0.2658,-0.2607,-0.2618,-0.2552,-0.2532,-0.2532,-0.2366,-0.2156,-0.2175,-0.1955,-0.1697,-0.1956,-0.1976,0.0,-0.2246,-0.233,-0.2335,-0.2341,-0.2343,-0.2344,-0.2349,-0.2346,-0.2344,-0.2349,-0.2346,-0.2343,-0.2343,-0.2338,-0.2333,-0.2368,-0.1783,-0.1318,-0.1312,-0.1314,-0.1315,-0.1312,-0.1239,-0.1156,-0.117,-0.1112,-0.0888,-0.0502,-0.0496,-0.0351,-0.0035,0.0,-0.052,-0.1651,-0.1696,-0.2297,-0.3603,-0.3615,-0.3684,-0.3779,-0.3791,-0.3931,-0.4164,-0.258,-0.1806,0.0,0.0,0.0,0.0,0.0,0.0,0.0,0.0,0.0,0.0,0.0,-0.2078,-0.3183,0.0,-0.4102,-0.5306,-0.5559,-0.5656,-0.5887,-0.5822,-0.5046,-0.3145,-0.2919,-0.2919,-0.2919,-0.2919,-0.2919,-0.2919,-0.2919,-0.2919,-0.2919,-0.2919,-0.2919,-0.2919,-0.2919,-0.2919,-0.2919,-0.2919,-0.2919,-0.2919,-0.2919,-0.2919,-0.2919,-0.2919,-0.2919,-0.2919,-0.2919,-0.2919,-0.2919,-0.2919,-0.2838,-0.278,-0.275,-0.2701,-0.2645,-0.2631,-0.2616,-0.2604,-0.2604,-0.2583,-0.2557,-0.2557,-0.2559,-0.2599,-0.2559,-0.2578,-0.2601,-0.2601,-0.2601,-0.2605,-0.262,-0.2613,-0.2605,-0.2579,-0.2613,-0.2605,-0.2581,-0.2612,-0.2607,-0.2581,-0.2612,-0.2601,-0.2601,-0.2233,-0.1963,-0.1963,-0.1963,-0.1963,-0.1963,-0.1767,-0.1642,-0.1662,-0.1435,-0.1195,-0.0978,-0.0953,-0.1221,-0.1875,-0.1896,-0.2579,-0.4135,-0.4111,-0.4375,-0.5048,-0.4913,-0.483,-0.4763,-0.4729,-0.5053,-0.5743,-0.5054,-0.428,0.0,0.0,0.0,0.0,0.0,0.0,0.0,-0.1886,-0.2211,-0.2365,-0.2791,-0.3638,-0.532,-0.5786,-0.6498,-0.834,-0.8676,-0.8778,-0.8924,-0.8853,-0.7597,-0.4397,-0.3992,-0.3992,-0.3992,-0.3992,-0.3992,-0.3992,-0.3992,-0.3992,-0.3992,-0.3992,-0.3992,-0.3992,-0.3992,-0.3814,-0.3456,-0.3456,-0.3278,-0.2919,-0.2919,-0.2919,-0.2919,-0.2919,-0.2919,-0.2919,-0.2919,-0.2919,-0.2919,-0.2868,-0.2837,-0.2792,-0.2785,-0.2754,-0.2707,-0.269,-0.268,-0.2675,-0.2675,-0.2643,-0.2605,-0.2589,-0.2611,-0.2581,-0.2604,-0.2615,-0.2619,-0.2619,-0.2619,-0.2626,-0.2607,-0.2638,-0.2626,-0.2609,-0.2637,-0.2626,-0.2609,-0.2637,-0.2627,-0.261,-0.2637,-0.2619,-0.2619,-0.2619,-0.2615,-0.2604,-0.2601,-0.2601,-0.2601,-0.2318,-0.2116,-0.2116,-0.2097,-0.2152,-0.2396,-0.2347,-0.2864,-0.4186,-0.4272,-0.5017,-0.6637,-0.6553,-0.6515,-0.6606,-0.6395,-0.6159,-0.5997,-0.5926,-0.6493,-0.7592,-0.7724,-0.6861,-0.2716,-0.2022,-0.1335,-0.1445,-0.1522,-0.1677,0.0,-0.3399,-0.4654,-0.4767,-0.6235,-0.759,-0.786,-0.7995,-0.8177,-0.8618,-0.9116,-0.9321,-0.887,-0.9193,-0.9126,-0.8071,-0.7963,-0.7963,-0.7963,-0.7963,-0.7963,-0.7963,-0.7963,-0.7963,-0.7963,-0.7963,-0.7963,-0.7963,-0.7963,-0.7115,-0.5423,-0.5375,-0.4527,-0.2919,-0.2919,-0.2919,-0.2919,-0.2919,-0.2919,-0.2919,-0.2919,-0.2919,-0.2917,-0.2845,-0.2786,-0.2821,-0.2793,-0.278,-0.2763,-0.264,-0.2594,-0.2612,-0.2612,-0.2607,-0.2602,-0.2605,-0.262,-0.2597,-0.2599,-0.2661,-0.2683,-0.2683,-0.2683,-0.2683,-0.2687,-0.2684,-0.2683,-0.2687,-0.2684,-0.2683,-0.2687,-0.2684,-0.2683,-0.2687,-0.2684,-0.2683,-0.2683,-0.2683,-0.2664,-0.2609,-0.2601,-0.2601,-0.2601,-0.2562,-0.2521,-0.2521,-0.3935,-0.5297,-0.6346,-0.611,-0.5954,-0.6002,-0.6031,-0.6653,-0.8089,-0.8136,-0.8745,-1.011,-1.0098,-1.012,-1.0216,-1.0216,-1.0291,-1.0439,-1.0096,-0.8787,-0.2129,-0.2438,-0.2869,-0.3304,-0.4115,-0.493,-0.5457,-0.6196,-0.6837,-0.6972,-0.7719,-0.8693,-0.9871,-1.0441,-1.1111,-1.2287,-1.2714,-1.2963,-1.3072,-1.2903,-1.2651,-1.2388,-1.2511,-1.1527,-0.885,-0.8587,-0.8587,-0.8587,-0.885,-0.9024,-0.9024,-0.9024,-0.9024,-0.9024,-0.8761,-0.823,-0.7383,-0.7383,-0.6984,-0.6225,-0.6225,-0.616,-0.6121,-0.6121,-0.6121,-0.6121,-0.6121,-0.6145,-0.6219,-0.611,-0.6191,-0.6364,-0.6037,-0.6029,-0.5951,-0.3576,-0.2707,-0.2638,-0.2638,-0.2617,-0.259,-0.2649,-0.2652,-0.2609,-0.2626,-0.2683,-0.2692,-0.2692,-0.2692,-0.2943,-0.3992,-0.4283,-0.4283,-0.4283,-0.4283,-0.3992,-0.2943,-0.3532,-0.4283,-0.4283,-0.508,-0.5792,-0.5792,-0.5792,-0.5775,-0.576,-0.4884,-0.4225,-0.4225,-0.5132,-0.5752,-0.5752,-0.6417,-0.7096,-0.7589,-0.7453,-0.775,-0.869,-0.863,-0.9269,-1.0847,-1.0763,-1.0908,-1.1384,-1.1232,-1.1108,-1.1025,-1.0945,-1.0902,-1.0902,-1.08,-1.032,-0.2648,-0.3461,-0.4372,-0.5315,-0.6477,-0.751,-0.7989,-0.8555,-0.9066,-0.9315,-0.9719,-1.0566,-1.2263,-1.2869,-1.3598,-1.5137,-1.5547,-1.5771,-1.6069,-1.5624,-1.5198,-1.5055,-1.5046,-1.3774,-1.0567,-1.04,-1.051,-1.054,-1.089,-1.1067,-1.1067,-1.1067,-1.1067,-1.1067,-1.0762,-1.0318,-0.9784,-0.974,-0.9517,-0.8983,-0.8983,-0.8949,-0.8837,-0.8837,-0.8837,-0.8833,-0.8763,-0.885,-0.8975,-0.8837,-0.8944,-0.9243,-0.8714,-0.8718,-0.8628,-0.5739,-0.4433,-0.4168,-0.4168,-0.4124,-0.4113,-0.4149,-0.4136,-0.4115,-0.4149,-0.4159,-0.4159,-0.4159,-0.4159,-0.4453,-0.579,-0.6124,-0.6124,-0.6124,-0.6124,-0.5748,-0.4453,-0.5206,-0.6124,-0.6124,-0.7129,-0.801,-0.801,-0.801,-0.801,-0.801,-0.7338,-0.6665,-0.6166,-0.7212,-0.8177,-0.8678,-0.8737,-0.893,-0.9395,-0.9444,-0.9951,-1.1131,-1.1049,-1.1519,-1.2714,-1.2589,-1.2405,-1.2194,-1.1997,-1.183,-1.1624,-1.1523,-1.1473,-1.1473,-1.1458,-1.1481,-0.5401,-0.5475,-0.5442,-0.7025,-0.7778,-0.8211,-0.8346,-0.9849,-1.1369,-1.1888,-1.3136,-1.4404,-1.5389,-1.5219,-1.5137,-1.5749,-1.6308,-1.6487,-1.5958,-1.5882,-1.5628,-1.4989,-1.4467,-1.4231,-1.439,-1.4884,-1.5264,-1.5469,-1.5484,-1.5528,-1.5528,-1.5528,-1.5528,-1.5528,-1.5484,-1.4588,-1.2712,-1.2668,-1.1776,-0.9953,-0.9953,-0.9948,-0.9948,-0.9948,-0.9948,-0.9938,-0.9746,-0.976,-0.9943,-0.9746,-0.976,-0.9929,-0.9737,-0.9646,-0.9632,-0.9371,-0.8667,-0.7843,-0.7843,-0.7843,-0.7839,-0.7839,-0.7839,-0.7839,-0.7839,-0.7843,-0.7843,-0.7843,-0.7843,-0.7839,-0.7927,-0.7927,-0.7927,-0.7927,-0.7927,-0.7927,-0.7839,-0.7885,-0.7927,-0.7927,-0.7968,-0.801,-0.801,-0.801,-0.801,-0.801,-0.9429,-0.9888,-0.8136,-0.7968,-0.8678,-1.0429,-1.0637,-1.1293,-1.2894,-1.3044,-1.3024,-1.2929,-1.2916,-1.2956,-1.2996,-1.2982,-1.2982,-1.2989,-1.2975,-1.2935,-1.2942,-1.2935,-1.2935,-1.2935,-1.2455,-1.2261,-0.6445,-0.7608,-0.8893,-1.0131,-1.1267,-1.2244,-1.2661,-1.3276,-1.3766,-1.3807,-1.357,-1.3568,-1.4322,-1.337,-1.3057,-1.489,-1.5036,-1.5283,-1.6344,-1.6356,-1.5953,-1.5175,-1.527,-1.5239,-1.4892,-1.4862,-1.5046,-1.5467,-1.5802,-1.6022,-1.6174,-1.6137,-1.6137,-1.6137,-1.5881,-1.5389,-1.472,-1.472,-1.4404,-1.3779,-1.3546,-1.3454,-1.3454,-1.3356,-1.3363,-1.3454,-1.3359,-1.3513,-1.3753,-1.3326,-1.3446,-1.3853,-1.3265,-1.3215,-1.3418,-1.3078,-1.2749,-1.2098,-0.9748,-0.8722,-0.8461,-0.8461,-0.8257,-0.801,-0.801,-0.801,-0.801,-0.801,-0.801,-0.8261,-0.9471,-0.9805,-0.9805,-0.9805,-0.9805,-0.9471,-0.8261,-0.8929,-0.9805,-0.9805,-1.0762,-1.16,-1.16,-1.16,-1.16,-1.16,-1.1101,-1.0893,-1.1516,-1.16,-1.1813,-1.2436,-1.2478,-1.2707,-1.3288,-1.3322,-1.3302,-1.3254,-1.32,-1.3146,-1.3146,-1.305,-1.3003,-1.3003,-1.3003,-1.3003,-1.3003,-1.3003,-1.3003,-1.3003,-1.2842,-1.2809,-0.8414,-0.9891,-1.1382,-1.2749,-1.3784,-1.4586,-1.5126,-1.5169,-1.5082,-1.4884,-1.389,-1.3197,-1.3657,-1.2566,-1.224,-1.4175,-1.4248,-1.4637,-1.6301,-1.6087,-1.5711,-1.5456,-1.5472,-1.5391,-1.5098,-1.4986,-1.5153,-1.5797,-1.6156,-1.6447,-1.6657,-1.6665,-1.6665,-1.6665,-1.6365,-1.6189,-1.6189,-1.6189,-1.6158,-1.6097,-1.5943,-1.5835,-1.5774,-1.5666,-1.5674,-1.5774,-1.5651,-1.5751,-1.5981,-1.559,-1.5697,-1.6076,-1.5492,-1.5467,-1.5674,-1.5322,-1.5175,-1.4811,-1.2178,-1.1104,-1.0829,-1.0829,-1.0627,-1.0382,-1.0382,-1.0299,-1.018,-1.018,-1.0055,-1.018,-1.135,-1.1641,-1.1641,-1.1641,-1.1641,-1.135,-1.018,-1.0845,-1.1641,-1.1641,-1.2602,-1.3403,-1.3403,-1.3444,-1.3464,-1.341,-1.2439,-1.2159,-1.3244,-1.3403,-1.3403,-1.3403,-1.3403,-1.3403,-1.3403,-1.3403,-1.3403,-1.3403,-1.3308,-1.3254,-1.3254,-1.3207,-1.3159,-1.3159,-1.3159,-1.3159,-1.3159,-1.3159,-1.3159,-1.3159,-1.3159,-1.3207,-1.1311,-1.2258,-1.2881,-1.4845,-1.5213,-1.5168,-1.5594,-1.5533,-1.5298,-1.5079,-1.4011,-1.3207,-1.3418,-1.2754,-1.2561,-1.3695,-1.403,-1.463,-1.5869,-1.5327,-1.5065,-1.5707,-1.5195,-1.4911,-1.5197,-1.5391,-1.5829,-1.657,-1.6696,-1.6874,-1.7096,-1.7112,-1.7112,-1.7112,-1.7112,-1.7112,-1.7112,-1.7112,-1.6987,-1.6825,-1.6979,-1.6963,-1.6793,-1.6793,-1.6793,-1.676,-1.6454,-1.6405,-1.6568,-1.6373,-1.6405,-1.656,-1.6373,-1.63,-1.6284,-1.608,-1.6015,-1.5883,-1.5051,-1.4754,-1.4754,-1.4754,-1.4713,-1.4713,-1.4713,-1.4431,-1.4149,-1.4108,-1.3776,-1.3445,-1.3403,-1.3403,-1.3403,-1.341,-1.341,-1.3417,-1.3424,-1.3424,-1.3424,-1.3424,-1.3424,-1.3424,-1.3437,-1.3553,-1.3558,-1.3458,-1.3559,-1.3593,-1.3424,-1.3403,-1.3403,-1.3403,-1.3403,-1.3403,-1.3403,-1.3403,-1.3403,-1.3403,-1.3403,-1.3403,-1.3403,-1.3403,-1.3403,-1.3403,-1.3403,-1.3403,-1.3403,-1.3403,-1.3403,-1.3403,-1.3403,-1.3403,-1.3496,-1.4565,-1.5222,-1.5948,-1.6076,-1.6024,-1.5866,-1.549,-1.4921,-1.406,-1.2497,-1.1323,-1.1419,-1.0334,-1.0283,-1.2879,-1.3579,-1.4411,-1.6317,-1.6517,-1.6365,-1.5975,-1.5926,-1.5829,-1.565,-1.5764,-1.6056,-1.6544,-1.6625,-1.6787,-1.7096,-1.7112,-1.7112,-1.7112,-1.7112,-1.7112,-1.7112,-1.7112,-1.7088,-1.7003,-1.6914,-1.6785,-1.6649,-1.6649,-1.6576,-1.6438,-1.6341,-1.6405,-1.656,-1.6243,-1.63,-1.656,-1.6373,-1.63,-1.63,-1.6251,-1.6112,-1.5966,-1.5752,-1.5463,-1.5216,-1.5216,-1.4961,-1.4713,-1.4713,-1.4631,-1.4473,-1.419,-1.4025,-1.3859,-1.3486,-1.3403,-1.3431,-1.3546,-1.3531,-1.36,-1.366,-1.3687,-1.3687,-1.3687,-1.3687,-1.3763,-1.3878,-1.3933,-1.3946,-1.3948,-1.3933,-1.3824,-1.3451,-1.3403,-1.3403,-1.3403,-1.3403,-1.3403,-1.3403,-1.3403,-1.3403,-1.3403,-1.3403,-1.3403,-1.3403,-1.3403,-1.3403,-1.3403,-1.3403,-1.3403,-1.3403,-1.3403,-1.3403,-1.3403,-1.3403,-1.3403,-1.5225,-1.5939,-1.627,-1.6712,-1.6522,-1.6047,-1.5604,-1.5098,-1.4267,-1.2714,-1.1348,-1.0375,-1.0241,-0.95,-0.9774,-1.2331,-1.3095,-1.4098,-1.6095,-1.6397,-1.6381,-1.625,-1.6292,-1.6227,-1.6024,-1.617,-1.6397,-1.6682,-1.6698,-1.682,-1.7096,-1.7112,-1.7112,-1.7112,-1.7112,-1.7112,-1.7112,-1.7112,-1.7071,-1.6955,-1.693,-1.6833,-1.6698,-1.6698,-1.6641,-1.6544,-1.6462,-1.6487,-1.6568,-1.6365,-1.6397,-1.6568,-1.6462,-1.6422,-1.6422,-1.6422,-1.6365,-1.6267,-1.6145,-1.5988,-1.578,-1.578,-1.5669,-1.5523,-1.5523,-1.539,-1.5196,-1.5068,-1.4828,-1.4581,-1.4351,-1.428,-1.4231,-1.4131,-1.4075,-1.4039,-1.4037,-1.3987,-1.3939,-1.3939,-1.3842,-1.3829,-1.3953,-1.4027,-1.4048,-1.398,-1.4082,-1.4055,-1.3736,-1.358,-1.3498,-1.3498,-1.3444,-1.3403,-1.3403,-1.3403,-1.3403,-1.3403,-1.3403,-1.3403,-1.3403,-1.3403,-1.3403,-1.3403,-1.3403,-1.3403,-1.3403,-1.3403,-1.3403,-1.3403,-1.3403,-1.3403,-1.6477,-1.6685,-1.6608,-1.7194,-1.6605,-1.5711,-1.5037,-1.4396,-1.3337,-1.1245,-1.0333,-0.982,-0.951,-0.9502,-1.015,-1.2069,-1.28,-1.3766,-1.5625,-1.5715,-1.5869,-1.6535,-1.6495,-1.6405,-1.6405,-1.656,-1.6714,-1.6833,-1.6841,-1.6906,-1.7104,-1.7112,-1.7112,-1.7112,-1.7112,-1.7112,-1.7112,-1.7112,-1.6995,-1.6849,-1.7039,-1.6979,-1.6809,-1.6809,-1.6801,-1.6768,-1.6649,-1.6584,-1.6584,-1.6584,-1.6592,-1.6617,-1.6617,-1.6617,-1.6617,-1.6617,-1.66,-1.6552,-1.6365,-1.6332,-1.6365,-1.6316,-1.6414,-1.6594,-1.6568,-1.6321,-1.6011,-1.6148,-1.582,-1.5393,-1.553,-1.5412,-1.5259,-1.501,-1.4858,-1.475,-1.4608,-1.4414,-1.4267,-1.4288,-1.4064,-1.3862,-1.3883,-1.4041,-1.4082,-1.391,-1.4156,-1.4285,-1.4177,-1.3865,-1.3612,-1.3612,-1.3519,-1.3431,-1.3431,-1.3451,-1.3458,-1.3458,-1.3444,-1.3431,-1.3431,-1.341,-1.3403,-1.3403,-1.3403,-1.3403,-1.3403,-1.3403,-1.3403,-1.3403,-1.3403,-1.3403,-1.6836,-1.7,-1.6948,-1.693,-1.6451,-1.5699,-1.4594,-1.3319,-1.1892,-1.0183,-0.9072,-0.8463,-0.8729,-0.8991,-0.9973,-1.2321,-1.3068,-1.4037,-1.5934,-1.6186,-1.6324,-1.6712,-1.6858,-1.6974,-1.6974,-1.6998,-1.7031,-1.7063,-1.7063,-1.708,-1.7112,-1.7112,-1.7112,-1.7112,-1.7112,-1.7112,-1.7112,-1.7112,-1.7096,-1.7063,-1.7096,-1.6979,-1.6809,-1.6809,-1.6728,-1.6625,-1.6592,-1.6584,-1.6584,-1.6584,-1.6665,-1.676,-1.676,-1.676,-1.676,-1.676,-1.6714,-1.6552,-1.6365,-1.6461,-1.6663,-1.6405,-1.6324,-1.6381,-1.6535,-1.6534,-1.6446,-1.6235,-1.5984,-1.5794,-1.576,-1.5628,-1.5532,-1.5742,-1.575,-1.5779,-1.5844,-1.5442,-1.5102,-1.5229,-1.4668,-1.4258,-1.4373,-1.4421,-1.4428,-1.4401,-1.4441,-1.4509,-1.4566,-1.4099,-1.3761,-1.3761,-1.3632,-1.3587,-1.3587,-1.3653,-1.372,-1.372,-1.3612,-1.3587,-1.3587,-1.3464,-1.3403,-1.3403,-1.3403,-1.3403,-1.3403,-1.3403,-1.3403,-1.3403,-1.3403,-1.3403,-1.6841,-1.7039,-1.7071,-1.6849,-1.6193,-1.5132,-1.3449,-1.2062,-1.0636,-0.8741,-0.7947,-0.772,-0.8195,-0.8649,-0.9592,-1.1549,-1.232,-1.3262,-1.496,-1.552,-1.5991,-1.6633,-1.695,-1.7112,-1.7112,-1.7112,-1.7112,-1.7112,-1.7112,-1.7112,-1.7112,-1.7112,-1.7112,-1.7112,-1.7112,-1.7112,-1.7112,-1.7112,-1.7112,-1.7112,-1.7112,-1.7071,-1.6947,-1.6947,-1.6942,-1.6852,-1.6852,-1.6852,-1.6852,-1.6852,-1.6909,-1.6947,-1.6947,-1.6947,-1.6947,-1.6947,-1.6933,-1.6828,-1.6649,-1.6663,-1.6777,-1.6606,-1.6649,-1.6738,-1.6828,-1.6852,-1.6874,-1.692,-1.6829,-1.6729,-1.6855,-1.6726,-1.6611,-1.6635,-1.6492,-1.6277,-1.6002,-1.5643,-1.5331,-1.5129,-1.4682,-1.4319,-1.4387,-1.4401,-1.4401,-1.4401,-1.4462,-1.4536,-1.4611,-1.4261,-1.4082,-1.4082,-1.3835,-1.3693,-1.3693,-1.3761,-1.3795,-1.3795,-1.3734,-1.3666,-1.3592,-1.3559,-1.3485,-1.3403,-1.3403,-1.3403,-1.3403,-1.3403,-1.3403,-1.3403,-1.3403,-1.3403,-1.6768,-1.6939,-1.7047,-1.6752,-1.5885,-1.4533,-1.2426,-1.1025,-0.9616,-0.7615,-0.7112,-0.7234,-0.7874,-0.8247,-0.9015,-1.0675,-1.1281,-1.2142,-1.3774,-1.4619,-1.5375,-1.6357,-1.6844,-1.7112,-1.7112,-1.7112,-1.7112,-1.7112,-1.7112,-1.7112,-1.7112,-1.7112,-1.7112,-1.7112,-1.7112,-1.7112,-1.7112,-1.7112,-1.7112,-1.7112,-1.7112,-1.7112,-1.7112,-1.7112,-1.7112,-1.7112,-1.7112,-1.7112,-1.7112,-1.7112,-1.7112,-1.7112,-1.7112,-1.7112,-1.7112,-1.7112,-1.7112,-1.7088,-1.6914,-1.6866,-1.6866,-1.6866,-1.6955,-1.712,-1.7161,-1.7193,-1.7291,-1.7562,-1.7575,-1.7526,-1.7884,-1.7835,-1.7609,-1.7464,-1.7188,-1.6869,-1.6287,-1.5896,-1.5538,-1.5056,-1.4616,-1.4299,-1.4299,-1.4299,-1.4299,-1.4299,-1.4394,-1.4475,-1.4509,-1.4387,-1.4312,-1.434,-1.4075,-1.3849,-1.3849,-1.3876,-1.3896,-1.3896,-1.3862,-1.3838,-1.3729,-1.3653,-1.3558,-1.3451,-1.3451,-1.3437,-1.3403,-1.3437,-1.3451,-1.3451,-1.3451,-1.3464,-1.6631,-1.6939,-1.699,-1.6479,-1.5545,-1.4237,-1.2287,-1.061,-0.9054,-0.7517,-0.6821,-0.6788,-0.7809,-0.7639,-0.8084,-1.0355,-1.0363,-1.0867,-1.3158,-1.4058,-1.4865,-1.5926,-1.6655,-1.7112,-1.7112,-1.7112,-1.7112,-1.7112,-1.7112,-1.7112,-1.7112,-1.7112,-1.7112,-1.7112,-1.7112,-1.7112,-1.7112,-1.7112,-1.7112,-1.7112,-1.7112,-1.7112,-1.7112,-1.7112,-1.7112,-1.7112,-1.7112,-1.7112,-1.7112,-1.7112,-1.7112,-1.7112,-1.7112,-1.7112,-1.7112,-1.7112,-1.7112,-1.7112,-1.7096,-1.7088,-1.7088,-1.7088,-1.7096,-1.7145,-1.7307,-1.7469,-1.7587,-1.7789,-1.7716,-1.7651,-1.8054,-1.8022,-1.7894,-1.8065,-1.8067,-1.7988,-1.7772,-1.6857,-1.6099,-1.5905,-1.5031,-1.4299,-1.4299,-1.4299,-1.4299,-1.4299,-1.4312,-1.4367,-1.4496,-1.4387,-1.4346,-1.4475,-1.4224,-1.4048,-1.4048,-1.4177,-1.4258,-1.4258,-1.4129,-1.4091,-1.4034,-1.3899,-1.3714,-1.3572,-1.3565,-1.3539,-1.3403,-1.3539,-1.3565,-1.3565,-1.3565,-1.3632,-1.5707,-1.6444,-1.6933,-1.617,-1.5098,-1.3709,-1.1766,-1.0064,-0.858,-0.7328,-0.6717,-0.6594,-0.7279,-0.7293,-0.7615,-0.8877,-0.9111,-0.982,-1.1801,-1.2572,-1.3633,-1.5472,-1.612,-1.6598,-1.7071,-1.7112,-1.7112,-1.7112,-1.7112,-1.7112,-1.7112,-1.7112,-1.7112,-1.7112,-1.7112,-1.7112,-1.7112,-1.7112,-1.7112,-1.7112,-1.7112,-1.7112,-1.7112,-1.7112,-1.7112,-1.7112,-1.7112,-1.7112,-1.7112,-1.7112,-1.7112,-1.7112,-1.7112,-1.7112,-1.7112,-1.7112,-1.7112,-1.7128,-1.7242,-1.7274,-1.7291,-1.7352,-1.7457,-1.7567,-1.7429,-1.7502,-1.7635,-1.7822,-1.7822,-1.7867,-1.8111,-1.8127,-1.8087,-1.816,-1.8223,-1.8113,-1.7669,-1.7072,-1.6537,-1.6197,-1.5427,-1.4829,-1.4829,-1.4682,-1.4491,-1.4441,-1.4509,-1.455,-1.4516,-1.4462,-1.4448,-1.4509,-1.4333,-1.4211,-1.4211,-1.4265,-1.4299,-1.4299,-1.4245,-1.417,-1.4119,-1.4014,-1.3912,-1.3714,-1.3714,-1.3687,-1.3626,-1.3687,-1.3714,-1.3714,-1.3714,-1.3741,-1.4751,-1.5764,-1.6487,-1.5853,-1.4716,-1.3254,-1.1424,-0.9706,-0.8216,-0.72,-0.6685,-0.6513,-0.6849,-0.7043,-0.7317,-0.7854,-0.8265,-0.9079,-1.068,-1.1527,-1.2645,-1.4432,-1.5236,-1.5845,-1.6495,-1.6893,-1.7112,-1.7112,-1.7112,-1.7112,-1.7112,-1.7112,-1.7112,-1.7112,-1.7112,-1.7112,-1.7112,-1.7112,-1.7112,-1.7112,-1.7112,-1.7112,-1.7112,-1.7112,-1.7112,-1.7112,-1.7112,-1.7112,-1.7112,-1.7112,-1.7112,-1.7112,-1.7112,-1.7112,-1.7112,-1.7112,-1.7112,-1.7145,-1.738,-1.7429,-1.7429,-1.7648,-1.7765,-1.7867,-1.7624,-1.7664,-1.7827,-1.7957,-1.7989,-1.8022,-1.8144,-1.8223,-1.8223,-1.8223,-1.8223,-1.8067,-1.7646,-1.7264,-1.6894,-1.6477,-1.5919,-1.5485,-1.5485,-1.5164,-1.4913,-1.4761,-1.4769,-1.474,-1.4536,-1.459,-1.4631,-1.4584,-1.4489,-1.4394,-1.4306,-1.4299,-1.4299,-1.4299,-1.4299,-1.4251,-1.4143,-1.4136,-1.4068,-1.3869,-1.3905,-1.3842,-1.3795,-1.3842,-1.3905,-1.3905,-1.3905,-1.3842,-1.3925,-1.4938,-1.5489,-1.552,-1.444,-1.2987,-1.1367,-0.9608,-0.8061,-0.7175,-0.6685,-0.6456,-0.666,-0.6865,-0.7167,-0.7714,-0.8085,-0.8753,-1.0023,-1.124,-1.2174,-1.258,-1.3855,-1.4862,-1.5189,-1.6381,-1.7112,-1.7112,-1.7112,-1.7112,-1.7112,-1.7112,-1.7112,-1.7112,-1.7112,-1.7112,-1.7112,-1.7112,-1.7112,-1.7112,-1.7112,-1.7112,-1.7112,-1.7112,-1.7112,-1.7112,-1.7112,-1.7112,-1.7112,-1.7112,-1.7112,-1.7112,-1.7112,-1.7112,-1.7112,-1.7112,-1.7112,-1.7161,-1.7473,-1.7526,-1.7445,-1.7802,-1.7916,-1.7916,-1.7916,-1.803,-1.8168,-1.8214,-1.8223,-1.8223,-1.8223,-1.8223,-1.8223,-1.8223,-1.8223,-1.8127,-1.7957,-1.754,-1.7118,-1.6916,-1.6514,-1.6189,-1.6189,-1.578,-1.5457,-1.5307,-1.5139,-1.4855,-1.455,-1.478,-1.4909,-1.4708,-1.4687,-1.4572,-1.4326,-1.4299,-1.4299,-1.4299,-1.4299,-1.4299,-1.4299,-1.4299,-1.4224,-1.4119,-1.4112,-1.3994,-1.3795,-1.3994,-1.4112,-1.4112,-1.4112,-1.3987,-1.1654,-1.267,-1.3352,-1.2735,-1.2052,-1.1183,-0.9811,-0.8704,-0.7727,-0.6954,-0.6587,-0.6513,-0.6841,-0.6965,-0.729,-0.8204,-0.8322,-0.8771,-1.0126,-1.111,-1.2166,-1.3541,-1.5252,-1.6397,-1.6503,-1.6877,-1.7112,-1.7112,-1.7112,-1.7112,-1.7112,-1.7112,-1.7112,-1.7112,-1.7112,-1.7112,-1.7112,-1.7112,-1.7112,-1.7112,-1.7112,-1.7112,-1.7112,-1.7112,-1.7112,-1.7112,-1.7112,-1.7112,-1.7112,-1.7112,-1.7112,-1.7112,-1.7112,-1.7112,-1.7128,-1.725,-1.7299,-1.7348,-1.7705,-1.7794,-1.7786,-1.8022,-1.8095,-1.8095,-1.8095,-1.8135,-1.8223,-1.8223,-1.8223,-1.8223,-1.8223,-1.8223,-1.8223,-1.8223,-1.8223,-1.8239,-1.8312,-1.7994,-1.7702,-1.7766,-1.731,-1.6865,-1.6865,-1.6686,-1.6457,-1.6287,-1.6404,-1.6299,-1.5709,-1.5765,-1.5631,-1.5105,-1.4957,-1.4774,-1.4468,-1.4441,-1.4441,-1.4441,-1.4353,-1.4346,-1.4441,-1.4353,-1.4278,-1.4231,-1.4231,-1.4251,-1.4299,-1.4251,-1.4231,-1.4231,-1.4231,-1.4204,-1.003,-1.1013,-1.1671,-1.1313,-1.0802,-1.0111,-0.904,-0.817,-0.7418,-0.6814,-0.6529,-0.6505,-0.6833,-0.6939,-0.7257,-0.8045,-0.8191,-0.8593,-0.9737,-1.0655,-1.189,-1.3758,-1.5415,-1.6454,-1.6592,-1.6909,-1.7112,-1.7112,-1.7112,-1.7112,-1.7112,-1.7112,-1.7112,-1.7112,-1.7112,-1.7112,-1.7112,-1.7112,-1.7112,-1.7112,-1.7112,-1.7112,-1.7112,-1.7112,-1.7112,-1.7112,-1.7112,-1.7112,0.0,-1.7112,-1.7112,-1.7112,-1.7112,-1.7112,-1.7136,-1.7323,-1.7339,-1.7348,-1.777,-1.7835,-1.777,-1.807,-1.8223,-1.8223,-1.8223,-1.8223,-1.8223,-1.8223,-1.8223,-1.8223,-1.8223,-1.8223,-1.8223,-1.8223,-1.8271,-1.8361,-1.8475,-1.833,-1.8257,-1.8363,-1.8055,-1.7749,-1.7749,-1.7553,-1.7297,-1.713,-1.7197,-1.6995,-1.6283,-1.6266,-1.6096,-1.5418,-1.5276,-1.5099,-1.4787,-1.4658,-1.4624,-1.4679,-1.4496,-1.4468,-1.4679,-1.4489,-1.4407,-1.4468,-1.4468,-1.4509,-1.4597,-1.4448,-1.438,-1.438,-1.4326,-1.4326,0.0,-0.9761,-1.0272,-1.0733,-1.0282,-0.951,-0.8789,-0.7882,0.0,-0.6749,-0.6538,-0.6464,-0.6693,-0.6882,-0.7126,-0.7515,-0.7829,-0.8284,-0.9015,-1.0136,-1.1581,-1.3439,-1.4654,-1.544,-1.5764,-1.6592,-1.7112,-1.7112,-1.7112,-1.7156,-1.7288,-1.7156,-1.7156,-1.7279,-1.7156,-1.7112,-1.7112,-1.7112,-1.7112,-1.7112,-1.7112,-1.7112,-1.7112,-1.7112,-1.7112,-1.7112,-1.7112,-1.7112,-1.7112,-1.7112,-1.7112,-1.7112,-1.7112,-1.712,-1.7153,-1.7323,-1.7283,-1.7218,-1.7721,-1.7689,-1.751,-1.7997,-1.8214,-1.8223,-1.816,-1.8214,-1.8223,-1.8223,-1.8223,-1.8223,-1.8223,-1.8223,-1.8176,-1.8239,-1.8369,-1.8508,-1.8532,-1.8606,-1.8712,-1.8736,-1.872,-1.8712,-1.872,-1.8344,-1.8,-1.7836,-1.7619,-1.7176,-1.6395,-1.6472,-1.6356,-1.5669,-1.5593,-1.552,-1.5221,-1.4936,-1.4835,-1.5023,-1.4699,-1.4672,-1.4991,-1.4699,-1.4597,-1.4708,-1.4708,-1.4708,-1.4694,-1.4552,-1.4529,-1.4523,-1.4373,-1.4373,-0.6991,0.0,-0.776,-0.7566,-0.7679,-0.7679,0.0,-0.7001,-0.6929,-0.6554,-0.6432,-0.6537,-0.6991,-0.7035,-0.729,-0.8183,-0.8281,-0.8501,-0.9217,-1.131,-1.3116,-1.4087,-1.5642,-1.6487,-1.5983,-1.6665,-1.7112,-1.7112,-1.7112,-1.7718,-1.9186,-1.7893,-1.7762,-1.9186,-1.7849,-1.7112,-1.7112,-1.7112,-1.7112,-1.7112,-1.7112,-1.7112,-1.7112,-1.7112,-1.7112,-1.7112,-1.7112,-1.7112,-1.7112,-1.7112,-1.7112,-1.7112,-1.7112,-1.7201,-1.7331,-1.7372,-1.7445,-1.7489,-1.7619,-1.77,-1.7811,-1.794,-1.807,-1.8152,-1.8022,-1.807,-1.8223,-1.8223,-1.8223,-1.8223,-1.8223,-1.8223,-1.8255,-1.8402,-1.8467,-1.8573,-1.885,-1.8727,-1.8646,-1.8866,-1.8704,-1.8558,-1.8704,-1.8737,-1.8761,-1.8713,-1.8458,-1.8019,-1.741,-1.7018,-1.656,-1.5916,-1.5703,-1.5512,-1.5371,-1.5187,-1.5092,-1.5133,-1.4848,-1.4875,-1.5289,-1.4909,-1.476,-1.4916,-1.4916,-1.4862,-1.4694,-1.466,-1.464,-1.4633,-1.4421,-1.4373,-0.6172,-0.6514,-0.6848,-0.678,-0.6991,-0.7104,-0.6749,-0.6766,-0.6774,-0.6456,-0.64,-0.6545,-0.7017,-0.7108,-0.7344,-0.8114,-0.8549,-0.9193,-1.0333,-1.2693,-1.4421,-1.4645,-1.6389,-1.7604,-1.7746,-1.7353,-1.7805,-1.9482,-1.8837,-1.9186,-2.1035,-1.9395,-1.8837,-1.9873,-1.8925,-1.7972,-1.7112,-1.7928,-1.7928,-1.7112,-1.7972,-1.7928,-1.7112,-1.7112,-1.7112,-1.7112,-1.7112,-1.7112,-1.7112,-1.7112,-1.7112,-1.7112,-1.7112,-1.7169,-1.7266,-1.7356,-1.7388,-1.7376,-1.7538,-1.766,-1.7741,-1.7741,-1.7908,-1.8038,-1.7949,-1.8038,-1.8223,-1.8223,-1.8223,-1.8223,-1.8223,-1.8223,-1.8271,-1.8451,-1.8565,-1.8655,-1.8923,-1.8947,-1.8931,-1.9118,-1.9004,-1.8898,-1.8956,-1.9045,-1.9159,-1.9159,-1.8994,-1.8556,-1.7821,-1.7466,-1.6942,-1.6066,-1.5886,-1.575,-1.5533,-1.5438,-1.5391,-1.5391,-1.5106,-1.5147,-1.5594,-1.5248,-1.5086,-1.5174,-1.5242,-1.5099,-1.4694,-1.4829,-1.4909,-1.4841,-1.4685,-1.4719,-0.6017,-0.6367,-0.6822,-0.6999,-0.7104,-0.7131,-0.6955,-0.6815,-0.6692,-0.653,-0.6497,-0.6635,-0.711,-0.7285,-0.7545,-0.8028,-0.9004,-1.0202,-1.1749,-1.386,-1.5168,-1.4966,-1.6906,-1.8653,-1.9628,-1.8357,-1.8889,-2.232,-2.0905,-2.0689,-2.2492,-2.0862,-2.0047,-2.0298,-2.0047,-1.9255,-1.7886,-1.9507,-1.9404,-1.7543,-1.9143,-1.8925,-1.7112,-1.7112,-1.7112,-1.7112,-1.7112,-1.7236,-1.7499,-1.7244,-1.7279,-1.7499,-1.72,-1.7128,-1.7169,-1.7299,-1.7266,-1.7193,-1.7449,-1.7554,-1.7562,-1.7587,-1.7724,-1.7916,-1.7916,-1.8054,-1.8263,-1.8263,-1.8239,-1.8223,-1.8223,-1.8239,-1.8312,-1.8499,-1.8631,-1.8809,-1.8988,-1.9175,-1.9273,-1.9306,-1.9289,-1.9273,-1.9306,-1.9306,-1.9306,-1.9306,-1.9207,-1.8811,-1.7821,-1.7623,-1.7226,-1.6232,-1.6062,-1.5934,-1.5614,-1.5566,-1.5553,-1.5553,-1.5337,-1.5411,-1.582,-1.5567,-1.5445,-1.5445,-1.5526,-1.5337,-1.4829,-1.5106,-1.5167,-1.5072,-1.5071,-1.5153,-0.6302,-0.6715,-0.6991,-0.6482,-0.6686,-0.6939,-0.6578,-0.6734,-0.6939,-0.6914,-0.6906,-0.7159,-0.7955,-0.8105,-0.8438,-0.9429,-1.0331,-1.1346,-1.2475,-1.377,-1.4605,-1.4746,-1.7266,-1.8996,-1.8967,-1.9011,-2.0019,-2.2439,-2.0905,-2.0689,-2.2492,-2.0862,-2.0602,-2.2148,-2.0689,-2.0384,-2.1395,-2.1924,-2.1295,-1.9482,-1.9743,-1.8925,-1.7112,-1.7112,-1.7112,-1.7112,-1.7112,-1.8016,-1.9361,-1.7762,-1.806,-1.9317,-1.7718,-1.721,-1.7331,-1.7201,-1.7234,-1.7356,-1.7404,-1.7429,-1.7453,-1.7546,-1.7724,-1.7916,-1.7916,-1.8152,-1.8459,-1.8459,-1.8345,-1.8223,-1.8223,-1.8337,-1.8499,-1.8639,-1.8818,-1.8996,-1.9224,-1.9118,-1.9118,-1.9281,-1.9183,-1.9126,-1.9281,-1.9306,-1.9306,-1.9306,-1.891,-1.8408,-1.7771,-1.7318,-1.6772,-1.6182,-1.6017,-1.5818,-1.5607,-1.552,-1.5445,-1.5445,-1.5282,-1.5269,-1.5472,-1.556,-1.5553,-1.5553,-1.558,-1.5546,-1.5451,-1.5418,-1.5432,-1.5479,-1.5269,-1.5242,-0.6294,-0.6685,-0.7084,-0.7061,-0.7388,-0.7629,-0.7342,-0.7407,-0.7491,-0.7314,-0.7355,-0.7608,-0.8199,-0.8631,-0.9461,-1.1191,-1.2691,-1.3626,-1.3667,-1.5552,-1.6898,-1.679,-1.8663,-2.0529,-2.2008,-2.1525,-2.2278,-2.5126,-2.3798,-2.3695,-2.5543,-2.3878,-2.3266,-2.4092,-2.3309,-2.3222,-2.392,-2.5058,-2.3596,-1.966,-2.1837,-2.1381,-1.8663,-1.9613,-2.0091,-2.0091,-2.0091,-2.0558,-2.1208,-1.9351,-1.9143,-1.97,-1.7841,-1.7161,-1.7226,-1.7145,-1.7161,-1.725,-1.7356,-1.7323,-1.7266,-1.7445,-1.7578,-1.7724,-1.7724,-1.8022,-1.8369,-1.8475,-1.8434,-1.8369,-1.8369,-1.8434,-1.8548,-1.868,-1.8858,-1.9086,-1.9265,-1.924,-1.9208,-1.9289,-1.924,-1.9208,-1.9297,-1.9306,-1.9306,-1.9306,-1.9108,-1.8754,-1.821,-1.7665,-1.7119,-1.6573,-1.6213,-1.5913,-1.5771,-1.5622,-1.5499,-1.5418,-1.5425,-1.5493,-1.5642,-1.5716,-1.5757,-1.5757,-1.5839,-1.5757,-1.5465,-1.5608,-1.5649,-1.5587,-1.5574,-1.5628,-0.6335,-0.6702,-0.7216,-0.7633,-0.8012,-0.8308,-0.8352,-0.8368,-0.8341,-0.8167,-0.8269,-0.8473,-0.881,-0.9559,-1.0732,-1.2507,-1.4295,-1.5289,-1.472,-1.6768,-1.8369,-1.8553,-1.9946,-2.1775,-2.4055,-2.3597,-2.4237,-2.6815,-2.5944,-2.5937,-2.7356,-2.6106,-2.5355,-2.5416,-2.5416,-2.5562,-2.5925,-2.7464,-2.57,-2.0828,-2.3915,-2.3706,-2.0558,-2.1975,-2.2579,-2.2579,-2.2579,-2.2837,-2.3094,-2.0819,-2.0134,-2.0298,-1.8016,-1.7112,-1.7112,-1.7112,-1.7112,-1.7172,-1.7798,-1.788,-1.7795,-1.8032,-1.8155,-1.8191,-1.7828,-1.7989,-1.8328,-1.8508,-1.8532,-1.8499,-1.8499,-1.8532,-1.855,-1.8688,-1.8891,-1.9086,-1.9281,-1.9306,-1.9306,-1.9306,-1.9306,-1.9306,-1.9306,-1.9306,-1.9306,-1.9306,-1.9306,-1.9108,-1.8556,-1.816,-1.7615,-1.697,-1.6523,-1.615,-1.5867,-1.5669,-1.552,-1.5364,-1.5466,-1.5594,-1.5792,-1.5799,-1.5833,-1.5901,-1.6017,-1.5879,-1.5567,-1.5798,-1.5852,-1.5695,-1.5859,-1.6017,-0.6611,-0.7059,-0.7475,-0.7515,-0.7923,-0.8503,-0.93,-0.9486,-0.9575,-0.9934,-1.0033,-1.0121,-1.0479,-1.1546,-1.2474,-1.275,-1.3894,-1.4903,-1.5358,-1.5769,-1.6745,-1.8637,-2.0498,-2.1754,-2.2099,-2.3767,-2.4873,-2.4909,-2.4991,-2.5095,-2.5233,-2.5107,-2.5132,-2.5373,-2.5416,-2.6069,-2.7514,-2.7961,-2.7096,-2.4966,-2.5245,-2.4349,-2.2406,-2.2536,-2.2579,-2.2579,-2.2579,-2.3567,-2.4904,-2.1381,-2.0905,-2.2062,-1.8488,-1.7112,-1.7112,-1.7112,-1.7112,-1.7332,-1.9117,-1.9718,-1.9765,-2.0079,-2.0209,-1.9933,-1.8585,-1.832,-1.8516,-1.8655,-1.8582,-1.8499,-1.8499,-1.8574,-1.8712,-1.872,-1.8988,-1.9289,-1.9306,-1.9306,-1.9306,-1.9306,-1.9306,-1.9306,-1.9306,-1.9306,-1.9306,-1.9306,-1.9306,-1.9108,-1.8556,-1.8457,-1.8061,-1.7013,-1.6871,-1.6503,-1.5676,-1.5465,-1.5364,-1.5208,-1.5208,-1.5282,-1.5438,-1.5445,-1.5574,-1.5894,-1.5915,-1.5976,-1.6035,-1.6056,-1.6062,-1.6049,-1.6062,-1.6069,-0.6489,-0.7155,-0.7894,-0.8227,-0.8723,-0.9186,-0.9526,-1.0118,-1.0571,-1.0509,-1.0878,-1.1269,-1.1476,-1.2369,-1.3231,-1.3604,-1.5253,-1.6312,-1.5762,-1.7636,-1.9433,-2.0488,-2.2192,-2.3709,-2.4837,-2.5836,-2.6298,-2.6027,-2.6259,-2.6427,-2.6427,-2.6427,-2.6543,-2.6826,-2.6839,-2.7213,-2.8018,-2.8125,-2.7841,-2.7152,-2.7152,-2.6151,-2.4392,-2.5556,-2.6066,-2.6066,-2.6066,-2.6503,-2.6927,-2.4392,-2.3706,-2.4092,-2.1511,-1.983,-1.8968,-2.0134,-2.0515,-2.0602,-2.1328,-2.1587,-2.1432,-2.0513,-2.0295,-2.0095,-1.8484,-1.8135,-1.8361,-1.8548,-1.8467,-1.8377,-1.8566,-1.8671,-1.868,-1.868,-1.8996,-1.9306,-1.9306,-1.9306,-1.9306,-1.9306,-1.9306,-1.9306,-1.9306,-1.9306,-1.9306,-1.9306,-1.9306,-1.9207,-1.9009,-1.8704,-1.8358,-1.7962,-1.7318,-1.6581,-1.584,-1.5635,-1.5486,-1.5337,-1.5235,-1.5248,-1.5404,-1.5411,-1.5506,-1.5716,-1.5716,-1.575,-1.5805,-1.5805,-1.5805,-1.5811,-1.59,-1.599,-0.6513,-0.7285,-0.8162,-0.8422,-0.917,-0.9899,-1.0069,-1.0628,-1.1216,-1.1484,-1.189,-1.2222,-1.2199,-1.284,-1.3524,-1.3899,-1.5589,-1.6614,-1.5909,-1.8324,-2.0537,-2.1416,-2.3127,-2.4624,-2.5759,-2.6744,-2.6851,-2.5802,-2.6612,-2.7122,-2.7041,-2.7122,-2.7255,-2.7549,-2.7655,-2.7789,-2.8045,-2.8138,-2.8179,-2.8179,-2.8179,-2.7532,-2.6321,-2.7617,-2.8179,-2.8179,-2.8179,-2.8179,-2.8052,-2.6151,-2.5032,-2.4392,-2.3094,-2.1846,-2.0905,-2.2148,-2.2579,-2.2665,-2.3266,-2.3481,-2.3236,-2.1595,-2.1176,-2.0849,-1.8651,-1.8079,-1.8263,-1.8442,-1.8361,-1.8249,-1.8558,-1.868,-1.868,-1.868,-1.8996,-1.9306,-1.9306,-1.9306,-1.9306,-1.9306,-1.9306,-1.9306,-1.9306,-1.9306,-1.9306,-1.9306,-1.9306,-1.9306,-1.9306,-1.896,-1.8704,-1.8507,-1.7558,-1.6708,-1.616,-1.5821,-1.5526,-1.5418,-1.5269,-1.5228,-1.5337,-1.5337,-1.5411,-1.5512,-1.5519,-1.5539,-1.5593,-1.5593,-1.5593,-1.5593,-1.5737,-1.5833,-0.6767,-0.7491,-0.824,-0.791,-0.912,-1.0555,-1.1082,-1.1102,-1.1464,-1.3077,-1.3222,-1.2986,-1.267,-1.3044,-1.341,-1.341,-1.4424,-1.5318,-1.5755,-1.7329,-1.9123,-2.0977,-2.297,-2.4094,-2.3828,-2.5924,-2.6222,-2.3611,-2.5512,-2.6694,-2.64,-2.6653,-2.6961,-2.7296,-2.7535,-2.7696,-2.7696,-2.8031,-2.8179,-2.8179,-2.8179,-2.8179,-2.8179,-2.8179,-2.8179,-2.8179,-2.8179,-2.8179,-2.8052,-2.6193,-2.4306,-2.2622,-2.2665,-2.2622,-2.2622,-2.2665,-2.2665,-2.2923,-2.4776,-2.5416,-2.5158,-2.3655,-2.3199,-2.2571,-1.9202,-1.8223,-1.8263,-1.8442,-1.8361,-1.8263,-1.8451,-1.859,-1.868,-1.868,-1.8996,-1.9306,-1.9306,-1.9306,-1.9306,-1.9306,-1.9306,-1.9306,-1.9306,-1.9306,-1.9306,-1.9306,-1.9306,-1.9306,-1.9306,-1.9306,-1.9108,-1.8556,-1.7558,-1.6807,-1.6608,-1.5966,-1.5526,-1.5425,-1.5269,-1.5181,-1.5181,-1.5181,-1.5255,-1.5404,-1.5411,-1.5486,-1.5587,-1.5587,-1.5587,-1.5587,-1.5587,-1.5587,-0.7147,-0.8101,-0.9234,-0.9274,-1.0128,-1.1163,-1.1987,-1.2157,-1.2368,-1.3231,-1.3433,-1.3334,-1.3003,-1.3516,-1.3932,-1.3766,-1.4481,-1.5549,-1.6961,-1.8927,-2.0784,-2.222,-2.4199,-2.5335,-2.5011,-2.5845,-2.5989,-2.4971,-2.5911,-2.6386,-2.6145,-2.636,-2.6653,-2.6947,-2.7041,-2.7281,-2.7696,-2.763,-2.767,-2.7871,-2.767,-2.7777,-2.8179,-2.8179,-2.8179,-2.8179,-2.8179,-2.8179,-2.8136,-2.7575,-2.6236,-2.4691,-2.6024,-2.5726,-2.4733,-2.6066,-2.6546,-2.663,-2.7194,-2.7363,-2.6906,-2.3948,-2.3071,-2.254,-1.9055,-1.8079,-1.8231,-1.8288,-1.8263,-1.8184,-1.8288,-1.8493,-1.868,-1.868,-1.8996,-1.9306,-1.9306,-1.9306,-1.9306,-1.9306,-1.9306,-1.9306,-1.9306,-1.9306,-1.9306,-1.9306,-1.9306,-1.9306,-1.9306,-1.9306,-1.9108,-1.8556,-1.7863,-1.7303,-1.6856,-1.6216,-1.573,-1.5533,-1.5425,-1.5296,-1.5187,-1.5181,-1.5201,-1.5248,-1.5248,-1.5269,-1.5316,-1.5316,-1.5316,-1.5323,-1.5432,-1.5479,-0.7667,-0.8723,-0.9884,-1.0063,-1.0855,-1.1849,-1.2637,-1.3085,-1.3376,-1.3671,-1.3831,-1.3852,-1.3669,-1.3928,-1.4164,-1.4123,-1.4594,-1.5641,-1.744,-1.9431,-2.1263,-2.2907,-2.4714,-2.5798,-2.5852,-2.5957,-2.5917,-2.5705,-2.6065,-2.6185,-2.6011,-2.6158,-2.6346,-2.664,-2.672,-2.6947,-2.7348,-2.7295,-2.7389,-2.7522,-2.751,-2.7657,-2.8005,-2.8005,-2.8072,-2.8179,-2.8179,-2.8179,-2.8179,-2.8179,-2.7532,-2.663,-2.7757,-2.749,-2.6673,-2.7799,-2.8179,-2.8179,-2.8179,-2.8179,-2.7754,-2.4921,-2.416,-2.3686,-2.0116,-1.9176,-1.9192,-1.8409,-1.8223,-1.8223,-1.8223,-1.8395,-1.8631,-1.8712,-1.8996,-1.9306,-1.9306,-1.9306,-1.9306,-1.9306,-1.9306,-1.9306,-1.9306,-1.9306,-1.9306,-1.9306,-1.9306,-1.9306,-1.9306,-1.9306,-1.9157,-1.8861,-1.8358,-1.7813,-1.7268,-1.6581,-1.5986,-1.56,-1.5445,-1.5343,-1.5187,-1.5181,-1.5181,-1.5181,-1.5181,-1.5181,-1.5181,-1.5181,-1.5181,-1.5181,-1.5276,-1.5316,-0.824,-0.9258,-1.0276,-1.0466,-1.1471,-1.2564,-1.3076,-1.3831,-1.433,-1.4148,-1.4294,-1.4411,-1.4379,-1.431,-1.4278,-1.4395,-1.4732,-1.5654,-1.7605,-1.9224,-2.1012,-2.3237,-2.4675,-2.5678,-2.6186,-2.6051,-2.5904,-2.5877,-2.5931,-2.5957,-2.5957,-2.5984,-2.6118,-2.6346,-2.6627,-2.6747,-2.6747,-2.7054,-2.7242,-2.7269,-2.7468,-2.7589,-2.7615,-2.7709,-2.7924,-2.8179,-2.8179,-2.8179,-2.8179,-2.8179,-2.8179,-2.8179,-2.8179,-2.8179,-2.8179,-2.8179,-2.8179,-2.8179,-2.8179,-2.8179,-2.7923,-2.6235,-2.5853,-2.5469,-2.1981,-2.1033,-2.0751,-1.896,-1.8363,-1.8223,-1.8223,-1.8361,-1.8548,-1.868,-1.8988,-1.9289,-1.9306,-1.9306,-1.9306,-1.9306,-1.9306,-1.9306,-1.9306,-1.9306,-1.9306,-1.9306,-1.9306,-1.9306,-1.9306,-1.9306,-1.9306,-1.9306,-1.8803,-1.8309,-1.7821,-1.7088,-1.6349,-1.5697,-1.5506,-1.5357,-1.5187,-1.5181,-1.5181,-1.5181,-1.5181,-1.5181,-1.5181,-1.5181,-1.5181,-1.5181,-1.5181,-1.5181,-0.8468,-0.9421,-1.0531,-1.1305,-1.2426,-1.3423,-1.3855,-1.4196,-1.4225,-1.3704,-1.4131,-1.4562,-1.4286,-1.4432,-1.4603,-1.4643,-1.4716,-1.5838,-1.8909,-1.9858,-2.1242,-2.4006,-2.4838,-2.513,-2.4986,-2.517,-2.517,-2.4943,-2.5344,-2.5611,-2.5611,-2.5864,-2.6024,-2.6091,-2.6333,-2.648,-2.648,-2.6547,-2.6694,-2.6921,-2.6747,-2.6787,-2.7028,-2.7777,-2.8125,-2.8179,-2.8179,-2.8179,-2.8179,-2.8179,-2.8179,-2.8179,-2.8179,-2.8179,-2.8179,-2.8179,-2.8179,-2.8179,-2.8179,-2.8179,-2.7897,-2.6055,-2.5752,-2.5654,-2.3397,-2.1955,-2.1028,-2.0612,-1.9369,-1.8223,-1.8223,-1.8361,-1.8548,-1.868,-1.8891,-1.9135,-1.9273,-1.9306,-1.9306,-1.9306,-1.9306,-1.9306,-1.9306,-1.9306,-1.9306,-1.9306,-1.9306,-1.9306,-1.9306,-1.9306,-1.9306,-1.9306,-1.8803,-1.8457,-1.8358,-1.743,-1.6651,-1.6229,-1.5801,-1.5466,-1.5194,-1.5181,-1.5181,-1.5181,-1.5181,-1.5181,-1.5181,-1.5181,-1.5181,-1.5181,-1.5181,-1.5181,-0.868,-0.9608,-1.0709,-1.1971,-1.2905,-1.3563,-1.3785,-1.3993,-1.4075,-1.3701,-1.4131,-1.477,-1.5393,-1.4989,-1.4794,-1.5541,-1.5652,-1.6536,-1.9123,-2.0307,-2.1814,-2.4143,-2.469,-2.4863,-2.485,-2.4983,-2.5077,-2.5013,-2.5211,-2.5371,-2.5504,-2.5665,-2.5745,-2.5745,-2.6159,-2.6319,-2.6225,-2.6319,-2.6466,-2.6613,-2.66,-2.6747,-2.7054,-2.755,-2.7844,-2.7978,-2.7978,-2.8045,-2.8179,-2.8179,-2.8179,-2.8179,-2.8179,-2.8179,-2.8179,-2.8179,-2.8179,-2.8179,-2.8179,-2.8179,-2.8052,-2.7067,-2.7096,-2.7116,-2.5202,-2.4296,-2.3539,-2.1619,-2.1028,-2.0566,-1.868,-1.8989,-1.953,-1.8787,-1.8793,-1.9086,-1.9265,-1.9306,-1.9306,-1.9306,-1.9306,-1.9306,-1.9306,-1.9306,-1.9306,-1.9306,-1.9306,-1.9306,-1.9306,-1.9306,-1.9306,-1.9306,-1.9058,-1.8655,-1.816,-1.7615,-1.6969,-1.6189,-1.5821,-1.5485,-1.5303,-1.5221,-1.5181,-1.5181,-1.5181,-1.5181,-1.5181,-1.5181,-1.5181,-1.5181,-1.5181,-1.5181,-0.8641,-0.9697,-1.0904,-1.2386,-1.3059,-1.337,-1.3402,-1.3595,-1.3831,-1.3888,-1.4164,-1.4876,-1.6573,-1.5491,-1.4945,-1.6764,-1.6817,-1.7272,-1.9199,-2.0736,-2.2298,-2.3934,-2.4342,-2.4583,-2.486,-2.4887,-2.4957,-2.5197,-2.4983,-2.4983,-2.5277,-2.5331,-2.532,-2.532,-2.5932,-2.6119,-2.5917,-2.6119,-2.6266,-2.6319,-2.656,-2.68,-2.7081,-2.7135,-2.7335,-2.7696,-2.7696,-2.7911,-2.8179,-2.8179,-2.8179,-2.8179,-2.8179,-2.8179,-2.8179,-2.8179,-2.8179,-2.8179,-2.8179,-2.8179,-2.8179,-2.8179,-2.8511,-2.8661,-2.7059,-2.6742,-2.6228,-2.3025,-2.3045,-2.3275,-2.0057,-2.0381,-2.1168,-1.9432,-1.9223,-1.9418,-1.9273,-1.9289,-1.9306,-1.9306,-1.9306,-1.9306,-1.9306,-1.9306,-1.9306,-1.9306,-1.9306,-1.9306,-1.9306,-1.9306,-1.9306,-1.9306,-1.9306,-1.891,-1.792,-1.7771,-1.7202,-1.6111,-1.5765,-1.5519,-1.5418,-1.5262,-1.5181,-1.5181,-1.5181,-1.5181,-1.5181,-1.5181,-1.5181,-1.5181,-1.5181,-1.5181,-0.7971,-0.9583,-1.1325,-1.2385,-1.2898,-1.3207,-1.337,-1.3443,-1.3565,-1.3839,-1.4066,-1.4737,-1.6416,-1.5345,-1.5194,-1.815,-1.7253,-1.7322,-2.0563,-2.1114,-2.1873,-2.3652,-2.3897,-2.3937,-2.3977,-2.3977,-2.4004,-2.4031,-2.4004,-2.4111,-2.4369,-2.4572,-2.4719,-2.4719,-2.5317,-2.5611,-2.5571,-2.5611,-2.5758,-2.6051,-2.6091,-2.6131,-2.6172,-2.6386,-2.6947,-2.7696,-2.7696,-2.7911,-2.8179,-2.8179,-2.8179,-2.8179,-2.8179,-2.8179,-2.8179,-2.8179,-2.8179,-2.8179,-2.8179,-2.8179,-2.8179,-2.8179,-2.8419,-2.8668,-2.8604,-2.7649,-2.6542,-2.6273,-2.515,-2.3871,-2.3367,-2.3412,-2.3153,-2.1432,-2.1139,-2.0834,-1.9361,-1.9192,-1.9306,-1.9306,-1.9306,-1.9306,-1.9306,-1.9306,-1.9306,-1.9306,-1.9306,-1.9306,-1.9306,-1.9306,-1.9306,-1.9306,-1.9306,-1.9058,-1.8457,-1.7962,-1.7351,-1.6552,-1.5959,-1.5519,-1.5418,-1.5262,-1.5181,-1.5181,-1.5181,-1.5181,-1.5181,-1.5181,-1.5181,-1.5181,-1.5181,-1.5181,-0.853,-0.9802,-1.1041,-1.2295,-1.2645,-1.2726,-1.3011,-1.3149,-1.3262,-1.3417,-1.3595,-1.4575,-1.7312,-1.575,-1.5328,-1.9213,-1.8484,-1.822,-2.0591,-2.172,-2.2552,-2.3225,-2.3603,-2.3736,-2.3541,-2.3674,-2.3803,-2.3803,-2.3803,-2.3857,-2.3955,-2.4235,-2.4396,-2.4396,-2.497,-2.5277,-2.5277,-2.5424,-2.5585,-2.5705,-2.5705,-2.5705,-2.5718,-2.6051,-2.6667,-2.7496,-2.7496,-2.7764,-2.8179,-2.8179,-2.8179,-2.8179,-2.8179,-2.8179,-2.8179,-2.8179,-2.8179,-2.8179,-2.8179,-2.8179,-2.8179,-2.8179,-2.8393,-2.8631,-2.8764,-2.8369,-2.7681,-2.6762,-2.6775,-2.6582,-2.4359,-2.473,-2.4944,-2.193,-2.1461,-2.1144,-1.9252,-1.9061,-1.9306,-1.9306,-1.9306,-1.9306,-1.9306,-1.9306,-1.9306,-1.9306,-1.9306,-1.9306,-1.9306,-1.9306,-1.9306,-1.9306,-1.9306,-1.896,-1.8111,-1.7821,-1.7296,-1.6383,-1.5861,-1.556,-1.5492,-1.5309,-1.5181,-1.5181,-1.5181,-1.5181,-1.5181,-1.5181,-1.5181,-1.5181,-1.5181,-1.5181,-0.8733,-0.9624,-1.0377,-1.1703,-1.2101,-1.2264,-1.2588,-1.2832,-1.2986,-1.3076,-1.3206,-1.4353,-1.7809,-1.5891,-1.5377,-2.0267,-1.9508,-1.8976,-2.0894,-2.2354,-2.3126,-2.292,-2.3295,-2.3447,-2.3233,-2.3407,-2.3576,-2.3576,-2.3576,-2.3576,-2.3576,-2.3821,-2.3981,-2.3981,-2.4556,-2.489,-2.497,-2.5251,-2.5371,-2.5253,-2.5371,-2.5411,-2.5411,-2.5824,-2.6386,-2.7081,-2.7121,-2.7483,-2.7965,-2.8045,-2.8072,-2.8085,-2.8152,-2.8179,-2.8179,-2.8179,-2.8179,-2.8179,-2.8179,-2.8179,-2.8179,-2.8179,-2.8339,-2.8497,-2.8577,-2.8764,-2.8591,-2.7234,-2.807,-2.8718,-2.5854,-2.6366,-2.6668,-2.2749,-2.2096,-2.1707,-1.9357,-1.9069,-1.9306,-1.9306,-1.9306,-1.9306,-1.9306,-1.9306,-1.9306,-1.9306,-1.9306,-1.9306,-1.9306,-1.9306,-1.9306,-1.9306,-1.9306,-1.891,-1.7962,-1.7771,-1.7325,-1.6374,-1.5854,-1.5593,-1.5593,-1.5343,-1.5181,-1.5181,-1.5181,-1.5181,-1.5181,-1.5181,-1.5181,-1.5181,-1.5181,-1.5181,-0.7837,-0.8617,-0.9388,-1.0288,-1.1183,-1.1898,-1.2255,-1.2467,-1.2718,-1.3027,-1.31,-1.4067,-1.7195,-1.5369,-1.5391,-2.1336,-1.9937,-1.9198,-2.234,-2.2873,-2.292,-2.2893,-2.292,-2.2934,-2.292,-2.2934,-2.2947,-2.2947,-2.2947,-2.2947,-2.2947,-2.3207,-2.3332,-2.3332,-2.3941,-2.4382,-2.4613,-2.4957,-2.4957,-2.4653,-2.497,-2.5104,-2.5117,-2.573,-2.6172,-2.6453,-2.672,-2.7028,-2.7376,-2.7602,-2.7722,-2.7749,-2.8072,-2.8179,-2.8179,-2.8179,-2.8179,-2.8179,-2.8179,-2.8179,-2.8179,-2.8179,-2.8192,-2.8259,-2.8524,-2.8617,-2.8641,-2.8835,-2.8914,-2.9038,-2.9141,-2.9265,-2.8443,-2.4729,-2.4006,-2.329,-1.9992,-1.9297,-1.9306,-1.9306,-1.9306,-1.9306,-1.9306,-1.9306,-1.9306,-1.9306,-1.9306,-1.9306,-1.9306,-1.9306,-1.9306,-1.9306,-1.9306,-1.9058,-1.8507,-1.8012,-1.7466,-1.6871,-1.6091,-1.5593,-1.5593,-1.5343,-1.5181,-1.5181,-1.5181,-1.5181,-1.5181,-1.5181,-1.5181,-1.5181,-1.5181,-1.5181,-0.7951,-0.8381,-0.8852,-0.9981,-1.059,-1.1013,-1.1362,-1.1939,-1.2402,-1.241,-1.3392,-1.488,-1.6889,-1.585,-1.6326,-2.1347,-2.0628,-2.0165,-2.2281,-2.2773,-2.2893,-2.2893,-2.2893,-2.2893,-2.2893,-2.2893,-2.2893,-2.2893,-2.2893,-2.2893,-2.2893,-2.3,-2.3113,-2.3278,-2.3492,-2.3781,-2.4075,-2.4556,-2.4613,-2.4369,-2.4663,-2.489,-2.509,-2.5491,-2.5838,-2.6172,-2.6413,-2.6814,-2.7322,-2.7575,-2.7696,-2.7722,-2.8072,-2.8179,-2.8179,-2.8179,-2.8179,-2.8179,-2.8179,-2.8179,-2.8179,-2.8179,-2.8179,-2.8205,-2.8312,-2.8353,-2.8379,-2.8473,-2.8604,-2.8831,-2.9081,-2.9339,-2.8602,-2.5055,-2.2347,-2.0298,-1.9329,-1.9224,-1.9306,-1.9306,-1.9306,-1.9306,-1.9306,-1.9306,-1.9306,-1.9306,-1.9306,-1.9306,-1.9306,-1.9306,-1.9306,-1.9306,-1.9306,-1.9058,-1.8556,-1.8309,-1.7863,-1.6963,-1.6433,-1.5974,-1.5593,-1.5343,-1.5181,-1.5181,-1.5181,-1.5181,-1.5181,-1.5181,-1.5181,-1.5181,-1.5181,-1.5181,-0.7678,-0.7996,-0.8419,-0.9641,-0.9941,-1.0193,-1.0972,-1.1546,-1.1906,-1.2085,-1.3175,-1.473,-1.6646,-1.6417,-1.7232,-2.1215,-2.08,-2.0505,-2.2058,-2.2445,-2.2639,-2.2699,-2.2712,-2.2786,-2.288,-2.2893,-2.2893,-2.2893,-2.2893,-2.2893,-2.2893,-2.2893,-2.3006,-2.3278,-2.3292,-2.3474,-2.3803,-2.4249,-2.4396,-2.4209,-2.4466,-2.4706,-2.4943,-2.5331,-2.5625,-2.5864,-2.6213,-2.6613,-2.7041,-2.7281,-2.7455,-2.7589,-2.7924,-2.8098,-2.8179,-2.8179,-2.8179,-2.8179,-2.8179,-2.8179,-2.8179,-2.8179,-2.8179,-2.8179,-2.8179,-2.8179,-2.8179,-2.8179,-2.8339,-2.8524,-2.8818,-2.8697,-2.7596,-2.4045,-2.1282,-1.9363,-1.8945,-1.9045,-1.9232,-1.9297,-1.9306,-1.9306,-1.9306,-1.9306,-1.9306,-1.9306,-1.9257,-1.924,-1.9297,-1.9257,-1.924,-1.9306,-1.9257,-1.9093,-1.8803,-1.8496,-1.7965,-1.7131,-1.6591,-1.6083,-1.556,-1.5316,-1.5181,-1.5181,-1.5181,-1.5181,-1.5181,-1.5181,-1.5181,-1.5181,-1.5181,-1.5181,0.0,0.0,0.0,-0.9094,-0.9217,-0.9486,-1.1078,-1.1175,-1.122,-1.2093,-1.2482,-1.3524,-1.64,-1.7001,-1.8058,-2.1019,-2.041,-2.012,-2.176,-2.201,-2.2084,-2.2378,-2.2405,-2.2525,-2.2853,-2.288,-2.288,-2.2893,-2.2893,-2.2893,-2.2893,-2.2893,-2.3041,-2.3265,-2.3292,-2.346,-2.3777,-2.4048,-2.4195,-2.4195,-2.4452,-2.4599,-2.4626,-2.5213,-2.5518,-2.5558,-2.6132,-2.6386,-2.6413,-2.6707,-2.6987,-2.7322,-2.7589,-2.7924,-2.8179,-2.8179,-2.8179,-2.8179,-2.8179,-2.8179,-2.8179,-2.8179,-2.8179,-2.8179,-2.8179,-2.8179,-2.8179,-2.8179,-2.8179,-2.8259,-2.8524,-2.7566,-2.5598,-2.2021,-2.1272,-2.087,-1.8917,-1.8776,-1.9029,-1.9265,-1.9306,-1.9306,-1.9306,-1.9306,-1.9306,-1.9306,-1.9151,-1.9045,-1.9273,-1.9135,-1.9094,-1.9273,-1.9135,-1.9045,-1.9273,-1.8429,-1.7772,-1.7396,-1.6625,-1.5976,-1.5411,-1.5262,-1.5181,-1.5181,-1.5181,-1.5181,-1.5181,-1.5181,-1.5181,-1.5181,-1.5181,-1.5181,-0.7304,0.0,0.0,0.0,0.0,0.0,-0.9755,-1.0097,-1.0477,-1.1508,-1.2647,-1.3828,-1.4927,-1.6934,-1.868,-1.9448,-2.0394,-2.1175,-2.1657,-2.189,-2.2017,-2.2098,-2.2111,-2.2218,-2.2512,-2.2539,-2.2632,-2.288,-2.2893,-2.2893,-2.2893,-2.2893,-2.2934,-2.3027,-2.3207,-2.326,-2.3148,-2.3834,-2.4102,-2.3937,-2.4396,-2.4743,-2.497,-2.5344,-2.5625,-2.5891,-2.6226,-2.6386,-2.6413,-2.6707,-2.6867,-2.7001,-2.7495,-2.7749,-2.7884,-2.8112,-2.8179,-2.8179,-2.8179,-2.8179,-2.8179,-2.8179,-2.8179,-2.8179,-2.8179,-2.8179,-2.8179,-2.8179,-2.8179,-2.8259,-2.8524,-2.7566,-2.5877,-2.3468,-2.2021,-2.0695,-1.8892,-1.8631,-1.885,-1.9021,-1.9216,-1.9306,-1.9306,-1.9306,-1.9306,-1.9306,-1.9151,-1.9004,-1.9102,-1.8907,-1.8818,-1.8866,-1.8826,-1.8818,-1.8866,-1.8343,-1.7774,-1.7296,-1.6615,-1.5976,-1.5411,-1.5262,-1.5181,-1.5181,-1.5181,-1.5181,-1.5181,-1.5181,-1.5181,-1.5181,-1.5181,-1.5181,0.0,0.0,0.0,-0.8122,0.0,0.0,-0.9494,-0.9649,-0.99,-1.1135,-1.2076,-1.3008,-1.3958,-1.5618,-1.725,-1.8469,-1.9092,-1.9884,-2.1208,-2.1542,-2.167,-2.1823,-2.1836,-2.1957,-2.2205,-2.2231,-2.2365,-2.2659,-2.2672,-2.276,-2.2893,-2.2893,-2.2893,-2.2893,-2.3033,-2.3046,-2.2893,-2.3634,-2.3941,-2.3817,-2.4356,-2.4693,-2.4903,-2.5197,-2.5424,-2.565,-2.6065,-2.6252,-2.6265,-2.652,-2.6707,-2.6867,-2.7335,-2.7589,-2.7736,-2.8072,-2.8179,-2.8179,-2.8179,-2.8179,-2.8179,-2.8179,-2.8179,-2.8179,-2.8179,-2.8179,-2.8179,-2.8179,-2.8179,-2.8076,-2.7513,-2.7477,-2.6669,-2.3226,-2.2333,-2.1612,-1.8963,-1.8476,-1.8688,-1.8931,-1.9183,-1.9306,-1.9306,-1.9306,-1.9306,-1.9306,-1.9037,-1.8899,-1.8972,-1.8769,-1.8639,-1.8672,-1.8655,-1.8639,-1.872,-1.8105,-1.7573,-1.7124,-1.6444,-1.5837,-1.5364,-1.5228,-1.5181,-1.5181,-1.5181,-1.5181,-1.5181,-1.5181,-1.5181,-1.5181,-1.5181,-1.5181,0.0,0.0,0.0,-0.8506,-0.8279,0.0,-0.9714,-0.9535,-0.9445,-1.0766,-1.1033,-1.1523,-1.3098,-1.3582,-1.4619,-1.7396,-1.7116,-1.7619,-2.0656,-2.0982,-2.1044,-2.1502,-2.1542,-2.1649,-2.1943,-2.197,-2.2058,-2.2352,-2.2371,-2.2552,-2.288,-2.2893,-2.2893,-2.2893,-2.2893,-2.2893,-2.2893,-2.3496,-2.3803,-2.3817,-2.4356,-2.4599,-2.4613,-2.4943,-2.5115,-2.5117,-2.5743,-2.5998,-2.6011,-2.6266,-2.6547,-2.6814,-2.7175,-2.7469,-2.7696,-2.8058,-2.8179,-2.8179,-2.8179,-2.8179,-2.8179,-2.8179,-2.8179,-2.8179,-2.8179,-2.8179,-2.8179,-2.8179,-2.8179,-2.7852,-2.6376,-2.7442,-2.7635,-2.2522,-2.2657,-2.2969,-1.9323,-1.851,-1.8589,-1.8907,-1.9135,-1.9281,-1.9306,-1.9306,-1.9306,-1.9306,-1.8956,-1.8777,-1.8931,-1.8687,-1.8532,-1.8647,-1.8517,-1.8485,-1.8647,-1.7844,-1.7218,-1.6992,-1.6252,-1.5657,-1.5228,-1.5181,-1.5181,-1.5181,-1.5181,-1.5181,-1.5181,-1.5181,-1.5181,-1.5181,-1.5181,-1.5181,-0.7485,-0.7773,-0.806,-0.7881,-0.8225,0.0,-0.8859,-0.8877,-0.9112,-0.9965,-1.0004,-1.0124,-1.0777,-1.2146,-1.3282,-1.3621,-1.5846,-1.8371,-2.076,-2.01,-1.9871,-2.1062,-2.1189,-2.1309,-2.1649,-2.1662,-2.1796,-2.2044,-2.2285,-2.2552,-2.288,-2.2893,-2.2893,-2.2893,-2.2893,-2.2893,-2.2893,-2.3496,-2.3803,-2.3817,-2.4356,-2.4599,-2.4613,-2.4943,-2.5115,-2.5117,-2.5743,-2.5998,-2.6011,-2.6266,-2.6426,-2.6533,-2.7095,-2.7349,-2.7456,-2.7991,-2.8179,-2.8179,-2.8179,-2.8179,-2.8179,-2.8179,-2.8179,-2.8179,-2.8179,-2.8179,-2.8179,-2.8179,-2.8179,-2.8108,-2.778,-2.8201,-2.8061,-2.5622,-2.4364,-2.3101,-2.0991,-1.9479,-1.8524,-1.8589,-1.8866,-1.9135,-1.9281,-1.9306,-1.9306,-1.9306,-1.8956,-1.8688,-1.8769,-1.8452,-1.8288,-1.8282,-1.8249,-1.8288,-1.8282,-1.7421,-1.6789,-1.6772,-1.5852,-1.5275,-1.5181,-1.5181,-1.5181,-1.5181,-1.5181,-1.5181,-1.5181,-1.5181,-1.5181,-1.5181,-1.5181,-1.5181,-0.7375,-0.7722,-0.8138,-0.8071,-0.8291,0.0,0.0,-0.8617,-0.8652,-0.9567,-0.9445,-0.934,-0.9811,-1.063,-1.1489,-1.2377,-1.3643,-1.5408,-1.798,-1.9074,-1.97,-2.0011,-2.0566,-2.1015,-2.1328,-2.1368,-2.1489,-2.1783,-2.2178,-2.2485,-2.2632,-2.2813,-2.2893,-2.2893,-2.2893,-2.2893,-2.2893,-2.3496,-2.3803,-2.3817,-2.4356,-2.4599,-2.4599,-2.4759,-2.4863,-2.489,-2.5478,-2.5732,-2.5772,-2.6213,-2.6386,-2.6453,-2.7081,-2.7309,-2.7376,-2.7965,-2.8179,-2.8179,-2.8179,-2.8179,-2.8179,-2.8179,-2.8179,-2.8179,-2.8179,-2.8179,-2.8179,-2.8179,-2.8179,-2.8179,-2.8179,-2.8419,-2.8198,-2.6516,-2.5577,-2.4575,-2.2902,-2.1113,-1.9824,-1.9929,-1.9305,-1.885,-1.9126,-1.9167,-1.92,-1.9297,-1.8956,-1.868,-1.868,-1.8403,-1.8223,-1.8223,-1.8223,-1.8223,-1.8223,-1.7289,-1.6681,-1.6681,-1.5744,-1.5181,-1.5181,-1.5181,-1.5181,-1.5181,-1.5181,-1.5181,-1.5181,-1.5181,-1.5181,-1.5181,-1.5181,-1.5181,-0.738,-0.7759,-0.8264,-0.8368,-0.8471,-0.8623,0.0,0.0,0.0,-0.9186,-0.9024,-0.8886,-0.9316,-0.9332,-0.9799,-1.1422,-1.1487,-1.2066,-1.4147,-1.7086,-1.8868,-1.838,-1.9212,-2.0006,-2.0437,-2.085,-2.1229,-2.1569,-2.2044,-2.2365,-2.2418,-2.2645,-2.284,-2.2893,-2.2893,-2.2893,-2.2893,-2.3442,-2.375,-2.3817,-2.4302,-2.4546,-2.4599,-2.4599,-2.4599,-2.4626,-2.5251,-2.5518,-2.5558,-2.6146,-2.6386,-2.644,-2.6974,-2.7255,-2.7376,-2.7898,-2.8138,-2.8179,-2.8179,-2.8179,-2.8179,-2.8179,-2.8179,-2.8179,-2.8179,-2.8179,-2.8179,-2.8179,-2.8179,-2.8179,-2.8179,-2.8366,-2.8192,-2.6891,-2.6443,-2.6006,-2.4687,-2.2632,-2.1065,-2.1235,-1.9727,-1.8565,-1.8874,-1.8964,-1.9086,-1.9232,-1.8964,-1.8761,-1.868,-1.8436,-1.8271,-1.8271,-1.8271,-1.8271,-1.8271,-1.7429,-1.6866,-1.6726,-1.5852,-1.5288,-1.5221,-1.5201,-1.5181,-1.5181,-1.5181,-1.5181,-1.5181,-1.5181,-1.5181,-1.5181,-1.5181,-1.5181,-0.8017,-0.8345,-0.8667,-0.8103,-0.8752,-0.9236,-0.8119,0.0,-0.8869,-0.8511,0.0,-0.8639,-0.8696,0.0,0.0,-0.8788,-1.0452,-1.1385,-1.0432,-1.293,-1.512,-1.575,-1.6335,-1.7102,-1.8062,-1.9958,-2.1229,-2.1569,-2.189,-2.2151,-2.2405,-2.2458,-2.2592,-2.2893,-2.2893,-2.2893,-2.2893,-2.3207,-2.3514,-2.3803,-2.4102,-2.4382,-2.4599,-2.4599,-2.4599,-2.4626,-2.5251,-2.5518,-2.5558,-2.6146,-2.6386,-2.6426,-2.6747,-2.7028,-2.7349,-2.7629,-2.7951,-2.8179,-2.8179,-2.8179,-2.8179,-2.8179,-2.8179,-2.8179,-2.8179,-2.8179,-2.8179,-2.8179,-2.8179,-2.8179,-2.8179,-2.8205,-2.827,-2.832,-2.7007,-2.5822,-2.5866,-2.3187,-2.0765,-2.0784,-1.9384,-1.8322,-1.8688,-1.8883,-1.8988,-1.9013,-1.898,-1.8899,-1.8696,-1.855,-1.8467,-1.8467,-1.8467,-1.8467,-1.8467,-1.7939,-1.7371,-1.6897,-1.6198,-1.5673,-1.5377,-1.5255,-1.5181,-1.5181,-1.5181,-1.5181,-1.5181,-1.5181,-1.5181,-1.5181,-1.5181,-1.5181,-0.7947,-0.8428,-0.8933,-0.8575,-0.8899,-0.9047,-0.8139,-0.8007,-0.8057,-0.8056,0.0,0.0,0.0,0.0,0.0,0.0,-0.9589,-1.0284,-0.9591,-1.0865,-1.2402,-1.3836,-1.4693,-1.576,-1.7256,-1.7716,-1.8268,-1.9086,-1.9643,-2.0015,-2.0253,-2.1621,-2.2472,-2.2605,-2.2813,-2.2893,-2.2893,-2.3166,-2.3474,-2.3803,-2.4062,-2.4356,-2.4599,-2.4599,-2.4599,-2.4626,-2.5251,-2.5518,-2.5558,-2.6146,-2.6386,-2.64,-2.652,-2.6747,-2.7068,-2.7522,-2.7776,-2.7951,-2.8125,-2.8179,-2.8179,-2.8179,-2.8179,-2.8179,-2.8179,-2.8179,-2.8179,-2.8179,-2.8179,-2.8179,-2.8179,-2.8179,-2.8259,-2.8537,-2.799,-2.749,-2.7982,-2.5069,-2.2429,-2.2561,-2.0234,-1.8225,-1.8379,-1.8605,-1.8793,-1.8948,-1.8899,-1.8842,-1.8874,-1.8679,-1.854,-1.8598,-1.8565,-1.8499,-1.8499,-1.7733,-1.7174,-1.6793,-1.5967,-1.545,-1.5276,-1.5215,-1.5181,-1.5181,-1.5181,-1.5181,-1.5181,-1.5181,-1.5181,-1.5181,-1.5181,-1.5181,-0.8533,-0.8833,-0.916,-0.9135,-0.8976,-0.8699,-0.8233,-0.7871,-0.7708,-0.7945,-0.7886,0.0,0.0,0.0,-0.8184,-0.8336,0.0,-0.9332,-0.9099,-0.9478,-1.0306,-1.176,-1.2955,-1.4296,-1.5839,-1.5648,-1.5841,-1.6765,-1.731,-1.7911,-1.8643,-2.0496,-2.1773,-2.2371,-2.2746,-2.2893,-2.2893,-2.3086,-2.3354,-2.3647,-2.3941,-2.4235,-2.4479,-2.4559,-2.4599,-2.4626,-2.5251,-2.5518,-2.5558,-2.6146,-2.644,-2.6507,-2.6426,-2.6613,-2.7001,-2.7428,-2.7629,-2.7749,-2.8085,-2.8179,-2.8179,-2.8179,-2.8179,-2.8179,-2.8179,-2.8179,-2.8179,-2.8179,-2.8179,-2.8179,-2.8179,-2.8179,-2.8245,-2.843,-2.8086,-2.7977,-2.8931,-2.6198,-2.3565,-2.3737,-2.1174,-1.882,-1.8316,-1.8377,-1.8589,-1.885,-1.8818,-1.8826,-1.8899,-1.8688,-1.8598,-1.8777,-1.859,-1.8524,-1.8573,-1.7717,-1.7002,-1.6508,-1.5692,-1.5228,-1.5181,-1.5181,-1.5181,-1.5181,-1.5181,-1.5181,-1.5181,-1.5181,-1.5181,-1.5181,-1.5181,-1.5181,-1.0354,-0.9856,-0.9445,-0.963,-0.9051,-0.8386,-0.8229,-0.8324,-0.8433,-0.8308,-0.8642,-0.8898,-0.8708,-0.8679,-0.8525,0.0,-0.8519,0.0,0.0,-0.8468,-0.88,-0.9182,-1.0794,-1.2219,-1.3051,-1.4331,-1.5205,-1.5457,-1.5547,-1.6507,-1.8587,-1.9026,-2.0195,-2.2311,-2.2746,-2.2893,-2.2893,-2.2907,-2.3033,-2.3305,-2.3647,-2.3941,-2.4222,-2.4466,-2.4599,-2.4626,-2.5251,-2.5518,-2.5558,-2.6146,-2.656,-2.6774,-2.6493,-2.6747,-2.7296,-2.7309,-2.7496,-2.7749,-2.8085,-2.8179,-2.8179,-2.8179,-2.8179,-2.8179,-2.8179,-2.8179,-2.8179,-2.8179,-2.8179,-2.8179,-2.8179,-2.8179,-2.8192,-2.8205,-2.6813,-2.6006,-2.7838,-2.5646,-2.3309,-2.322,-2.201,-2.0427,-1.8541,-1.8377,-1.8499,-1.8516,-1.8809,-1.8915,-1.8704,-1.872,-1.8785,-1.8956,-1.8711,-1.8573,-1.8704,-1.8073,-1.7183,-1.5992,-1.5607,-1.5337,-1.5187,-1.5181,-1.5181,-1.5181,-1.5181,-1.5181,-1.5181,-1.5181,-1.5181,-1.5181,-1.5181,-1.5181,-1.0455,-1.0641,-1.0678,-1.0532,-0.9872,-0.9116,-0.8592,-0.8255,-0.7979,-0.775,-0.815,-0.844,-0.8157,-0.8315,0.0,0.0,0.0,-0.8509,0.0,-0.8103,-0.8183,-0.8519,-0.9621,-1.0649,-1.1466,-1.1716,-1.2139,-1.2834,-1.314,-1.4286,-1.6534,-1.8034,-1.9859,-2.2065,-2.2418,-2.2659,-2.2893,-2.2893,-2.302,-2.3292,-2.3634,-2.3928,-2.4209,-2.4466,-2.4599,-2.4626,-2.5251,-2.5518,-2.5558,-2.6146,-2.656,-2.6747,-2.6507,-2.6627,-2.7001,-2.7229,-2.7455,-2.7749,-2.8085,-2.8179,-2.8179,-2.8179,-2.8179,-2.8179,-2.8179,-2.8179,-2.8179,-2.8179,-2.8179,-2.8179,-2.8179,-2.8179,-2.8179,-2.8179,-2.7714,-2.7458,-2.8276,-2.6723,-2.4806,-2.3682,-2.2201,-2.0473,-1.8541,-1.8271,-1.8361,-1.8483,-1.8655,-1.8793,-1.8736,-1.868,-1.8744,-1.8809,-1.8646,-1.8524,-1.8541,-1.7616,-1.6693,-1.5938,-1.5518,-1.5235,-1.5181,-1.5181,-1.5181,-1.5181,-1.5181,-1.5181,-1.5181,-1.5181,-1.5181,-1.5181,-1.5181,-1.5181,-1.1224,-1.1331,-1.1384,-1.1348,-1.0594,-0.9744,-0.9256,-0.8967,-0.87,-0.8265,-0.8538,-0.8861,-0.882,-0.8592,-0.8494,0.0,0.0,-0.8262,0.0,-0.7859,-0.7931,-0.8102,-0.8779,-0.956,-1.041,-1.0025,-1.0062,-1.0937,-1.1066,-1.2336,-1.5219,-1.6815,-1.8914,-2.1598,-2.2151,-2.2512,-2.2699,-2.284,-2.3,-2.3166,-2.3581,-2.391,-2.4062,-2.4412,-2.4599,-2.4626,-2.5251,-2.5518,-2.5558,-2.6146,-2.656,-2.6747,-2.6507,-2.6694,-2.7148,-2.7269,-2.7563,-2.7924,-2.8125,-2.8179,-2.8179,-2.8179,-2.8179,-2.8179,-2.8179,-2.8179,-2.8179,-2.8179,-2.8179,-2.8179,-2.8179,-2.8179,-2.801,-2.7363,-2.7194,-2.7246,-2.7439,-2.616,-2.4703,-2.366,-2.2131,-2.0391,-1.8532,-1.8223,-1.8263,-1.8385,-1.8509,-1.8631,-1.8631,-1.8631,-1.8655,-1.8672,-1.8501,-1.826,-1.7883,-1.7163,-1.64,-1.5704,-1.5375,-1.5181,-1.5181,-1.5181,-1.5282,-1.5499,-1.5289,-1.5289,-1.5499,-1.5289,-1.5181,-1.5181,-1.5181,-1.5181]},{"header":{"parameterUnit":"m.s-1","parameterCategory":1,"la1":30.6,"la2":29.2853,"lo1":-89.7004,"lo2":-87.6739,"dy":0.0162,"dx":0.0183,"nx":112,"ny":82,"refTime":"2023-10-21T06:00:00:Z","depth":0,"parameterNumber":3,"parameterNumberName":"V-component_of_WINDS"},"data":[0.0,0.0,0.0,0.0,0.0,0.0,0.0,0.0,0.0,0.0,0.0,0.0,0.0,0.0,0.0,0.0,0.0,0.0,0.0,0.0,0.0,0.0,0.0,0.0,0.0,0.0,0.0,0.0,0.0,0.0,0.0,0.0,0.0,0.0,0.0,0.0,0.0,0.0,0.0,0.0,0.0,0.0,0.0,0.0,0.0,0.0,0.0,0.0,0.0,0.0,0.0,0.0,0.0,0.0,0.0,0.0,0.0,0.0,0.0,0.0,0.0,0.0,0.0,0.0,0.0,0.0,0.0,0.0,0.0,0.0,0.0,0.0,0.0,0.0,0.0,0.0,0.0,0.0,0.0,0.0,0.0,0.0,0.0,0.0,0.0,0.0,0.0,0.0,0.0,0.0,4.6667,5.1553,5.9588,6.4359,6.3737,6.3083,5.9313,5.1399,0.0,0.0,0.0,0.0,0.0,0.0,0.0,0.0,0.0,0.0,0.0,0.0,0.0,0.0,0.0,0.0,0.0,0.0,0.0,0.0,0.0,0.0,0.0,0.0,0.0,0.0,0.0,0.0,0.0,0.0,0.0,0.0,0.0,0.0,0.0,0.0,0.0,0.0,0.0,0.0,0.0,0.0,0.0,0.0,0.0,0.0,0.0,0.0,0.0,0.0,0.0,0.0,0.0,0.0,0.0,0.0,0.0,0.0,0.0,0.0,0.0,0.0,0.0,0.0,0.0,0.0,0.0,0.0,0.0,0.0,0.0,0.0,0.0,0.0,0.0,0.0,0.0,0.0,0.0,0.0,0.0,0.0,0.0,0.0,0.0,0.0,0.0,0.0,0.0,0.0,0.0,0.0,0.0,0.0,0.0,0.0,0.0,0.0,0.0,0.0,0.0,0.0,0.0,0.0,4.559,5.6934,6.2012,6.4859,6.5436,6.2166,5.7698,5.2082,0.0,0.0,0.0,0.0,0.0,0.0,0.0,0.0,0.0,0.0,0.0,0.0,0.0,0.0,0.0,0.0,0.0,0.0,0.0,0.0,0.0,0.0,0.0,0.0,0.0,0.0,0.0,0.0,0.0,0.0,0.0,0.0,0.0,0.0,0.0,0.0,0.0,0.0,0.0,0.0,0.0,0.0,0.0,0.0,0.0,0.0,0.0,0.0,0.0,0.0,0.0,0.0,0.0,0.0,0.0,0.0,0.0,0.0,0.0,0.0,0.0,0.0,0.0,0.0,0.0,0.0,0.0,0.0,0.0,0.0,0.0,0.0,0.0,0.0,0.0,0.0,0.0,0.0,0.0,0.0,0.0,0.0,0.0,0.0,0.0,0.0,0.0,0.0,0.0,0.0,0.0,0.0,0.0,0.0,0.0,0.0,0.0,0.0,0.0,0.0,0.0,0.0,0.0,4.4547,4.9971,5.8588,6.2974,6.5474,6.5865,6.2397,5.805,5.2928,4.9668,0.0,0.0,0.0,0.0,0.0,0.0,0.0,0.0,0.0,0.0,0.0,0.0,0.0,0.0,0.0,0.0,0.0,0.0,0.0,0.0,0.0,0.0,0.0,0.0,0.0,0.0,0.0,0.0,0.0,0.0,0.0,0.0,0.0,0.0,0.0,0.0,0.0,0.0,0.0,0.0,0.0,0.0,0.0,0.0,0.0,0.0,0.0,0.0,0.0,0.0,0.0,0.0,0.0,0.0,0.0,0.0,0.0,0.0,0.0,0.0,0.0,0.0,0.0,0.0,0.0,0.0,0.0,0.0,0.0,0.0,0.0,0.0,0.0,0.0,0.0,0.0,0.0,0.0,0.0,0.0,0.0,0.0,0.0,0.0,0.0,0.0,0.0,0.0,0.0,0.0,0.0,0.0,0.0,0.0,0.0,0.0,0.0,0.0,0.0,0.0,0.0,0.0,4.9851,5.4813,5.9319,6.3281,6.5513,6.5282,6.1781,5.7594,5.2895,4.7822,0.0,0.0,0.0,0.0,0.0,0.0,0.0,0.0,0.0,0.0,0.0,0.0,0.0,0.0,0.0,0.0,0.0,0.0,0.0,0.0,0.0,0.0,0.0,0.0,0.0,0.0,0.0,0.0,0.0,0.0,0.0,0.0,0.0,0.0,0.0,0.0,0.0,0.0,0.0,0.0,0.0,0.0,0.0,0.0,0.0,0.0,0.0,0.0,0.0,0.0,0.0,0.0,0.0,0.0,0.0,0.0,0.0,0.0,0.0,0.0,0.0,0.0,0.0,0.0,0.0,0.0,0.0,0.0,0.0,0.0,0.0,0.0,0.0,0.0,0.0,0.0,0.0,0.0,0.0,0.0,0.0,0.0,0.0,0.0,0.0,0.0,0.0,0.0,0.0,0.0,0.0,0.0,0.0,0.0,0.0,0.0,0.0,0.0,0.0,0.0,0.0,0.0,5.1543,5.7698,6.0435,6.3089,6.4359,6.3545,5.8934,5.4593,5.1092,4.609,0.0,0.0,0.0,0.0,0.0,0.0,0.0,0.0,0.0,0.0,0.0,0.0,0.0,0.0,0.0,0.0,0.0,0.0,0.0,0.0,0.0,0.0,0.0,0.0,0.0,0.0,0.0,0.0,0.0,0.0,0.0,0.0,0.0,0.0,0.0,0.0,0.0,0.0,0.0,0.0,0.0,0.0,0.0,0.0,0.0,0.0,0.0,0.0,0.0,0.0,0.0,0.0,0.0,0.0,0.0,0.0,0.0,0.0,0.0,0.0,0.0,0.0,0.0,0.0,0.0,0.0,0.0,0.0,0.0,0.0,0.0,0.0,0.0,0.0,0.0,0.0,0.0,0.0,0.0,0.0,0.0,0.0,0.0,0.0,0.0,0.0,0.0,0.0,0.0,0.0,0.0,0.0,0.0,0.0,0.0,0.0,0.0,0.0,0.0,0.0,0.0,0.0,5.0197,5.5621,6.0281,6.2133,6.3128,6.3275,5.9127,5.5054,5.1664,0.0,0.0,0.0,0.0,0.0,0.0,0.0,0.0,0.0,0.0,0.0,0.0,0.0,0.0,0.0,0.0,0.0,0.0,0.0,0.0,0.0,0.0,0.0,0.0,0.0,0.0,0.0,0.0,0.0,0.0,0.0,0.0,0.0,0.0,0.0,0.0,0.0,0.0,0.0,0.0,0.0,0.0,0.0,0.0,0.0,0.0,0.0,0.0,0.0,0.0,0.0,0.0,0.0,0.0,0.0,0.0,0.0,0.0,0.0,0.0,0.0,0.0,0.0,0.0,0.0,0.0,0.0,0.0,0.0,0.0,0.0,0.0,0.0,0.0,0.0,0.0,0.0,0.0,0.0,0.0,0.0,0.0,0.0,0.0,0.0,0.0,0.0,0.0,0.0,0.0,0.0,0.0,0.0,0.0,0.0,0.0,0.0,0.0,0.0,0.0,0.0,0.0,4.4975,5.024,5.5203,5.955,6.1018,6.1787,6.2083,5.7973,5.428,5.1697,0.0,0.0,0.0,0.0,0.0,0.0,0.0,0.0,0.0,0.0,0.0,0.0,0.0,0.0,0.0,0.0,0.0,0.0,0.0,0.0,0.0,0.0,0.0,0.0,0.0,0.0,0.0,0.0,0.0,0.0,0.0,0.0,0.0,0.0,0.0,0.0,0.0,0.0,0.0,0.0,0.0,0.0,0.0,0.0,0.0,0.0,0.0,0.0,0.0,0.0,0.0,0.0,0.0,0.0,0.0,0.0,0.0,0.0,0.0,0.0,0.0,0.0,0.0,0.0,0.0,0.0,0.0,0.0,0.0,0.0,0.0,0.0,0.0,0.0,0.0,0.0,0.0,0.0,0.0,0.0,0.0,0.0,0.0,0.0,0.0,0.0,0.0,0.0,0.0,0.0,0.0,0.0,0.0,0.0,0.0,0.0,0.0,0.0,0.0,0.0,0.0,0.0,4.5282,5.2251,5.7324,5.8198,5.9781,6.0435,5.955,5.4851,5.1582,0.0,0.0,0.0,0.0,0.0,0.0,0.0,0.0,0.0,0.0,0.0,0.0,0.0,0.0,0.0,0.0,0.0,0.0,0.0,0.0,0.0,0.0,0.0,0.0,0.0,0.0,0.0,0.0,0.0,0.0,0.0,0.0,0.0,0.0,0.0,0.0,0.0,0.0,0.0,0.0,0.0,0.0,0.0,0.0,0.0,0.0,0.0,0.0,0.0,0.0,0.0,0.0,0.0,0.0,0.0,0.0,0.0,0.0,0.0,0.0,0.0,0.0,0.0,0.0,0.0,0.0,0.0,0.0,0.0,0.0,0.0,0.0,0.0,0.0,0.0,0.0,0.0,0.0,0.0,0.0,0.0,0.0,0.0,0.0,0.0,0.0,0.0,0.0,0.0,0.0,0.0,0.0,0.0,0.0,0.0,0.0,0.0,0.0,0.0,0.0,0.0,0.0,0.0,4.6124,5.1625,5.6011,5.8083,5.8742,5.8934,5.8665,5.5626,5.2587,4.9938,0.0,0.0,0.0,0.0,0.0,0.0,0.0,0.0,0.0,0.0,0.0,0.0,0.0,0.0,0.0,0.0,0.0,0.0,0.0,0.0,0.0,0.0,0.0,0.0,0.0,0.0,0.0,0.0,0.0,0.0,0.0,0.0,0.0,0.0,0.0,0.0,0.0,0.0,0.0,0.0,0.0,0.0,0.0,0.0,0.0,0.0,0.0,0.0,0.0,0.0,0.0,0.0,0.0,0.0,0.0,0.0,0.0,0.0,0.0,0.0,0.0,0.0,0.0,0.0,0.0,0.0,0.0,0.0,0.0,0.0,0.0,0.0,0.0,0.0,0.0,0.0,0.0,0.0,0.0,0.0,0.0,0.0,0.0,0.0,0.0,0.0,0.0,0.0,0.0,0.0,0.0,0.0,0.0,0.0,0.0,0.0,0.0,0.0,0.0,0.0,0.0,0.0,4.6047,5.1125,5.5203,5.7049,5.7588,5.7934,5.828,5.5665,5.3087,5.1048,0.0,0.0,0.0,0.0,0.0,0.0,0.0,0.0,0.0,0.0,0.0,0.0,0.0,0.0,0.0,0.0,0.0,0.0,0.0,0.0,0.0,0.0,0.0,0.0,0.0,0.0,0.0,0.0,0.0,0.0,0.0,0.0,0.0,0.0,0.0,0.0,0.0,0.0,0.0,0.0,0.0,0.0,0.0,0.0,0.0,0.0,0.0,0.0,0.0,0.0,0.0,0.0,0.0,0.0,0.0,0.0,0.0,0.0,0.0,0.0,0.0,0.0,0.0,0.0,0.0,0.0,0.0,0.0,0.0,0.0,0.0,0.0,0.0,0.0,0.0,0.0,0.0,0.0,0.0,0.0,0.0,0.0,0.0,0.0,0.0,0.0,0.0,0.0,0.0,0.0,0.0,0.0,0.0,0.0,0.0,0.0,0.0,0.0,0.0,0.0,0.0,0.0,4.5475,5.0784,5.4703,5.5593,5.6401,5.7209,5.8011,5.5159,5.3236,5.3082,0.0,0.0,0.0,0.0,0.0,0.0,0.0,0.0,0.0,0.0,0.0,0.0,0.0,0.0,0.0,0.0,0.0,0.0,0.0,0.0,0.0,0.0,0.0,0.0,0.0,0.0,0.0,0.0,0.0,0.0,0.0,0.0,0.0,0.0,0.0,0.0,0.0,0.0,0.0,0.0,0.0,0.0,0.0,0.0,0.0,0.0,0.0,0.0,0.0,0.0,0.0,0.0,0.0,0.0,0.0,0.0,0.0,0.0,0.0,0.0,4.1007,3.8828,0.0,0.0,0.0,0.0,0.0,0.0,0.0,0.0,0.0,0.0,0.0,0.0,0.0,0.0,0.0,0.0,0.0,0.0,0.0,0.0,0.0,0.0,0.0,0.0,0.0,0.0,0.0,0.0,0.0,0.0,0.0,0.0,0.0,0.0,0.0,0.0,0.0,0.0,0.0,0.0,4.6312,5.062,5.4049,5.5555,5.5862,5.6055,5.6242,5.5011,5.3626,5.2274,4.9933,0.0,0.0,0.0,0.0,0.0,0.0,0.0,0.0,0.0,0.0,0.0,0.0,0.0,0.0,0.0,0.0,0.0,0.0,0.0,0.0,0.0,0.0,0.0,0.0,0.0,0.0,0.0,0.0,0.0,0.0,0.0,0.0,0.0,0.0,0.0,0.0,0.0,0.0,0.0,0.0,0.0,0.0,0.0,0.0,0.0,0.0,0.0,0.0,0.0,0.0,0.0,0.0,0.0,0.0,0.0,0.0,0.0,0.0,0.0,4.4614,4.2618,0.0,0.0,0.0,0.0,0.0,0.0,0.0,0.0,0.0,0.0,0.0,0.0,0.0,0.0,0.0,0.0,0.0,0.0,0.0,0.0,0.0,0.0,0.0,0.0,0.0,0.0,0.0,0.0,0.0,0.0,0.0,0.0,0.0,0.0,0.0,0.0,0.0,0.0,0.0,0.0,4.774,5.1779,5.4741,5.5593,5.6055,5.6324,5.6324,5.5208,5.428,5.378,5.1456,0.0,0.0,0.0,0.0,0.0,0.0,0.0,0.0,0.0,0.0,0.0,0.0,0.0,0.0,0.0,0.0,0.0,0.0,0.0,0.0,0.0,0.0,0.0,0.0,0.0,0.0,0.0,0.0,0.0,0.0,0.0,0.0,0.0,0.0,0.0,0.0,0.0,0.0,0.0,0.0,0.0,0.0,0.0,0.0,0.0,0.0,0.0,0.0,0.0,0.0,0.0,0.0,0.0,4.9442,5.0982,5.2341,5.25,5.3089,5.3798,5.076,4.8981,4.8037,4.556,0.0,0.0,0.0,0.0,0.0,0.0,0.0,0.0,0.0,0.0,0.0,0.0,0.0,0.0,0.0,0.0,0.0,0.0,0.0,0.0,0.0,0.0,4.7642,4.9877,5.0465,4.9546,4.5993,0.0,0.0,0.0,0.0,0.0,0.0,0.0,0.0,0.0,0.0,0.0,4.923,5.3079,5.5553,5.5738,5.6398,5.6832,5.6824,5.5552,5.5051,5.5745,5.3125,5.159,0.0,0.0,0.0,0.0,0.0,0.0,0.0,0.0,0.0,0.0,0.0,0.0,0.0,0.0,0.0,0.0,0.0,0.0,0.0,0.0,0.0,0.0,0.0,0.0,0.0,0.0,0.0,0.0,0.0,0.0,0.0,0.0,3.9105,4.1545,0.0,0.0,0.0,0.0,0.0,0.0,0.0,0.0,0.0,0.0,0.0,0.0,0.0,4.7132,5.1887,5.2872,5.4911,5.7969,5.9664,6.0592,6.0824,6.1568,6.2003,6.2061,6.0848,0.0,5.2561,5.1433,0.0,0.0,0.0,0.0,0.0,0.0,0.0,0.0,0.0,0.0,0.0,0.0,0.0,0.0,0.0,0.0,0.0,0.0,0.0,0.0,0.0,0.0,5.275,5.3829,5.4104,5.3949,5.3408,4.857,4.4276,4.4037,4.338,4.2285,0.0,0.0,0.0,0.0,0.0,0.0,5.0374,5.3036,5.505,5.5866,5.6072,5.6156,5.6223,5.6001,5.5924,5.604,5.4977,5.4372,5.4372,5.2792,0.0,0.0,0.0,0.0,0.0,0.0,0.0,0.0,0.0,0.0,0.0,0.0,0.0,0.0,0.0,0.0,0.0,0.0,0.0,0.0,0.0,0.0,0.0,0.0,0.0,0.0,0.0,0.0,0.0,3.9646,4.2392,4.3946,4.375,4.2628,0.0,0.0,0.0,0.0,0.0,0.0,0.0,0.0,0.0,5.1413,5.2496,5.4817,5.8488,5.9841,6.1776,6.4174,6.5407,6.649,6.7423,6.7815,6.8241,6.8666,6.7771,6.5373,6.1737,5.7004,5.3249,5.0155,0.0,0.0,0.0,0.0,4.4179,4.4217,4.7259,4.869,4.9196,4.8903,0.0,0.0,0.0,0.0,0.0,0.0,0.0,4.6397,4.8211,5.1436,5.4542,5.5892,5.6592,5.6786,5.6317,5.3821,5.0858,4.794,4.7048,4.5955,4.3254,4.3459,0.0,0.0,0.0,5.0264,5.3443,5.5645,5.7056,5.7457,5.7965,5.8059,5.76,5.7094,5.6819,5.6819,5.6142,5.5745,5.5742,5.4546,5.3463,0.0,0.0,0.0,0.0,0.0,0.0,0.0,0.0,0.0,0.0,0.0,0.0,0.0,0.0,0.0,0.0,0.0,0.0,0.0,0.0,0.0,0.0,0.0,0.0,0.0,0.0,0.0,0.0,4.2676,4.5133,4.5502,4.5968,4.5096,0.0,0.0,0.0,0.0,0.0,0.0,4.9739,5.1138,5.393,5.8587,5.998,6.1993,6.4735,6.6054,6.7562,6.9225,7.0112,7.1159,7.2362,7.2594,7.2909,7.324,7.2621,7.1234,6.8932,6.2312,5.7675,5.4585,5.2453,5.048,4.8975,5.021,5.0287,5.0171,5.3386,5.4039,5.3571,5.4043,5.2569,5.0442,4.9126,0.0,0.0,0.0,0.0,4.9591,5.1946,5.4615,5.7134,5.8599,5.9416,5.9653,5.8793,5.8445,5.693,5.2191,5.1099,5.0019,4.7023,4.6771,0.0,4.9154,5.0588,5.2695,5.6115,5.7821,5.8761,5.8785,5.937,5.9494,5.8854,5.8033,5.7524,5.7524,5.6836,5.6432,5.6468,5.5849,5.5189,5.4529,0.0,0.0,0.0,0.0,0.0,0.0,0.0,0.0,0.0,0.0,0.0,0.0,0.0,0.0,0.0,0.0,0.0,0.0,0.0,0.0,0.0,0.0,0.0,0.0,0.0,0.0,0.0,0.0,0.0,4.4952,4.842,0.0,0.0,0.0,0.0,4.7,5.0902,5.4413,5.7026,5.9515,6.2432,6.5968,6.6161,6.7828,7.1199,7.1315,7.2209,7.3876,7.477,7.5195,7.5312,7.6163,7.6013,7.5159,7.512,7.3622,7.0905,6.7268,6.4213,6.1577,5.8212,5.6859,5.6743,5.682,5.682,5.7168,5.9759,6.0615,6.046,5.9764,5.8294,5.6394,5.3923,5.3076,0.0,0.0,5.241,5.4813,5.6549,5.9489,6.224,6.3173,6.3405,6.3212,6.2312,6.1573,6.0063,5.6534,5.5207,5.4071,5.2308,0.0,5.3075,5.2292,5.4361,5.6355,5.741,5.8345,5.8913,5.8961,5.9003,5.9058,5.9087,5.8347,5.7878,5.7878,5.7059,5.6591,5.6591,5.6552,5.6513,5.6474,5.3871,0.0,0.0,0.0,0.0,0.0,0.0,0.0,0.0,0.0,0.0,0.0,0.0,0.0,0.0,0.0,0.0,0.0,0.0,0.0,0.0,0.0,0.0,0.0,0.0,0.0,0.0,0.0,0.0,5.2861,5.5888,0.0,5.3361,5.4163,5.4914,5.4875,5.9451,6.3083,6.5058,6.7593,6.9996,7.2256,7.3421,7.4585,7.5824,7.6331,7.6875,7.7499,7.7809,7.7963,7.7963,7.8275,7.8216,7.7826,7.6732,7.5735,7.4642,7.2309,6.8781,6.4638,6.2317,6.1427,6.1505,6.2046,6.224,6.2472,6.3903,6.4058,6.3362,6.1969,6.0344,5.8913,5.8526,5.7637,5.6867,5.7327,5.8139,5.9138,6.0391,6.2005,6.3546,6.451,6.4296,6.3943,6.4221,6.4067,6.3538,6.2356,5.9594,5.6948,5.5227,5.5272,5.5611,5.5845,5.6728,5.7836,5.9203,5.9672,6.0103,6.0696,6.0735,6.0737,6.078,5.953,5.8749,5.8749,5.7382,5.66,5.66,5.66,5.66,5.66,5.5113,5.3937,0.0,0.0,0.0,0.0,0.0,0.0,0.0,0.0,0.0,0.0,0.0,0.0,0.0,0.0,0.0,0.0,0.0,0.0,0.0,0.0,0.0,0.0,0.0,0.0,0.0,5.1684,5.7045,5.8777,6.2065,6.3278,6.0973,6.1601,6.2341,6.2928,6.7023,7.0228,7.1836,7.3828,7.5504,7.6855,7.8022,7.8645,7.8645,7.9152,7.9425,7.9425,7.9425,7.9425,7.9425,7.9425,7.9416,7.9319,7.8187,7.7353,7.6702,7.5532,7.2627,6.8746,6.7348,6.6808,6.6843,6.7107,6.7219,6.7297,6.7836,6.7109,6.5756,6.4588,6.287,6.1302,6.1909,6.1289,6.0583,6.1764,6.2517,6.3169,6.4127,6.52,6.6199,6.6865,6.6569,6.6257,6.6532,6.6638,6.6479,6.5934,6.3065,6.0235,5.8815,5.8139,5.7917,5.823,5.8552,5.914,6.0273,6.0664,6.1055,6.164,6.1719,6.1719,6.1719,5.9883,5.8906,5.918,5.7305,5.6289,5.6601,5.6328,5.6172,5.6172,5.5312,5.457,5.4023,0.0,0.0,0.0,0.0,0.0,0.0,0.0,0.0,0.0,0.0,0.0,0.0,0.0,0.0,0.0,0.0,0.0,0.0,0.0,0.0,0.0,0.0,0.0,4.9414,5.6559,6.1983,6.2105,6.6619,6.9029,6.7405,6.7948,6.9119,7.0805,7.3345,7.5494,7.7135,7.8033,7.8892,7.9753,7.9792,7.9792,7.9792,7.9792,7.9792,7.9792,7.9792,7.9792,7.9792,7.9792,7.9725,7.9602,7.9563,7.8568,7.6946,7.6907,7.5893,7.4252,7.3308,7.2914,7.2797,7.1932,7.1618,7.1618,7.1618,6.9979,6.789,6.789,6.6107,6.4027,6.4144,6.4102,6.3997,6.4164,6.5402,6.6841,6.7657,6.9102,7.0352,7.0396,7.0396,7.0123,6.9343,6.9258,6.8833,6.7151,6.5514,6.4121,6.3203,6.164,6.0273,5.9492,6.0039,0.0,6.0508,6.125,6.1758,6.1719,6.1758,6.1758,6.168,5.9414,5.832,5.914,5.6758,5.5703,5.6562,5.5781,5.5351,5.5351,5.4492,5.4844,5.6523,0.0,0.0,0.0,0.0,0.0,0.0,0.0,0.0,0.0,0.0,0.0,0.0,0.0,0.0,0.0,0.0,0.0,0.0,0.0,0.0,0.0,5.3428,5.7767,5.7299,6.3038,6.8422,7.1535,7.4297,7.5738,7.5276,7.543,7.5781,7.6253,7.8127,7.9455,7.9886,8.0743,8.1329,8.1563,8.1602,8.1602,8.1602,8.1602,8.1602,8.1602,8.1602,8.1602,8.1602,8.1602,8.1571,8.1504,8.0841,8.0299,7.9798,7.9173,7.8236,7.7028,7.4724,7.3462,7.2875,7.2639,7.2129,7.1618,7.1618,7.114,7.0461,6.9874,6.9192,6.859,6.8612,6.8186,6.7798,6.8444,6.8531,6.8507,6.8787,6.9225,6.9781,7.0466,7.0116,6.9764,7.0194,7.0273,7.0155,6.9687,6.9218,6.7851,6.4531,6.3555,6.3164,6.293,6.3086,6.3242,6.3242,6.3437,6.3086,6.1836,6.2812,6.2812,6.0937,6.0117,5.957,5.9219,5.7344,5.6367,5.6601,5.6367,5.625,5.625,5.539,5.4883,0.0,0.0,0.0,0.0,0.0,0.0,0.0,0.0,0.0,0.0,0.0,0.0,0.0,0.0,0.0,0.0,0.0,0.0,0.0,0.0,0.0,0.0,5.9972,6.5328,6.7123,7.0405,7.3837,7.7065,7.8975,8.0029,8.0029,8.0029,8.0029,8.0029,8.0966,8.1552,8.1552,8.202,8.2292,8.2292,8.2292,8.2292,8.2292,8.2292,8.2292,8.2292,8.2292,8.2292,8.2292,8.2292,8.2292,8.2253,8.1747,8.1356,8.0968,8.0459,7.9717,7.871,0.0,0.0,0.0,0.0,7.3234,7.2804,7.2804,7.2329,7.1655,7.1186,7.0506,6.9901,6.9961,6.9611,6.9297,6.9823,6.9867,6.9872,7.0311,7.0429,7.0664,7.1554,7.112,7.073,7.159,7.1512,7.1238,7.1238,7.0964,0.0,6.6911,6.613,6.5662,6.4959,6.5154,6.5271,6.488,6.5155,6.4999,6.3984,6.4453,6.4219,6.2695,6.125,0.0,0.0,0.0,5.6445,5.6055,5.6055,0.0,0.0,0.0,5.539,5.5625,5.5508,0.0,0.0,5.4101,5.375,0.0,0.0,0.0,0.0,0.0,0.0,0.0,0.0,0.0,0.0,0.0,0.0,0.0,0.0,0.0,0.0,6.656,7.2963,7.6984,7.7687,7.835,7.9834,8.1355,8.2292,8.2292,8.2292,8.2292,8.2292,8.2292,8.2292,8.2292,8.2292,0.0,0.0,0.0,8.2292,8.2292,8.2292,8.2292,8.2292,8.2292,8.2292,8.2292,8.2292,8.2292,8.2292,8.2292,8.1864,8.1163,8.1163,8.0576,7.9522,7.7765,7.6516,7.5541,7.4681,7.429,7.4212,7.4212,0.0,0.0,7.179,7.082,6.9673,6.9687,6.9765,6.9882,6.9953,7.0532,7.1313,7.2095,7.229,7.2485,7.3267,7.2837,7.2485,7.3267,7.2837,7.229,7.229,7.1665,7.0884,7.0102,6.901,6.7722,6.6237,6.6706,6.6901,6.612,6.6712,6.7106,6.691,6.6366,0.0,6.5625,6.2773,6.0937,6.0859,5.8437,5.668,5.5898,5.5781,5.539,5.4685,5.5466,5.6638,5.8318,5.906,6.0223,6.1596,5.632,5.5507,0.0,0.0,0.0,0.0,0.0,0.0,0.0,0.0,0.0,0.0,0.0,0.0,0.0,0.0,0.0,6.5388,7.23,7.7688,7.9914,8.1396,8.2137,8.1825,8.2097,8.2292,8.2292,8.2292,8.2292,8.2292,8.2292,8.2292,8.2292,8.2292,8.2292,8.2292,8.2292,8.2292,8.2292,8.2292,8.2292,8.2292,8.2292,0.0,8.2292,8.2292,8.2292,8.2292,8.2292,8.2214,8.2059,8.2059,8.1122,7.9522,7.7765,7.6125,7.4642,7.3821,7.308,7.2495,7.2495,7.2266,7.1842,7.1178,7.1653,7.2363,7.1692,7.2434,0.0,7.352,7.3635,7.3791,7.3986,7.4025,7.4064,7.422,7.4142,7.4064,7.422,7.4142,7.4025,7.4025,7.3869,7.3713,7.3555,7.1071,6.905,6.8698,6.8815,6.8854,6.8698,6.8817,6.8389,6.7021,6.7959,6.7846,6.5779,6.4998,6.4296,6.3594,6.1094,5.9568,5.9352,5.8647,5.847,5.8913,5.9108,5.9691,6.0703,6.0898,6.1515,6.2478,6.1391,6.1301,0.0,0.0,0.0,0.0,0.0,0.0,0.0,0.0,0.0,0.0,0.0,5.0778,5.4986,0.0,6.5888,7.1405,7.5929,7.9643,8.225,8.2607,8.2502,8.2323,8.2292,8.2292,8.2292,8.2292,8.2292,8.2292,8.2292,8.2292,8.2292,8.2292,8.2292,8.2292,8.2292,8.2292,8.2292,8.2292,8.2292,8.2292,8.2292,8.2292,8.2292,8.2292,8.2292,8.2292,8.2292,8.2292,8.2292,8.2292,8.1278,7.96,7.8741,7.7335,7.5735,7.5345,7.4915,7.4564,7.4564,7.3978,7.3236,7.3236,7.3275,7.3274,7.3275,7.3822,7.4486,7.4486,7.4486,7.4603,7.5032,7.4837,7.4603,7.5034,7.4837,7.4603,7.5073,7.4798,7.4642,7.5073,7.4798,7.4486,7.4486,7.3091,7.1965,7.1965,7.1965,7.1965,7.1965,7.197,7.1661,7.084,7.1118,7.0654,6.8938,6.722,6.5848,6.4856,6.3175,6.2173,6.205,6.119,6.1133,6.1982,6.1562,6.1804,6.271,6.2712,6.2883,6.3255,6.4215,6.4232,0.0,0.0,0.0,0.0,0.0,0.0,0.0,4.5469,4.7096,5.1586,5.4968,5.8441,6.2783,6.7408,7.2012,7.6539,7.8821,8.0971,8.3587,8.2927,8.2188,8.2187,8.2169,8.2169,8.2169,8.2169,8.2169,8.2169,8.2169,8.2169,8.2169,8.2169,8.2169,8.2169,8.2169,8.2216,8.2232,8.2232,8.2278,8.2292,8.2292,8.2292,8.2292,8.2292,8.2292,8.2292,8.2292,8.2292,8.2292,8.2137,8.1239,7.9951,7.9756,7.8858,7.7531,7.7023,7.675,7.6594,7.6594,7.5696,7.4603,7.5307,7.4759,7.39,7.4564,7.4876,7.4993,7.4993,7.4993,7.5188,7.5853,7.554,7.5188,7.5893,7.5501,7.5188,7.5893,7.5501,7.5227,7.5932,7.5501,7.4993,7.4993,7.4993,7.4876,7.4564,7.4486,7.4486,7.4486,7.4534,7.4579,7.4579,7.3915,7.3054,7.1991,6.9374,6.7283,6.6078,6.5173,6.4649,6.4503,6.3687,6.3652,6.4545,6.386,6.3962,6.488,6.4886,6.4832,6.4752,6.6191,6.5972,3.6814,3.6311,3.8219,4.2045,4.4271,4.8017,0.0,5.873,5.9545,6.4629,6.7054,6.8958,7.1051,7.3747,7.6596,7.9495,8.1995,8.3426,8.3082,8.3519,8.333,8.1947,8.1761,8.1761,8.1761,8.1761,8.1761,8.1761,8.1761,8.1761,8.1761,8.1761,8.1761,8.1761,8.1761,8.184,8.2047,8.2011,8.2102,8.2292,8.2292,8.2292,8.2292,8.2292,8.2292,8.2292,8.2292,8.2292,8.2253,8.1474,8.1046,8.0771,7.999,7.96,7.9131,7.679,7.5463,7.4798,7.4798,7.4642,7.4525,7.4603,7.5032,7.5541,7.5619,7.6203,7.6828,7.6828,7.6828,7.6828,7.6945,7.6867,7.6828,7.6945,7.6867,7.6828,7.6945,7.6867,7.6828,7.6945,7.6867,7.6828,7.6828,7.6828,7.6281,7.472,7.4486,7.4486,7.4486,7.4526,7.4528,7.4528,7.431,7.3442,7.1633,7.1183,7.0256,6.8605,6.7661,6.7171,6.7092,6.626,6.6143,6.6896,6.6819,6.7211,6.8105,6.8105,6.8094,6.8071,6.832,6.7595,4.1938,4.2117,4.3773,4.9577,5.2652,5.5994,6.2771,6.4351,6.5739,7.0398,7.2677,7.4494,7.6593,7.8646,8.0329,8.1303,8.2305,8.3017,8.3119,8.2631,8.1603,7.9905,8.0123,8.0744,8.1631,8.1698,8.1698,8.1698,8.1631,8.1573,8.1573,8.1573,8.1573,8.1573,8.164,8.1735,8.1816,8.1816,8.189,8.1951,8.1951,8.1682,8.1176,8.1176,8.1176,8.1176,8.1176,8.1487,8.1873,8.102,8.0348,7.9746,7.891,7.8244,7.778,7.8004,7.7531,7.6751,7.6751,7.6127,7.5346,7.5852,7.593,7.5893,7.64,7.6828,7.7101,7.7101,7.7101,7.7053,7.6967,7.6912,7.6912,7.6912,7.6912,7.6967,7.7053,7.7028,7.6912,7.6912,7.6863,7.6813,7.6813,7.6813,7.6579,7.5836,7.578,7.5859,7.5859,7.5764,7.5719,7.5719,7.5234,7.4546,7.3751,7.3215,7.2595,7.1741,7.0922,7.0408,7.0222,6.893,6.8631,6.9424,6.8499,6.844,6.9364,6.8862,6.8592,6.8592,6.9162,6.9314,4.4491,4.6238,4.875,5.5841,6.0356,6.4053,6.7812,6.9672,7.1576,7.4852,7.6731,7.8274,7.9963,8.1253,8.2084,8.2172,8.2135,8.2331,8.291,8.1325,7.9577,7.8133,7.7856,7.8369,7.9929,8.07,8.1197,8.143,8.1344,8.132,8.132,8.132,8.132,8.132,8.1401,8.1458,8.1524,8.1529,8.1556,8.1616,8.1616,8.1306,8.0689,8.0689,8.0689,8.065,8.0422,8.0806,8.1539,8.0689,8.0049,7.9582,7.8777,7.803,7.7608,7.8971,7.8821,7.7896,7.7896,7.7077,7.61,7.6763,7.6529,7.6139,7.6763,7.6958,7.6958,7.6958,7.6958,7.6941,7.6774,7.6748,7.6748,7.6748,7.6748,7.6777,7.6941,7.6855,7.6748,7.6748,7.6661,7.6613,7.6613,7.6613,7.6613,7.6613,7.6642,7.6664,7.6745,7.6653,7.6596,7.6541,7.5944,7.545,7.5157,7.456,7.4022,7.3656,7.3115,7.2726,7.2566,7.1398,7.1034,7.1665,7.051,7.0221,7.0889,7.0272,6.9964,6.9964,7.0599,7.1229,4.2273,4.6475,5.151,5.9076,6.6028,7.1719,7.4337,7.6753,7.8714,7.9546,8.0379,8.0915,8.0813,8.0885,8.1179,8.1977,8.1987,8.1952,8.2096,7.9842,7.7901,7.7111,7.4865,7.4075,7.5794,7.8166,7.9922,8.0758,8.0835,8.0826,8.0826,8.0826,8.0826,8.0826,8.0835,8.0922,8.1119,8.1126,8.1221,8.1425,8.1425,8.1386,8.1386,8.1386,8.1386,8.1309,8.0466,8.0583,8.1348,8.0466,8.0583,8.1231,8.0389,8.0006,7.989,7.9174,7.7957,7.6631,7.6631,7.6631,7.6592,7.6592,7.6592,7.6592,7.6592,7.6631,7.6631,7.6631,7.6631,7.6592,7.6622,7.6622,7.6622,7.6622,7.6622,7.6622,7.6592,7.6626,7.6622,7.6622,7.6618,7.6613,7.6613,7.6613,7.6613,7.6613,7.6452,7.6394,7.66,7.6618,7.6541,7.6322,7.6293,7.5843,7.4795,7.469,7.4336,7.356,7.3483,7.3476,7.3469,7.3392,7.3392,7.343,7.3353,7.336,7.3399,7.336,7.336,7.336,7.3443,7.3516,4.8952,5.3919,5.9061,6.7288,7.1896,7.5181,7.8279,7.9603,8.0115,7.983,7.8206,7.6462,7.5211,7.4632,7.4767,7.5937,7.758,7.9084,8.0107,7.9945,7.8194,7.3967,7.4227,7.4074,7.239,7.5146,7.7856,7.9804,7.9897,8.0093,8.062,8.0667,8.0667,8.0667,8.0758,8.0813,8.0898,8.0898,8.0915,8.0984,7.9875,7.9336,7.9336,7.8758,7.8797,7.9336,7.9035,7.9682,8.083,7.8842,7.8505,7.9069,7.7704,7.7158,7.7083,7.6864,7.6444,7.6115,7.6963,7.6929,7.6486,7.6486,7.6548,7.6613,7.6613,7.6613,7.6613,7.6613,7.6613,7.6587,7.6447,7.6405,7.6405,7.6405,7.6405,7.6447,7.6587,7.6512,7.6405,7.6405,7.6276,7.6192,7.6192,7.6192,7.6192,7.6192,7.6267,7.6297,7.6205,7.6192,7.6199,7.61,7.6093,7.5936,7.5599,7.5553,7.5438,7.5168,7.4623,7.4315,7.4315,7.3776,7.3507,7.3507,7.3507,7.3507,7.3507,7.3507,7.3507,7.3507,7.3535,7.3819,5.5064,6.0525,6.5384,7.3234,7.6463,7.8222,8.0386,8.0616,7.9917,7.8166,7.5173,7.2083,6.965,6.8426,6.8326,7.0065,7.2042,7.4434,7.7523,7.7129,7.5532,7.2911,7.2987,7.2605,7.103,7.3248,7.5964,7.8743,7.9189,7.9727,8.0522,8.056,8.056,8.056,8.0661,8.0697,8.0697,8.0697,8.0543,8.0237,7.9471,7.8935,7.8628,7.8092,7.8131,7.8628,7.8016,7.8514,7.9663,7.7709,7.7369,7.7929,7.6573,7.6021,7.5978,7.5731,7.5641,7.5753,7.6616,7.6582,7.6148,7.6148,7.6216,7.6289,7.6289,7.63,7.6356,7.6356,7.6372,7.6356,7.623,7.6186,7.6186,7.6186,7.6186,7.623,7.6356,7.6264,7.6186,7.6186,7.6072,7.6015,7.6015,7.6245,7.6361,7.6053,7.6376,7.65,7.6082,7.6015,7.6015,7.6015,7.6015,7.6015,7.6015,7.6015,7.6015,7.6015,7.5476,7.5168,7.5168,7.4661,7.4392,7.4392,7.4392,7.4392,7.4392,7.4392,7.4392,7.4392,7.4392,7.4661,6.0475,6.6139,7.0354,7.6821,7.9654,8.0855,8.0694,7.991,7.8245,7.4744,7.1252,6.7748,6.4159,6.2341,6.2261,6.4779,6.6185,6.9013,7.486,7.2299,7.0877,7.3896,7.1489,7.0151,7.1688,7.2605,7.4469,7.7746,7.8757,7.9598,8.043,8.0506,8.0506,8.0506,8.0506,8.0506,8.0506,8.0506,8.0133,7.9369,8.0095,8.0018,7.9216,7.9216,7.9216,7.9063,7.7411,7.7182,7.7946,7.7029,7.7182,7.7908,7.7029,7.6685,7.6609,7.5853,7.5548,7.5535,7.5666,7.5684,7.5684,7.5684,7.5692,7.5692,7.5692,7.5786,7.5879,7.5887,7.5948,7.6007,7.6015,7.6015,7.6015,7.6053,7.6053,7.6092,7.613,7.613,7.613,7.613,7.613,7.613,7.6207,7.6861,7.7138,7.6322,7.6899,7.7092,7.613,7.6015,7.6015,7.6015,7.6015,7.6015,7.6015,7.6015,7.6015,7.6015,7.6015,7.6015,7.6015,7.6015,7.6015,7.6015,7.6015,7.6015,7.6015,7.6015,7.6015,7.6015,7.6015,7.6015,6.785,7.3014,7.6309,7.9271,8.0361,8.0331,7.9088,7.7211,7.4377,6.9689,6.4106,5.8763,5.46,5.5253,5.7764,6.1917,6.7117,7.2448,7.76,7.7917,7.6991,7.5356,7.4927,7.4469,7.3628,7.4363,7.5739,7.7831,7.8213,7.8978,8.043,8.0506,8.0506,8.0506,8.0506,8.0506,8.0506,8.0506,8.0391,8.021,7.9789,7.9178,7.8328,7.8328,7.7984,7.7335,7.6876,7.7182,7.7908,7.6418,7.6685,7.7908,7.7029,7.6685,7.6685,7.6456,7.6006,7.5518,7.5523,7.5583,7.5633,7.5633,7.5644,7.5692,7.5692,7.5708,7.5779,7.5872,7.5902,7.5933,7.6,7.6015,7.6169,7.6823,7.6984,7.713,7.7715,7.7869,7.7869,7.7869,7.7869,7.8054,7.8707,7.9015,7.9092,7.8854,7.9015,7.84,7.6284,7.6015,7.6015,7.6015,7.6015,7.6015,7.6015,7.6015,7.6015,7.6015,7.6015,7.6015,7.6015,7.6015,7.6015,7.6015,7.6015,7.6015,7.6015,7.6015,7.6015,7.6015,7.6015,7.6015,7.3598,7.7479,7.9524,8.0789,8.031,7.8653,7.5434,7.2786,6.8969,6.1632,5.6249,5.1863,4.87,4.9447,5.2576,5.8959,6.4185,6.9682,7.613,7.7144,7.7067,7.6656,7.6647,7.6341,7.5386,7.6074,7.7144,7.8481,7.8557,7.913,8.043,8.0506,8.0506,8.0506,8.0506,8.0506,8.0506,8.0506,8.0315,7.998,7.9866,7.9407,7.8557,7.8557,7.829,7.7831,7.7449,7.7564,7.7946,7.6991,7.7144,7.7946,7.7449,7.7258,7.7258,7.7258,7.6991,7.6532,7.6159,7.6032,7.6076,7.6076,7.6378,7.6727,7.6727,7.6714,7.6832,7.7295,7.7182,7.703,7.7431,7.7285,7.7255,7.8146,7.8077,7.8123,7.9354,7.9323,7.9054,7.9054,7.8754,7.8677,7.9131,7.9554,7.9669,7.9285,7.9862,7.9708,7.79,7.7015,7.6553,7.6553,7.6245,7.6015,7.6015,7.6015,7.6015,7.6015,7.6015,7.6015,7.6015,7.6015,7.6015,7.6015,7.6015,7.6015,7.6015,7.6015,7.6015,7.6015,7.6015,7.6015,7.7726,7.9997,8.0731,8.1327,7.9615,7.6369,7.1123,6.7545,6.2579,5.276,4.8481,4.6074,4.4862,4.4824,4.7881,5.6778,6.0217,6.4764,7.3314,7.3934,7.466,7.7793,7.7602,7.7182,7.7182,7.7908,7.8634,7.9407,7.9445,7.9751,8.0468,8.0506,8.0506,8.0506,8.0506,8.0506,8.0506,8.0506,8.0171,7.9484,8.0162,8.0095,7.9292,7.9292,7.9254,7.9101,7.8328,7.8022,7.8022,7.8022,7.8061,7.8175,7.8175,7.8175,7.8175,7.8175,7.8099,7.787,7.6991,7.6838,7.6991,7.6761,7.722,7.786,7.7946,7.8038,7.8262,7.9151,7.8858,7.8505,7.9433,7.9058,7.873,7.9772,7.9443,7.9344,8.1037,8.0715,8.0146,8.0261,7.9508,7.8869,7.8984,7.9631,7.9862,7.9138,8.0285,8.1016,8.04,7.8631,7.7445,7.7445,7.6669,7.6169,7.6169,7.6284,7.6322,7.6322,7.6245,7.6169,7.6169,7.6053,7.6015,7.6015,7.6015,7.6015,7.6015,7.6015,7.6015,7.6015,7.6015,7.6015,7.9207,8.041,8.0381,7.9866,7.7811,7.4457,6.8661,6.2662,5.6097,4.8034,4.2679,3.9814,4.0955,4.2297,4.692,5.8122,6.1478,6.5864,7.4966,7.615,7.68,7.8834,7.9522,7.9856,7.9856,7.9971,8.0124,8.0277,8.0277,8.0353,8.0506,8.0506,8.0506,8.0506,8.0506,8.0506,8.0506,8.0506,8.043,8.0277,8.043,8.0095,7.9292,7.9292,7.891,7.8213,7.8061,7.8022,7.8022,7.8022,7.8404,7.9063,7.9063,7.9063,7.9063,7.9063,7.8634,7.787,7.6991,7.7649,7.8605,7.7182,7.68,7.7067,7.7793,7.7993,7.8211,7.9133,7.8785,7.8505,8.0145,7.9932,7.9672,8.1223,8.15,8.1653,8.2715,8.2314,8.198,8.2671,8.1622,8.0862,8.1516,8.1785,8.1823,8.167,8.19,8.2285,8.287,8.0215,7.8292,7.8292,7.7561,7.7053,7.7053,7.7676,7.8061,7.8061,7.7445,7.7053,7.7053,7.6361,7.6015,7.6015,7.6015,7.6015,7.6015,7.6015,7.6015,7.6015,7.6015,7.6015,7.9445,8.0162,8.0315,7.9484,7.6388,7.1382,6.3274,5.6899,5.0174,4.1232,3.7487,3.6417,3.8553,4.0692,4.5125,5.4333,5.7963,6.2395,7.0381,7.3017,7.5233,7.8252,7.9742,8.0506,8.0506,8.0506,8.0506,8.0506,8.0506,8.0506,8.0506,8.0506,8.0506,8.0506,8.0506,8.0506,8.0506,8.0506,8.0506,8.0506,8.0506,8.0315,7.9942,7.9942,7.9704,7.9283,7.9283,7.9283,7.9283,7.9283,7.9551,7.9942,7.9942,7.9942,7.9942,7.9942,7.9665,7.9169,7.8328,7.8605,7.914,7.8337,7.8328,7.8748,7.9169,7.9283,7.9598,8.0906,8.0685,8.0427,8.2156,8.1983,8.1647,8.2918,8.3624,8.3984,8.4037,8.3389,8.297,8.3404,8.2215,8.1208,8.1593,8.167,8.167,8.167,8.2016,8.2439,8.2862,8.1139,7.9862,7.9862,7.8715,7.7907,7.7907,7.8292,7.8484,7.8484,7.8138,7.7753,7.733,7.6899,7.6476,7.6015,7.6015,7.6015,7.6015,7.6015,7.6015,7.6015,7.6015,7.6015,7.9101,7.9904,8.02,7.9025,7.4936,6.8555,5.8619,5.2008,4.5359,3.592,3.3551,3.4124,3.7143,3.8901,4.2412,5.0086,5.3072,5.7122,6.4802,6.8776,7.2529,7.6953,7.9245,8.0506,8.0506,8.0506,8.0506,8.0506,8.0506,8.0506,8.0506,8.0506,8.0506,8.0506,8.0506,8.0506,8.0506,8.0506,8.0506,8.0506,8.0506,8.0506,8.0506,8.0506,8.0506,8.0506,8.0506,8.0506,8.0506,8.0506,8.0506,8.0506,8.0506,8.0506,8.0506,8.0506,8.0506,8.0391,7.9789,7.956,7.956,7.956,7.998,8.0544,8.0735,8.0888,8.1347,8.2846,8.2684,8.2455,8.4136,8.3907,8.3515,8.4423,8.5197,8.554,8.4778,8.3977,8.3329,8.3259,8.2107,8.1093,8.1093,8.1093,8.1093,8.1093,8.1631,8.2093,8.2285,8.1593,8.117,8.1323,7.9823,7.8792,7.8792,7.8946,7.9061,7.9061,7.8869,7.8477,7.7861,7.7676,7.7138,7.6284,7.6284,7.6207,7.6015,7.6207,7.6284,7.6284,7.6284,7.6361,7.8452,7.9904,7.9933,7.7526,7.3132,6.698,5.765,4.978,4.2483,3.5462,3.2176,3.2023,3.6838,3.6035,3.8137,4.8716,4.8754,5.1123,6.1738,6.6139,7.0121,7.5127,7.8566,8.0506,8.0506,8.0506,8.0506,8.0506,8.0506,8.0506,8.0506,8.0506,8.0506,8.0506,8.0506,8.0506,8.0506,8.0506,8.0506,8.0506,8.0506,8.0506,8.0506,8.0506,8.0506,8.0506,8.0506,8.0506,8.0506,8.0506,8.0506,8.0506,8.0506,8.0506,8.0506,8.0506,8.0506,8.0506,8.043,8.0391,8.0391,8.0391,8.043,8.0659,8.1423,8.2187,8.2961,8.3916,8.3572,8.3267,8.4938,8.4785,8.4413,8.5215,8.5455,8.5312,8.4519,8.379,8.3063,8.2305,8.1596,8.1093,8.1093,8.1093,8.1093,8.1093,8.117,8.1477,8.2208,8.1593,8.1362,8.2093,8.0669,7.9669,7.9669,8.04,8.0862,8.0862,8.0131,7.9662,7.9592,7.8823,7.8023,7.7215,7.7176,7.6784,7.6015,7.6784,7.7176,7.7176,7.7176,7.7561,7.4095,7.7573,7.9665,7.6074,7.103,6.4496,5.5205,4.7221,4.0148,3.4384,3.1599,3.1106,3.4155,3.4312,3.592,4.1762,4.2751,4.6074,5.5517,5.9307,6.4313,7.2987,7.6044,7.8299,8.0315,8.0506,8.0506,8.0506,8.0506,8.0506,8.0506,8.0506,8.0506,8.0506,8.0506,8.0506,8.0506,8.0506,8.0506,8.0506,8.0506,8.0506,8.0506,8.0506,8.0506,8.0506,8.0506,8.0506,8.0506,8.0506,8.0506,8.0506,8.0506,8.0506,8.0506,8.0506,8.0506,8.0582,8.1117,8.127,8.1347,8.1853,8.235,8.2646,8.1996,8.234,8.319,8.4069,8.4069,8.4059,8.5206,8.5282,8.5091,8.5435,8.5501,8.5445,8.5179,8.4145,8.3137,8.2845,8.2237,8.1752,8.1752,8.2215,8.2447,8.19,8.2285,8.2516,8.2324,8.2016,8.1939,8.2285,8.1285,8.0592,8.0592,8.09,8.1093,8.1093,8.0785,8.0362,7.9815,7.9477,7.89,7.8023,7.8023,7.7869,7.7522,7.7869,7.8023,7.8023,7.8023,7.8176,6.9586,7.4363,7.7564,7.4584,6.9234,6.2357,5.3601,4.554,3.8548,3.3692,3.1366,3.0643,3.205,3.3047,3.4426,3.6948,3.8777,4.2598,5.0245,5.4377,5.9651,6.7897,7.168,7.4745,7.7602,7.9474,8.0506,8.0506,8.0506,8.0506,8.0506,8.0506,8.0506,8.0506,8.0506,8.0506,8.0506,8.0506,8.0506,8.0506,8.0506,8.0506,8.0506,8.0506,8.0506,8.0506,8.0506,8.0506,8.0506,8.0506,8.0506,8.0506,8.0506,8.0506,8.0506,8.0506,8.0506,8.0659,8.1767,8.1996,8.1996,8.3028,8.3802,8.4059,8.2913,8.3104,8.3868,8.448,8.4632,8.4785,8.5358,8.5501,8.5501,8.5501,8.5501,8.5455,8.5303,8.4385,8.3503,8.3308,8.286,8.2544,8.2544,8.308,8.3245,8.2399,8.3231,8.3593,8.2439,8.2747,8.2978,8.2708,8.217,8.1631,8.1131,8.1093,8.1093,8.1093,8.1093,8.0823,8.0208,8.0169,7.9785,7.8907,7.8861,7.8754,7.8484,7.8754,7.8861,7.8861,7.8861,7.8754,6.5689,7.0465,7.3064,7.3017,6.7935,6.0936,5.3333,4.5081,3.7822,3.3578,3.1366,3.0456,3.1251,3.2126,3.354,3.6099,3.7937,4.107,4.703,5.2881,5.7275,5.9026,6.5184,6.9922,7.165,7.7067,8.0506,8.0506,8.0506,8.0506,8.0506,8.0506,8.0506,8.0506,8.0506,8.0506,8.0506,8.0506,8.0506,8.0506,8.0506,8.0506,8.0506,8.0506,8.0506,8.0506,8.0506,8.0506,8.0506,8.0506,8.0506,8.0506,8.0506,8.0506,8.0506,8.0506,8.0506,8.0735,8.2426,8.2455,8.2073,8.3754,8.4289,8.4289,8.4289,8.4824,8.5473,8.5463,8.5501,8.5501,8.5501,8.5501,8.5501,8.5501,8.5501,8.5282,8.448,8.4328,8.4136,8.3379,8.3261,8.3285,8.3285,8.3363,8.3146,8.2339,8.372,8.4247,8.2516,8.3824,8.4555,8.3678,8.3563,8.2909,8.1246,8.1093,8.1093,8.1093,8.1093,8.1093,8.1093,8.1093,8.0669,7.9815,7.9777,7.9361,7.8484,7.9361,7.9777,7.9777,7.9777,7.9323,5.483,5.9606,6.2815,5.9911,5.6702,5.2614,4.6156,4.084,3.6256,3.2627,3.0987,3.0643,3.2012,3.2504,3.4113,3.8391,3.9045,4.1266,4.7767,5.227,5.7237,6.3534,7.1756,7.7144,7.764,7.9398,8.0506,8.0506,8.0506,8.0506,8.0506,8.0506,8.0506,8.0506,8.0506,8.0506,8.0506,8.0506,8.0506,8.0506,8.0506,8.0506,8.0506,8.0506,8.0506,8.0506,8.0506,8.0506,8.0506,8.0506,8.0506,8.0506,8.0506,8.0506,8.0582,8.1156,8.1385,8.1614,8.3295,8.3715,8.3677,8.4785,8.5129,8.5129,8.5129,8.532,8.5501,8.5501,8.5501,8.5501,8.5501,8.5501,8.5501,8.5501,8.5501,8.5578,8.5922,8.5111,8.4414,8.4719,8.4375,8.4067,8.4067,8.5098,8.566,8.4778,8.6147,8.6883,8.58,8.6108,8.6172,8.5393,8.4824,8.3785,8.2054,8.19,8.19,8.19,8.14,8.1362,8.19,8.14,8.0977,8.0708,8.0708,8.0823,8.1093,8.0823,8.0708,8.0708,8.0708,8.0554,4.7188,5.1811,5.4906,5.3225,5.0818,4.757,4.2646,3.8438,3.4804,3.2057,3.08,3.0605,3.1973,3.247,3.396,3.7746,3.8434,4.0425,4.5932,5.013,5.5938,6.4726,7.252,7.7411,7.8061,7.9551,8.0506,8.0506,8.0506,8.0506,8.0506,8.0506,8.0506,8.0506,8.0506,8.0506,8.0506,8.0506,8.0506,8.0506,8.0506,8.0506,8.0506,8.0506,8.0506,8.0506,8.0506,8.0506,0.0,8.0506,8.0506,8.0506,8.0506,8.0506,8.0621,8.1499,8.1576,8.1614,8.3601,8.3907,8.3601,8.5015,8.5501,8.5501,8.5501,8.5501,8.5501,8.5501,8.5501,8.5501,8.5501,8.5501,8.5501,8.5501,8.5731,8.6151,8.6686,8.6237,8.5893,8.639,8.6096,8.58,8.58,8.6758,8.7207,8.6364,8.7705,8.846,8.7323,8.7763,8.7914,8.7162,8.6632,8.5632,8.3862,8.3131,8.2939,8.3247,8.2208,8.2054,8.3247,8.217,8.1708,8.2054,8.2054,8.2285,8.2785,8.1939,8.1554,8.1554,8.1246,8.1246,0.0,4.6047,4.8454,5.0633,4.8372,4.4743,4.1461,3.7181,0.0,3.1752,3.0758,3.0494,3.1404,3.2203,3.3349,3.5263,3.6833,3.8973,4.2412,4.7685,5.4486,6.3396,6.9128,7.2834,7.4163,7.8061,8.0506,8.0506,8.0506,8.0497,8.0468,8.0497,8.0497,8.043,8.0497,8.0506,8.0506,8.0506,8.0506,8.0506,8.0506,8.0506,8.0506,8.0506,8.0506,8.0506,8.0506,8.0506,8.0506,8.0506,8.0506,8.0506,8.0506,8.0544,8.0697,8.1499,8.1308,8.1003,8.3372,8.3219,8.2378,8.4671,8.5463,8.5501,8.5435,8.5463,8.5501,8.5501,8.5501,8.5501,8.5501,8.5501,8.5511,8.5578,8.6189,8.6839,8.6953,8.7536,8.8033,8.8148,8.8071,8.8033,8.8071,8.819,8.7982,8.7178,8.8577,8.9141,8.7659,8.8877,8.9613,8.8863,8.8718,8.8017,8.6324,8.4709,8.4132,8.4931,8.3362,8.3208,8.5016,8.3362,8.2785,8.3678,8.3678,8.3678,8.3601,8.2793,8.2401,8.2362,8.1516,8.1516,3.2978,0.0,3.6409,3.5691,3.6226,3.6226,0.0,3.2936,3.2512,3.0835,3.0341,3.0838,3.2978,3.3009,3.4113,3.8395,3.8854,3.9885,4.3247,5.3066,6.1707,6.6453,7.379,7.7564,7.5395,7.8404,8.0506,8.0506,8.0506,8.0335,7.9916,8.0296,8.0325,7.9916,8.0306,8.0506,8.0506,8.0506,8.0506,8.0506,8.0506,8.0506,8.0506,8.0506,8.0506,8.0506,8.0506,8.0506,8.0506,8.0506,8.0506,8.0506,8.0506,8.0926,8.1538,8.1729,8.2073,8.2502,8.3114,8.3496,8.3792,8.4403,8.5015,8.5397,8.4785,8.5015,8.5501,8.5501,8.5501,8.5501,8.5501,8.5501,8.5654,8.6342,8.6648,8.7144,8.8443,8.787,8.7488,8.8759,8.7995,8.7307,8.7995,8.8627,8.8981,8.8752,8.9722,9.0329,9.0091,9.0444,9.0449,8.9692,8.9056,8.8256,8.7171,8.6132,8.5593,8.5824,8.4209,8.4362,8.6709,8.4555,8.3708,8.4593,8.4593,8.4286,8.3601,8.3409,8.3293,8.3255,8.1785,8.1516,2.9039,3.0563,3.213,3.1984,3.2978,3.3513,3.1752,3.1748,3.1786,3.0456,3.0188,3.0876,3.3012,3.3352,3.446,3.7971,4.0115,4.3133,4.8481,5.6962,6.4221,6.8531,7.4308,7.7799,7.7446,7.9295,8.0315,7.9805,7.9999,7.9916,7.9369,7.9826,7.9999,7.9708,7.9979,8.0238,8.0506,8.0248,8.0248,8.0506,8.0238,8.0248,8.0506,8.0506,8.0506,8.0506,8.0506,8.0506,8.0506,8.0506,8.0506,8.0506,8.0506,8.0773,8.1232,8.1652,8.1805,8.1967,8.2732,8.3305,8.3687,8.3687,8.425,8.4862,8.4441,8.4862,8.5501,8.5501,8.5501,8.5501,8.5501,8.5501,8.5731,8.6571,8.7106,8.7766,8.9027,8.8902,8.8825,8.9704,8.9169,8.8672,8.9179,8.96,8.9895,8.9895,9.0329,9.0699,9.0886,9.0915,9.0856,9.0538,9.0094,8.9325,8.8094,8.7555,8.7286,8.7286,8.567,8.5901,8.844,8.6478,8.5555,8.6055,8.644,8.5632,8.3601,8.4371,8.4555,8.417,8.3285,8.3478,2.8233,2.9956,3.2095,3.3016,3.3513,3.3547,3.2546,3.1977,3.1484,3.072,3.0567,3.1217,3.3272,3.4273,3.5496,3.767,4.2135,4.787,5.5129,6.0182,6.4891,6.966,7.323,7.6227,7.8723,7.971,7.9827,7.8977,7.9403,7.946,7.8928,7.9415,7.9665,7.9561,7.9665,7.982,8.0057,7.9718,7.9864,8.0373,7.9927,7.9979,8.0506,8.0506,8.0506,8.0506,8.0506,8.044,8.0383,8.0478,8.043,8.0383,8.0487,8.0582,8.0773,8.1385,8.1232,8.0888,8.2311,8.2808,8.2846,8.2961,8.3611,8.4289,8.4289,8.4938,8.5692,8.5692,8.5578,8.5501,8.5501,8.5578,8.5922,8.68,8.7651,8.8492,8.9332,8.9971,9.043,9.0583,9.0506,9.043,9.0583,9.0583,9.0583,9.0583,9.0604,9.0687,9.0886,9.0925,9.1001,9.1183,9.1095,9.0364,8.8833,8.8564,8.8487,8.8487,8.6978,8.7124,8.9432,8.8286,8.7594,8.7594,8.8333,8.7256,8.4371,8.567,8.6017,8.5478,8.5201,8.594,2.965,3.1679,3.2978,3.0331,3.1286,3.247,3.0949,3.1595,3.247,3.2355,3.2317,3.3501,3.7326,3.8132,3.9699,4.4241,4.8602,5.3378,5.8848,6.3924,6.762,6.9188,7.3868,7.6545,7.5546,7.7507,7.8826,7.8902,7.9403,7.946,7.8928,7.9415,7.9483,7.9025,7.946,7.9176,7.8139,7.8723,7.93,7.9805,7.9741,7.9979,8.0506,8.0506,8.0506,8.0506,8.0506,8.0228,7.9874,8.0325,8.0219,7.9885,8.0335,8.0964,8.1538,8.0926,8.1079,8.1652,8.1881,8.1996,8.2111,8.277,8.3611,8.4289,8.4289,8.5397,8.6609,8.6609,8.6074,8.5501,8.5501,8.6036,8.68,8.7689,8.853,8.937,9.0201,8.9944,8.9704,9.0468,9.0009,8.9742,9.0468,9.0583,9.0583,9.0583,9.0666,9.0729,9.0896,9.0944,9.1046,9.1192,9.0547,8.971,8.8795,8.8017,8.7594,8.7594,8.6671,8.6594,8.7748,8.8248,8.8487,8.8487,8.8641,8.8449,8.791,8.744,8.7517,8.8064,8.6594,8.644,2.9532,3.1366,3.3238,3.3043,3.4571,3.5797,3.4541,3.4846,3.5148,3.4227,3.4418,3.5602,3.8472,4.0497,4.4393,5.2652,5.5802,5.8873,6.3786,6.6045,6.8252,7.1131,7.3487,7.5137,7.5815,7.7617,7.8339,7.7473,7.8299,7.8575,7.8035,7.8561,7.8703,7.8495,7.869,7.8553,7.7935,7.7987,7.8401,7.9037,7.8909,7.9277,8.004,7.9773,7.9654,7.9654,7.9654,7.9494,7.9323,7.9836,7.9927,7.9751,8.0268,8.0735,8.1041,8.0659,8.0735,8.1156,8.1652,8.1499,8.1232,8.2073,8.2923,8.3611,8.3611,8.4785,8.6189,8.6686,8.6495,8.6189,8.6189,8.6495,8.703,8.788,8.8721,8.9551,9.0392,9.0277,9.0124,9.0506,9.0277,9.0124,9.0544,9.0583,9.0583,9.0583,9.0624,9.0658,9.0769,9.0877,9.0981,9.1082,9.079,9.0248,8.944,8.8594,8.7902,8.744,8.7478,8.7863,8.8709,8.9133,8.9363,8.9363,8.9825,8.9363,8.7987,8.8517,8.8748,8.8679,8.8325,8.8632,2.9643,3.1362,3.3769,3.5717,3.7593,3.9088,3.9398,3.9474,3.924,3.8319,3.8697,3.9652,4.1337,4.4852,5.0353,5.9001,6.1766,6.4301,6.8515,6.8686,6.9771,7.3556,7.3635,7.4256,7.6584,7.7789,7.7755,7.6118,7.712,7.7658,7.7252,7.7601,7.7891,7.8077,7.8077,7.7947,7.7621,7.7421,7.7654,7.8414,7.8223,7.8612,7.9494,7.9073,7.8903,7.8903,7.8903,7.8829,7.8754,7.9426,7.9643,7.9561,8.0228,8.0506,8.0506,8.0506,8.0506,8.0573,8.1117,8.0859,8.0478,8.1546,8.2318,8.291,8.3429,8.4632,8.5998,8.6839,8.6953,8.68,8.68,8.6953,8.7269,8.7918,8.8874,8.9791,9.0468,9.0583,9.0583,9.0583,9.0583,9.0583,9.0583,9.0583,9.0583,9.0583,9.0583,9.0624,9.0699,9.0779,9.0887,9.1009,9.1091,9.0722,8.9701,8.8863,8.8017,8.7132,8.7709,8.844,8.9278,8.9316,8.9509,8.9893,9.0547,9.0056,8.8286,8.9594,8.9902,8.9295,8.994,9.0547,3.1102,3.3123,3.5072,3.5263,3.7173,4.0005,4.3869,4.4748,4.5168,4.6609,4.6948,4.7488,4.9169,5.4174,5.8529,6.0148,6.5016,6.9554,7.2253,7.3204,7.4188,7.5628,7.5347,7.5401,7.644,7.6838,7.6692,7.5817,7.6489,7.6949,7.6945,7.6986,7.7347,7.809,7.8077,7.749,7.6242,7.6952,7.7592,7.814,7.8132,7.8416,7.8952,7.8915,7.8903,7.8903,7.8903,7.8614,7.8241,7.9277,7.9403,7.9049,8.0081,8.0506,8.0506,8.0506,8.0506,8.0459,8.0013,7.9827,8.0017,8.1669,8.22,8.263,8.4704,8.596,8.6877,8.7766,8.7422,8.68,8.68,8.7384,8.8033,8.8071,8.9332,9.0506,9.0583,9.0583,9.0583,9.0583,9.0583,9.0583,9.0583,9.0583,9.0583,9.0583,9.0583,9.0624,9.0699,9.0719,9.0799,9.0962,9.1028,9.042,8.8902,8.7987,8.7132,8.6247,8.6247,8.6671,8.7555,8.7594,8.8325,8.9855,8.997,9.0316,9.0941,9.1056,9.1095,9.1018,9.1095,9.1133,3.0609,3.3662,3.7139,3.8706,4.1036,4.3334,4.4939,4.7728,4.9868,4.9442,5.1041,5.2875,5.3989,5.8192,6.2082,6.4,6.7237,7.0481,7.3365,7.3459,7.3813,7.531,7.507,7.4768,7.4772,7.53,7.5306,7.4531,7.5195,7.5674,7.5674,7.5674,7.6006,7.6818,7.6855,7.6847,7.6848,7.7142,7.7411,7.7614,7.7614,7.7875,7.8403,7.8072,7.7903,7.7903,7.7903,7.7797,7.7651,7.8403,7.8612,7.8495,7.9241,7.9719,7.9968,7.9643,7.9505,7.9483,7.925,7.918,7.9465,8.0957,8.1777,8.251,8.4246,8.532,8.6151,8.703,8.6648,8.6227,8.7345,8.7842,8.812,8.812,8.937,9.0583,9.0583,9.0583,9.0583,9.0583,9.0583,9.0583,9.0583,9.0583,9.0583,9.0583,9.0583,9.0604,9.0645,9.0669,9.0739,9.0819,9.0944,9.0565,8.9547,8.8671,8.7825,8.6978,8.6401,8.6478,8.7363,8.7401,8.794,8.9133,8.9133,8.9325,8.9633,8.9633,8.9633,8.9671,9.0171,9.0393,3.0643,3.4273,3.84,3.9623,4.3257,4.6697,4.7499,5.0136,5.2766,5.4027,5.5938,5.7345,5.739,6.0408,6.3457,6.5215,6.8202,7.1253,7.3853,7.3492,7.3432,7.4685,7.4623,7.4266,7.3632,7.436,7.4404,7.3244,7.3993,7.439,7.4169,7.439,7.4882,7.5689,7.5983,7.635,7.6922,7.7179,7.7289,7.7289,7.7289,7.748,7.7817,7.745,7.7289,7.7289,7.7289,7.7289,7.7335,7.7875,7.82,7.8403,7.8754,7.9109,7.9403,7.9025,7.8903,7.8879,7.8703,7.8639,7.8916,8.0594,8.1513,8.2282,8.4129,8.5053,8.5692,8.6533,8.6151,8.5855,8.7307,8.788,8.812,8.812,8.937,9.0583,9.0583,9.0583,9.0583,9.0583,9.0583,9.0583,9.0583,9.0583,9.0583,9.0583,9.0583,9.0583,9.0583,9.0656,9.0669,9.0709,9.0858,9.07,8.9927,8.9154,8.8333,8.744,8.6594,8.6363,8.6978,8.6978,8.7401,8.8256,8.8295,8.841,8.8718,8.8718,8.8718,8.8718,8.9248,8.9509,3.1668,3.5148,3.8663,3.7016,4.2908,4.9792,5.2276,5.2231,5.3792,6.1356,6.2204,6.1096,5.9446,6.1203,6.2923,6.2923,6.7859,7.2261,7.3925,7.3773,7.3611,7.3917,7.4263,7.4153,7.3335,7.4236,7.4049,7.2132,7.3056,7.334,7.2532,7.323,7.4074,7.4867,7.5652,7.6093,7.6093,7.6885,7.7289,7.7289,7.7289,7.7289,7.7289,7.7289,7.7289,7.7289,7.7289,7.7289,7.7335,7.786,7.8429,7.8891,7.8879,7.8891,7.8891,7.8879,7.8879,7.8804,7.8282,7.8077,7.8447,8.0665,8.1407,8.1908,8.4646,8.5501,8.5692,8.6533,8.6151,8.5692,8.6571,8.746,8.812,8.812,8.937,9.0583,9.0583,9.0583,9.0583,9.0583,9.0583,9.0583,9.0583,9.0583,9.0583,9.0583,9.0583,9.0583,9.0583,9.0583,9.0624,9.0699,9.0858,9.0682,8.9885,8.9128,8.8333,8.7478,8.6594,8.6094,8.6094,8.6094,8.6517,8.7363,8.7401,8.7825,8.8679,8.8679,8.8679,8.8679,8.8679,8.8679,3.3624,3.8213,4.3443,4.3515,4.7646,5.2658,5.6396,5.7039,5.8032,6.2082,6.3197,6.2899,6.1172,6.3419,6.5368,6.4764,6.8126,7.1053,7.1853,7.2532,7.2631,7.1837,7.2061,7.1918,7.1121,7.1861,7.1892,7.0762,7.2045,7.2496,7.1711,7.2422,7.323,7.4037,7.4294,7.4955,7.6093,7.5784,7.5894,7.6445,7.5894,7.6188,7.7289,7.7289,7.7289,7.7289,7.7289,7.7289,7.7304,7.7465,7.7846,7.8309,7.7917,7.8016,7.8295,7.7903,7.7782,7.7753,7.7599,7.754,7.7865,7.9886,8.0956,8.1795,8.3998,8.5053,8.554,8.5807,8.5692,8.555,8.5807,8.7001,8.812,8.812,8.937,9.0583,9.0583,9.0583,9.0583,9.0583,9.0583,9.0583,9.0583,9.0583,9.0583,9.0583,9.0583,9.0583,9.0583,9.0583,9.0624,9.0699,9.0838,9.0867,9.0673,8.9956,8.921,8.8372,8.7478,8.6748,8.6132,8.6094,8.6209,8.6478,8.6478,8.6594,8.6863,8.6863,8.6863,8.6901,8.7517,8.7786,3.6069,4.1036,4.65,4.7341,5.1206,5.5747,5.9293,6.1394,6.293,6.4145,6.507,6.5345,6.4305,6.5528,6.6636,6.6445,6.8661,7.0552,7.0934,7.1427,7.1638,7.1293,7.1018,7.0881,7.1027,7.1197,7.1087,7.0624,7.149,7.1821,7.1344,7.1747,7.2386,7.3193,7.3538,7.4162,7.5139,7.4992,7.5124,7.5616,7.5454,7.5858,7.6812,7.6812,7.6995,7.7289,7.7289,7.7289,7.7289,7.7289,7.748,7.7753,7.7441,7.7495,7.7739,7.7426,7.7289,7.7289,7.7289,7.7289,7.7567,7.9342,8.0434,8.1429,8.3389,8.4532,8.5249,8.5461,8.5501,8.5501,8.5501,8.6543,8.7651,8.8033,8.937,9.0583,9.0583,9.0583,9.0583,9.0583,9.0583,9.0583,9.0583,9.0583,9.0583,9.0583,9.0583,9.0583,9.0583,9.0583,9.0614,9.0676,9.0739,9.0848,9.0953,9.0287,8.9521,8.8756,8.7872,8.7017,8.6132,8.6094,8.6094,8.6094,8.6094,8.6094,8.6094,8.6094,8.6094,8.6094,8.6632,8.6863,3.8663,4.3438,4.8214,4.9371,5.411,5.9109,6.1516,6.507,6.7599,6.656,6.7247,6.7981,6.7828,6.7324,6.7171,6.7905,6.9311,7.043,7.0773,7.0512,7.0652,7.1515,7.0659,7.055,7.1945,7.1454,7.105,7.0977,7.1123,7.1197,7.1197,7.127,7.1637,7.2386,7.3156,7.3611,7.3611,7.4331,7.472,7.4793,7.5469,7.5799,7.5873,7.613,7.6592,7.7289,7.7289,7.7289,7.7289,7.7289,7.7289,7.7289,7.7289,7.7289,7.7289,7.7289,7.7289,7.7289,7.7289,7.7289,7.7506,7.8835,7.9865,8.0931,8.2755,8.3968,8.4803,8.5301,8.5471,8.5501,8.5501,8.6151,8.703,8.788,8.9332,9.0506,9.0583,9.0583,9.0583,9.0583,9.0583,9.0583,9.0583,9.0583,9.0583,9.0583,9.0583,9.0583,9.0583,9.0583,9.0583,9.0583,9.0648,9.0749,9.0886,9.0272,8.9575,8.8739,8.794,8.7094,8.6132,8.6094,8.6094,8.6094,8.6094,8.6094,8.6094,8.6094,8.6094,8.6094,8.6094,8.6094,3.9733,4.4322,4.9677,5.3187,5.8459,6.3319,6.5184,6.6789,6.7102,6.4298,6.6483,6.8508,6.7209,6.7897,6.8699,6.889,6.9234,6.9467,6.9505,6.9971,6.989,6.8741,6.8943,6.9045,6.8765,6.9155,6.9155,6.8531,6.9633,7.0367,7.0367,7.094,7.138,7.1564,7.2349,7.2753,7.2753,7.2936,7.334,7.3964,7.3487,7.3597,7.4258,7.6188,7.7142,7.7289,7.7289,7.7289,7.7289,7.7289,7.7289,7.7289,7.7289,7.7289,7.7289,7.7289,7.7289,7.7289,7.7289,7.7289,7.7433,7.8154,7.9405,8.0749,8.1594,8.3207,8.4734,8.4836,8.5169,8.5501,8.5501,8.6151,8.703,8.788,8.8874,8.978,9.043,9.0583,9.0583,9.0583,9.0583,9.0583,9.0583,9.0583,9.0583,9.0583,9.0583,9.0583,9.0583,9.0583,9.0583,9.0583,9.0648,9.0719,9.0739,9.0724,9.0115,8.8644,8.8483,8.7709,8.617,8.6094,8.6094,8.6094,8.6094,8.6094,8.6094,8.6094,8.6094,8.6094,8.6094,8.6094,4.0726,4.5201,5.0518,5.632,6.0714,6.3809,6.468,6.5834,6.6216,6.4458,6.6483,6.8384,6.7686,6.8136,6.8499,6.8333,6.8308,6.822,6.7946,6.8417,6.8403,6.7242,6.7834,6.8311,6.8274,6.8641,6.8898,6.8839,6.9265,6.9706,7.0073,7.0513,7.0734,7.0734,7.1872,7.2312,7.1931,7.2312,7.2716,7.312,7.3083,7.3487,7.4331,7.5564,7.6371,7.6738,7.6738,7.6922,7.7289,7.7289,7.7289,7.7289,7.7289,7.7289,7.7289,7.7289,7.7289,7.7289,7.7289,7.7289,7.7335,7.7644,7.8832,8.0311,8.0851,8.235,8.399,8.4545,8.4734,8.4848,8.5363,8.5655,8.6094,8.7218,8.8415,8.9551,9.0392,9.0583,9.0583,9.0583,9.0583,9.0583,9.0583,9.0583,9.0583,9.0583,9.0583,9.0583,9.0583,9.0583,9.0583,9.0583,9.0635,9.0679,9.0779,9.0887,9.0453,8.9247,8.8876,8.8102,8.6786,8.6324,8.6094,8.6094,8.6094,8.6094,8.6094,8.6094,8.6094,8.6094,8.6094,8.6094,4.0654,4.5741,5.1435,5.8428,6.144,6.2732,6.2884,6.3962,6.507,6.5337,6.6636,6.7801,6.8211,6.7944,6.7586,6.7238,6.6983,6.6787,6.6543,6.6653,6.6642,6.6321,6.688,6.754,6.8187,6.8261,6.8568,6.9229,6.8641,6.8641,6.9449,6.9596,6.9683,6.9683,7.1248,7.1762,7.1087,7.1762,7.2165,7.2312,7.2973,7.3634,7.428,7.4426,7.5102,7.6093,7.6093,7.6555,7.7289,7.7289,7.7289,7.7289,7.7289,7.7289,7.7289,7.7289,7.7289,7.7289,7.7289,7.7289,7.7289,7.7289,7.8332,7.969,8.0289,8.1547,8.3026,8.4092,8.4167,8.4104,8.4969,8.4892,8.4901,8.6316,8.7843,8.92,9.019,9.0506,9.0583,9.0583,9.0583,9.0583,9.0583,9.0583,9.0583,9.0583,9.0583,9.0583,9.0583,9.0583,9.0583,9.0583,9.0583,9.0666,9.0867,9.0896,9.0608,8.9935,8.9124,8.8295,8.744,8.6555,8.6094,8.6094,8.6094,8.6094,8.6094,8.6094,8.6094,8.6094,8.6094,8.6094,3.7602,4.5206,5.3422,5.8109,6.0516,6.1967,6.2732,6.3075,6.3648,6.5108,6.6178,6.6992,6.7405,6.7136,6.6809,6.6716,6.5823,6.5361,6.5971,6.5468,6.5136,6.5426,6.5545,6.5655,6.5765,6.5765,6.5839,6.5912,6.5839,6.6132,6.6953,6.7627,6.8031,6.8031,6.9559,7.0367,7.0257,7.0367,7.077,7.1454,7.1564,7.1674,7.1784,7.2496,7.4037,7.6093,7.6093,7.6555,7.7289,7.7289,7.7289,7.7289,7.7289,7.7289,7.7289,7.7289,7.7289,7.7289,7.7289,7.7289,7.7289,7.7289,7.7949,7.8898,7.9669,8.0873,8.2146,8.3012,8.3563,8.3937,8.4079,8.4066,8.4381,8.5761,8.6799,8.7836,8.9172,9.0048,9.0583,9.0583,9.0583,9.0583,9.0583,9.0583,9.0583,9.0583,9.0583,9.0583,9.0583,9.0583,9.0583,9.0583,9.0583,9.0635,9.0719,9.0819,9.058,8.9855,8.9089,8.8295,8.744,8.6555,8.6094,8.6094,8.6094,8.6094,8.6094,8.6094,8.6094,8.6094,8.6094,8.6094,4.0239,4.6238,5.2085,5.7689,5.9331,5.9873,6.1211,6.186,6.2395,6.3121,6.3962,6.4907,6.605,6.6078,6.5737,6.4993,6.4595,6.4467,6.4569,6.4446,6.4242,6.3919,6.4738,6.5105,6.4677,6.5044,6.5288,6.5288,6.5288,6.5435,6.5815,6.6586,6.7026,6.7026,6.8605,6.9449,6.9449,6.9853,7.0293,7.0624,7.0624,7.0624,7.066,7.1454,7.3142,7.5417,7.5417,7.6151,7.7289,7.7289,7.7289,7.7289,7.7289,7.7289,7.7289,7.7289,7.7289,7.7289,7.7289,7.7289,7.7289,7.7289,7.7876,7.8662,7.9029,7.9836,8.0821,8.1458,8.1948,8.2421,8.3064,8.3321,8.3706,8.4989,8.6277,8.7441,8.8436,8.9676,9.0583,9.0583,9.0583,9.0583,9.0583,9.0583,9.0583,9.0583,9.0583,9.0583,9.0583,9.0583,9.0583,9.0583,9.0583,9.0656,9.0789,9.0886,9.0829,9.0601,8.9385,8.8526,8.8141,8.6824,8.6094,8.6094,8.6094,8.6094,8.6094,8.6094,8.6094,8.6094,8.6094,8.6094,4.1194,4.5397,4.8951,5.5059,5.6931,5.7695,5.9383,6.037,6.1096,6.1516,6.2128,6.2955,6.4217,6.4638,6.436,6.3197,6.3435,6.3678,6.3363,6.3567,6.3539,6.2866,6.3894,6.442,6.3833,6.431,6.4664,6.4664,6.4664,6.4664,6.4664,6.5448,6.5888,6.5888,6.7467,6.8385,6.8605,6.9376,6.9706,6.9499,6.9706,6.9816,6.9816,7.083,7.2371,7.428,7.4515,7.538,7.6702,7.6922,7.6995,7.7032,7.7215,7.7289,7.7289,7.7289,7.7289,7.7289,7.7289,7.7289,7.7289,7.7289,7.7729,7.8295,7.8516,7.9029,7.9632,8.023,8.0521,8.0956,8.1997,8.2367,8.2844,8.4167,8.5632,8.7061,8.8453,8.9714,9.0583,9.0583,9.0583,9.0583,9.0583,9.0583,9.0583,9.0583,9.0583,9.0583,9.0583,9.0583,9.0583,9.0583,9.0583,9.0666,9.0819,9.0896,9.0982,9.1118,8.9624,8.8718,8.8718,8.7017,8.6094,8.6094,8.6094,8.6094,8.6094,8.6094,8.6094,8.6094,8.6094,8.6094,3.6871,4.054,4.4169,4.8531,5.2614,5.5976,5.7657,5.8651,5.9675,6.1287,6.1631,6.1698,6.1874,6.2513,6.2749,6.1853,6.24,6.2917,6.2867,6.2842,6.2866,6.2793,6.2866,6.2903,6.2866,6.2903,6.2939,6.2939,6.2939,6.2939,6.2939,6.3759,6.4213,6.4213,6.5778,6.699,6.7737,6.8568,6.8568,6.7847,6.8605,6.8972,6.9009,7.0573,7.1784,7.2679,7.3413,7.4258,7.5087,7.5836,7.6166,7.624,7.6995,7.7289,7.7289,7.7289,7.7289,7.7289,7.7289,7.7289,7.7289,7.7289,7.7326,7.7509,7.8369,7.8626,7.8825,7.9627,7.9848,8.0052,8.0887,8.1092,8.1591,8.3485,8.4589,8.6166,8.9713,9.0544,9.0583,9.0583,9.0583,9.0583,9.0583,9.0583,9.0583,9.0583,9.0583,9.0583,9.0583,9.0583,9.0583,9.0583,9.0583,9.0635,9.0709,9.0809,9.0915,9.1028,8.9542,8.8718,8.8718,8.7017,8.6094,8.6094,8.6094,8.6094,8.6094,8.6094,8.6094,8.6094,8.6094,8.6094,3.7406,3.9431,4.1648,4.6959,4.9824,5.1811,5.3454,5.6167,5.8345,5.8383,5.9488,6.0381,6.0134,6.1425,6.2149,6.1022,6.1763,6.2409,6.2059,6.2462,6.2793,6.2793,6.2793,6.2793,6.2793,6.2793,6.2793,6.2793,6.2793,6.2793,6.2793,6.3086,6.3503,6.4066,6.4653,6.5338,6.6145,6.7467,6.7737,6.6953,6.776,6.8385,6.8935,7.0036,7.0991,7.1784,7.2569,7.367,7.494,7.5763,7.6093,7.6166,7.6995,7.7289,7.7289,7.7289,7.7289,7.7289,7.7289,7.7289,7.7289,7.7289,7.7289,7.7362,7.7656,7.7766,7.7839,7.8096,7.8589,7.9213,8.0036,8.0608,8.1618,8.408,8.5446,8.6839,8.9259,9.0201,9.0583,9.0583,9.0583,9.0583,9.0583,9.0583,9.0583,9.0583,9.0583,9.0583,9.0583,9.0583,9.0583,9.0583,9.0583,9.0635,9.0699,9.0749,9.0838,9.0971,8.948,8.8611,8.8718,8.7017,8.6094,8.6094,8.6094,8.6094,8.6094,8.6094,8.6094,8.6094,8.6094,8.6094,3.6027,3.7517,3.9503,4.5114,4.6768,4.7952,5.162,5.4174,5.6014,5.6855,5.8375,5.9493,5.9269,6.0346,6.0971,6.0116,6.0839,6.1393,6.1226,6.1667,6.2095,6.2365,6.2401,6.2499,6.2756,6.2793,6.2793,6.2793,6.2793,6.2793,6.2793,6.2793,6.3209,6.4066,6.4103,6.4494,6.5288,6.6623,6.7026,6.6512,6.7333,6.7994,6.8531,6.9596,7.0403,7.094,7.2018,7.312,7.4169,7.4955,7.5432,7.5799,7.6592,7.7069,7.7289,7.7289,7.7289,7.7289,7.7289,7.7289,7.7289,7.7289,7.7289,7.7289,7.7289,7.7289,7.7289,7.7289,7.7729,7.8369,7.9176,8.0341,8.1881,8.4375,8.5758,8.6892,8.8183,8.936,9.0239,9.0544,9.0583,9.0583,9.0583,9.0583,9.0583,9.0583,9.0353,9.0277,9.0544,9.0353,9.0277,9.0583,9.0353,9.0308,9.0648,9.0153,9.0061,9.0502,8.8974,8.8114,8.8248,8.6863,8.6094,8.6094,8.6094,8.6094,8.6094,8.6094,8.6094,8.6094,8.6094,8.6094,0.0,0.0,0.0,4.2555,4.3247,4.4628,5.2117,5.2575,5.2646,5.6893,5.8408,5.9017,5.9135,5.9168,5.9181,5.915,5.9486,5.9915,6.0295,6.037,6.0676,6.1484,6.1557,6.1887,6.2683,6.2756,6.2756,6.2793,6.2793,6.2793,6.2793,6.2793,6.3196,6.4029,6.4103,6.4457,6.5215,6.6072,6.6476,6.6476,6.7297,6.77,6.7774,6.9389,7.011,7.022,7.1798,7.2496,7.2569,7.3377,7.4147,7.494,7.5799,7.6592,7.7289,7.7289,7.7289,7.7289,7.7289,7.7289,7.7289,7.7289,7.7289,7.7289,7.7289,7.7289,7.7289,7.7289,7.7289,7.7509,7.8369,8.0199,8.2282,8.4199,8.5318,8.61,8.667,8.8099,8.9523,9.0392,9.0583,9.0583,9.0583,9.0583,9.0583,9.0583,8.9857,8.96,9.043,8.978,8.9589,9.043,8.978,8.96,9.043,8.909,8.8586,8.9497,8.8093,8.726,8.7401,8.6555,8.6094,8.6094,8.6094,8.6094,8.6094,8.6094,8.6094,8.6094,8.6094,8.6094,3.4269,0.0,0.0,0.0,0.0,0.0,4.5769,4.7373,4.9289,5.4142,5.5611,5.6376,5.7589,5.8334,5.8578,5.7915,5.8707,5.9384,5.9501,6.004,6.0493,6.0713,6.075,6.1043,6.1851,6.1924,6.2181,6.2756,6.2793,6.2793,6.2793,6.2793,6.2903,6.316,6.3759,6.3906,6.349,6.5485,6.6219,6.5655,6.7026,6.7981,6.8605,6.9633,7.0403,7.1013,7.2055,7.2496,7.2569,7.3377,7.3817,7.4184,7.5542,7.624,7.6481,7.7105,7.7289,7.7289,7.7289,7.7289,7.7289,7.7289,7.7289,7.7289,7.7289,7.7289,7.7289,7.7289,7.7289,7.7509,7.8369,8.0199,8.2072,8.3036,8.4199,8.5379,8.6556,8.7651,8.8683,8.9485,9.0162,9.0583,9.0583,9.0583,9.0583,9.0583,8.9857,8.9409,8.9627,8.895,8.853,8.8759,8.8568,8.853,8.8759,8.843,8.8347,8.872,8.7777,8.726,8.7401,8.6555,8.6094,8.6094,8.6094,8.6094,8.6094,8.6094,8.6094,8.6094,8.6094,8.6094,0.0,0.0,0.0,3.8209,0.0,0.0,4.4427,4.5272,4.6577,5.2384,5.3778,5.4444,5.5981,5.6676,5.6977,5.684,5.7581,5.8263,5.8667,5.9086,5.9538,5.9857,5.9893,6.0224,6.1006,6.108,6.1447,6.2254,6.2291,6.2426,6.2793,6.2793,6.2793,6.2793,6.3282,6.3319,6.2793,6.4934,6.5778,6.5325,6.6916,6.7958,6.8421,6.9229,6.9853,7.0353,7.149,7.2004,7.2041,7.2863,7.3377,7.3817,7.5102,7.5799,7.6203,7.6995,7.7289,7.7289,7.7289,7.7289,7.7289,7.7289,7.7289,7.7289,7.7289,7.7289,7.7289,7.7289,7.7289,7.7534,7.8647,7.9941,8.1324,8.2699,8.3713,8.4708,8.598,8.6925,8.7918,8.9065,9.0009,9.0583,9.0583,9.0583,9.0583,9.0583,8.9561,8.8912,8.9256,8.8301,8.7689,8.8081,8.7766,8.7689,8.8071,8.7522,8.7351,8.7838,8.7133,8.6769,8.6855,8.6363,8.6094,8.6094,8.6094,8.6094,8.6094,8.6094,8.6094,8.6094,8.6094,8.6094,0.0,0.0,0.0,4.0563,3.9054,0.0,4.5458,4.4737,4.4437,5.0785,5.2046,5.238,5.3779,5.4223,5.456,5.5174,5.5875,5.6741,5.7828,5.8042,5.8311,5.8976,5.9086,5.938,6.0187,6.026,6.0603,6.141,6.1569,6.1961,6.2756,6.2793,6.2793,6.2793,6.2793,6.2793,6.2793,6.4444,6.5288,6.5325,6.6916,6.77,6.7737,6.8531,6.8885,6.9009,7.061,7.1307,7.1344,7.2165,7.2936,7.367,7.4536,7.5344,7.6093,7.6959,7.7289,7.7289,7.7289,7.7289,7.7289,7.7289,7.7289,7.7289,7.7289,7.7289,7.7289,7.7289,7.7289,7.7573,7.8829,7.9416,8.0258,8.261,8.3464,8.4067,8.5179,8.6159,8.7221,8.8711,8.978,9.0468,9.0583,9.0583,9.0583,9.0583,8.9179,8.8339,8.9065,8.7679,8.6953,8.7727,8.7116,8.6963,8.7727,8.6499,8.6068,8.6909,8.6375,8.6048,8.6085,8.6094,8.6094,8.6094,8.6094,8.6094,8.6094,8.6094,8.6094,8.6094,8.6094,8.6094,3.8617,3.9078,3.9618,3.8738,3.9544,0.0,4.1566,4.1762,4.287,4.6882,4.7193,4.7248,4.8865,5.0594,5.1357,5.0176,5.2341,5.5104,5.7624,5.8271,5.8432,5.8263,5.8217,5.8547,5.938,5.9416,5.9783,6.0566,6.1227,6.1961,6.2756,6.2793,6.2793,6.2793,6.2793,6.2793,6.2793,6.4444,6.5288,6.5325,6.6916,6.77,6.7737,6.8531,6.8885,6.9009,7.061,7.1307,7.1344,7.2165,7.2606,7.2899,7.4316,7.5014,7.5307,7.6775,7.7289,7.7289,7.7289,7.7289,7.7289,7.7289,7.7289,7.7289,7.7289,7.7289,7.7289,7.7289,7.7289,7.7356,7.764,7.8278,7.9241,8.08,8.2085,8.3301,8.4583,8.5865,8.6915,8.7221,8.852,8.978,9.0468,9.0583,9.0583,9.0583,8.9179,8.8158,8.8301,8.681,8.5807,8.6008,8.5855,8.5807,8.6008,8.5868,8.5874,8.6036,8.6052,8.6077,8.6094,8.6094,8.6094,8.6094,8.6094,8.6094,8.6094,8.6094,8.6094,8.6094,8.6094,8.6094,3.9076,3.9725,4.0798,3.9895,3.9969,0.0,0.0,4.054,4.0812,4.501,4.4557,4.406,4.6156,4.7096,4.7739,4.8403,5.1141,5.3733,5.5233,5.6393,5.7417,5.8219,5.7777,5.774,5.8499,5.8609,5.8939,5.9747,6.0933,6.1777,6.2181,6.2572,6.2793,6.2793,6.2793,6.2793,6.2793,6.4444,6.5288,6.5325,6.6916,6.77,6.77,6.8141,6.8311,6.8385,7.0,7.0697,7.0807,7.2018,7.2496,7.2679,7.428,7.4903,7.5087,7.6702,7.7289,7.7289,7.7289,7.7289,7.7289,7.7289,7.7289,7.7289,7.7289,7.7289,7.7289,7.7289,7.7289,7.7289,7.7289,7.7949,7.8943,8.0265,8.1429,8.2634,8.4004,8.5075,8.5866,8.6323,8.7305,8.8443,8.9742,8.9933,9.0086,9.0544,8.9179,8.812,8.812,8.6581,8.5501,8.5501,8.5501,8.5501,8.5501,8.5695,8.5815,8.5815,8.5992,8.6094,8.6094,8.6094,8.6094,8.6094,8.6094,8.6094,8.6094,8.6094,8.6094,8.6094,8.6094,8.6094,4.0187,4.111,4.2763,4.2066,4.1288,4.0898,0.0,0.0,0.0,4.3334,4.257,4.192,4.3945,4.3902,4.42,4.6348,4.9385,5.1496,5.145,5.2977,5.4895,5.6992,5.68,5.6691,5.7118,5.7675,5.8327,5.9159,6.0566,6.1447,6.1594,6.2218,6.2646,6.2793,6.2793,6.2793,6.2793,6.4297,6.5141,6.5325,6.6769,6.7554,6.77,6.77,6.77,6.7774,6.9376,7.011,7.022,7.1835,7.2496,7.2642,7.4111,7.4757,7.5087,7.6518,7.7179,7.7289,7.7289,7.7289,7.7289,7.7289,7.7289,7.7289,7.7289,7.7289,7.7289,7.7289,7.7289,7.7289,7.7289,7.7803,7.8655,7.9934,8.0782,8.1703,8.3008,8.3915,8.4685,8.5367,8.6089,8.7106,8.8797,8.9218,8.9551,9.0239,8.9218,8.8262,8.812,8.6734,8.5731,8.5731,8.5731,8.5731,8.5731,8.5906,8.6018,8.6046,8.6052,8.6154,8.6324,8.6209,8.6094,8.6094,8.6094,8.6094,8.6094,8.6094,8.6094,8.6094,8.6094,8.6094,4.5034,4.6007,4.6623,4.3589,4.4897,4.5398,3.9686,0.0,4.1724,4.0043,0.0,4.0535,4.0802,0.0,0.0,4.0263,4.385,4.6638,4.622,4.7733,4.9745,5.2125,5.4275,5.5184,5.4178,5.6459,5.8327,5.9159,6.004,6.086,6.1557,6.1704,6.2071,6.2793,6.2793,6.2793,6.2793,6.3759,6.4604,6.5288,6.6219,6.699,6.77,6.77,6.77,6.7774,6.9376,7.011,7.022,7.1835,7.2496,7.2606,7.3487,7.4258,7.5014,7.5909,7.6665,7.7289,7.7289,7.7289,7.7289,7.7289,7.7289,7.7289,7.7289,7.7289,7.7289,7.7289,7.7289,7.7289,7.7289,7.7362,7.7671,7.8609,7.9276,7.9916,8.0805,8.2385,8.3673,8.3748,8.4805,8.6199,8.7918,8.8835,8.9332,8.9447,8.9294,8.8912,8.8196,8.7269,8.6648,8.6648,8.6648,8.6648,8.6648,8.6718,8.6834,8.6927,8.6345,8.6402,8.7209,8.6517,8.6094,8.6094,8.6094,8.6094,8.6094,8.6094,8.6094,8.6094,8.6094,8.6094,4.4927,4.6032,4.705,4.6124,4.5784,4.4719,4.0917,4.0027,3.9937,3.9818,0.0,0.0,0.0,0.0,0.0,0.0,4.3366,4.5332,4.4645,4.6481,4.872,5.0968,5.1134,5.1347,5.214,5.3922,5.5097,5.5233,5.6445,5.7515,5.8301,6.0428,6.1741,6.2108,6.2572,6.2793,6.2793,6.3649,6.4494,6.5288,6.6109,6.6916,6.77,6.77,6.77,6.7774,6.9376,7.011,7.022,7.1835,7.2496,7.2532,7.2863,7.3487,7.4368,7.5616,7.6313,7.6665,7.7142,7.7289,7.7289,7.7289,7.7289,7.7289,7.7289,7.7289,7.7289,7.7289,7.7289,7.7289,7.7289,7.7289,7.7509,7.8405,7.8768,7.9275,8.0551,8.1995,8.3161,8.3651,8.4686,8.5741,8.6467,8.7297,8.8176,8.9141,8.8912,8.8644,8.8797,8.7641,8.6991,8.7498,8.7106,8.68,8.68,8.692,8.6833,8.6391,8.615,8.6244,8.6632,8.6286,8.6094,8.6094,8.6094,8.6094,8.6094,8.6094,8.6094,8.6094,8.6094,8.6094,4.6608,4.7228,4.7961,4.884,4.6724,4.4111,4.273,4.0969,3.9887,4.0875,4.0688,0.0,0.0,0.0,4.1028,4.1555,0.0,4.4501,4.3153,4.459,4.6488,4.8517,4.7928,4.8361,5.0913,5.1789,5.222,5.2177,5.3274,5.4516,5.5919,5.8795,6.0747,6.1569,6.2389,6.2793,6.2793,6.3429,6.4163,6.4971,6.5778,6.6586,6.737,6.759,6.77,6.7774,6.9376,7.011,7.022,7.1835,7.2642,7.2826,7.2606,7.312,7.4184,7.5359,7.5909,7.624,7.7032,7.7289,7.7289,7.7289,7.7289,7.7289,7.7289,7.7289,7.7289,7.7289,7.7289,7.7289,7.7289,7.7289,7.7472,7.8112,7.8361,7.8731,7.9758,8.1231,8.2521,8.3122,8.4336,8.5332,8.5481,8.6227,8.7221,8.8443,8.853,8.8568,8.8912,8.7918,8.7498,8.8339,8.746,8.6915,8.7144,8.7083,8.6708,8.5928,8.624,8.6363,8.6094,8.6094,8.6094,8.6094,8.6094,8.6094,8.6094,8.6094,8.6094,8.6094,8.6094,8.6094,5.2504,5.1606,5.065,5.149,4.8538,4.5245,4.44,4.4104,4.3765,4.2994,4.4719,4.6182,4.5462,4.5309,4.4503,0.0,4.3072,0.0,0.0,4.0491,4.118,4.2855,4.4852,4.7355,5.0691,5.0709,5.0821,5.1561,5.1656,5.2956,5.5856,5.6862,5.8652,6.1508,6.2389,6.2793,6.2793,6.2829,6.3282,6.4139,6.4971,6.5778,6.6549,6.7333,6.77,6.7774,6.9376,7.011,7.022,7.1835,7.2973,7.356,7.2789,7.3487,7.4867,7.4903,7.5417,7.624,7.7032,7.7289,7.7289,7.7289,7.7289,7.7289,7.7289,7.7289,7.7289,7.7289,7.7289,7.7289,7.7289,7.7289,7.7326,7.7362,7.7732,7.8006,7.7537,7.9521,8.1457,8.1482,8.3232,8.4881,8.5393,8.6227,8.68,8.6877,8.8252,8.8988,8.8234,8.8071,8.8377,8.9179,8.7794,8.7144,8.7995,8.7369,8.6632,8.6026,8.6851,8.6978,8.6132,8.6094,8.6094,8.6094,8.6094,8.6094,8.6094,8.6094,8.6094,8.6094,8.6094,8.6094,5.332,5.3801,5.3834,5.4181,5.1086,4.7452,4.5524,4.4673,4.385,4.2462,4.4653,4.6387,4.4969,4.5139,0.0,0.0,0.0,4.3273,0.0,3.8851,3.8395,4.0081,4.3399,4.5449,4.525,4.7321,4.8464,4.8001,4.8404,5.0235,5.3765,5.5503,5.7776,6.0725,6.1594,6.2254,6.2793,6.2793,6.3246,6.4103,6.4934,6.5742,6.6512,6.7333,6.77,6.7774,6.9376,7.011,7.022,7.1835,7.2973,7.3611,7.2826,7.3156,7.4184,7.4683,7.5432,7.624,7.7032,7.7289,7.7289,7.7289,7.7289,7.7289,7.7289,7.7289,7.7289,7.7289,7.7289,7.7289,7.7289,7.7289,7.7289,7.7289,7.7457,7.7672,7.8085,7.9578,8.1136,8.2081,8.3586,8.487,8.5393,8.5731,8.6151,8.6724,8.7766,8.8415,8.8148,8.812,8.8186,8.8492,8.7488,8.6915,8.7231,8.6585,8.6131,8.5996,8.6351,8.6401,8.6094,8.6094,8.6094,8.6094,8.6094,8.6094,8.6094,8.6094,8.6094,8.6094,8.6094,8.6094,5.5477,5.5695,5.5644,5.6568,5.3412,4.9838,4.8897,4.8236,4.7372,4.5704,4.7362,4.8851,4.8025,4.7074,4.6536,0.0,0.0,4.3003,0.0,3.7785,3.7211,3.8013,4.1304,4.3573,4.3779,4.487,4.5742,4.6224,4.5872,4.7486,5.1794,5.3842,5.6323,5.944,6.086,6.1851,6.2365,6.2646,6.3086,6.3649,6.4787,6.5582,6.6109,6.7187,6.77,6.7774,6.9376,7.011,7.022,7.1835,7.2973,7.3611,7.2826,7.334,7.4588,7.4793,7.5601,7.6592,7.7142,7.7289,7.7289,7.7289,7.7289,7.7289,7.7289,7.7289,7.7289,7.7289,7.7289,7.7289,7.7289,7.7289,7.735,7.754,7.7599,7.7747,7.83,7.9477,8.08,8.2006,8.3322,8.4528,8.5355,8.5501,8.5692,8.6265,8.7078,8.7651,8.7651,8.7651,8.7766,8.8081,8.704,8.6372,8.6451,8.6039,8.587,8.6039,8.6099,8.6094,8.6094,8.6094,8.6671,8.7902,8.6709,8.6709,8.7902,8.6709,8.6094,8.6094,8.6094,8.6094]}]]